<?xml version="1.0" encoding="UTF-8" standalone="no" ?>
<gpx xmlns="http://www.topografix.com/GPX/1/1" xmlns:xsi="http://www.w3.org/2001/XMLSchema-instance" xsi:schemaLocation="http://www.topografix.com/GPX/1/1 http://www.topografix.com/GPX/1/1/gpx.xsd" version="1.1" creator="VisuGPX - https://www.visugpx.com">
  <metadata>
    <name>Mont Bégo et Vallée des Merveilles</name>
    <desc><![CDATA[Rando-Trail de 25km dans le Mercantour]]></desc>
  </metadata>
  <trk>
    <name><![CDATA[Move]]></name>
    <trkseg>
      <trkpt lat="44.07569" lon="7.40182">
        <ele>1707</ele>
        <time>2013-08-10T06:01:33.770Z</time>
      </trkpt>
      <trkpt lat="44.0759" lon="7.40182">
        <ele>1707</ele>
        <time>2013-08-10T06:01:43.350Z</time>
      </trkpt>
      <trkpt lat="44.07621" lon="7.4017">
        <ele>1710</ele>
        <time>2013-08-10T06:01:57.470Z</time>
      </trkpt>
      <trkpt lat="44.07645" lon="7.40165">
        <ele>1710</ele>
        <time>2013-08-10T06:02:08.470Z</time>
      </trkpt>
      <trkpt lat="44.07666" lon="7.40166">
        <ele>1710</ele>
        <time>2013-08-10T06:02:17.470Z</time>
      </trkpt>
      <trkpt lat="44.07688" lon="7.40163">
        <ele>1712</ele>
        <time>2013-08-10T06:02:28.470Z</time>
      </trkpt>
      <trkpt lat="44.07712" lon="7.40171">
        <ele>1714</ele>
        <time>2013-08-10T06:02:39.470Z</time>
      </trkpt>
      <trkpt lat="44.07735" lon="7.40169">
        <ele>1716</ele>
        <time>2013-08-10T06:02:51.370Z</time>
      </trkpt>
      <trkpt lat="44.07762" lon="7.40203">
        <ele>1718</ele>
        <time>2013-08-10T06:03:15.350Z</time>
      </trkpt>
      <trkpt lat="44.07784" lon="7.4021">
        <ele>1719</ele>
        <time>2013-08-10T06:03:27.370Z</time>
      </trkpt>
      <trkpt lat="44.07786" lon="7.40219">
        <ele>1719</ele>
        <time>2013-08-10T06:03:32.470Z</time>
      </trkpt>
      <trkpt lat="44.0782" lon="7.4026">
        <ele>1721</ele>
        <time>2013-08-10T06:03:53.470Z</time>
      </trkpt>
      <trkpt lat="44.07848" lon="7.40268">
        <ele>1724</ele>
        <time>2013-08-10T06:04:09.470Z</time>
      </trkpt>
      <trkpt lat="44.07867" lon="7.40265">
        <ele>1727</ele>
        <time>2013-08-10T06:04:22.470Z</time>
      </trkpt>
      <trkpt lat="44.07872" lon="7.40259">
        <ele>1728</ele>
        <time>2013-08-10T06:04:29.370Z</time>
      </trkpt>
      <trkpt lat="44.07885" lon="7.40264">
        <ele>1730</ele>
        <time>2013-08-10T06:04:37.470Z</time>
      </trkpt>
      <trkpt lat="44.07903" lon="7.40281">
        <ele>1730</ele>
        <time>2013-08-10T06:04:47.470Z</time>
      </trkpt>
      <trkpt lat="44.07922" lon="7.40285">
        <ele>1732</ele>
        <time>2013-08-10T06:04:56.470Z</time>
      </trkpt>
      <trkpt lat="44.07934" lon="7.40299">
        <ele>1732.371432751</ele>
        <time>2013-08-10T06:05:04.470Z</time>
      </trkpt>
      <trkpt lat="44.07967" lon="7.40281">
        <ele>1735</ele>
        <time>2013-08-10T06:05:21.470Z</time>
      </trkpt>
      <trkpt lat="44.07981" lon="7.40279">
        <ele>1740</ele>
        <time>2013-08-10T06:05:30.370Z</time>
      </trkpt>
      <trkpt lat="44.0801" lon="7.40277">
        <ele>1741</ele>
        <time>2013-08-10T06:05:53.370Z</time>
      </trkpt>
      <trkpt lat="44.0801" lon="7.40286">
        <ele>1742</ele>
        <time>2013-08-10T06:06:15.450Z</time>
      </trkpt>
      <trkpt lat="44.08013" lon="7.40279">
        <ele>1742</ele>
        <time>2013-08-10T06:06:26.470Z</time>
      </trkpt>
      <trkpt lat="44.08011" lon="7.40275">
        <ele>1742</ele>
        <time>2013-08-10T06:06:35.330Z</time>
      </trkpt>
      <trkpt lat="44.08027" lon="7.40266">
        <ele>1743</ele>
        <time>2013-08-10T06:07:08.370Z</time>
      </trkpt>
      <trkpt lat="44.08031" lon="7.40252">
        <ele>1744</ele>
        <time>2013-08-10T06:07:18.370Z</time>
      </trkpt>
      <trkpt lat="44.08043" lon="7.4024">
        <ele>1745</ele>
        <time>2013-08-10T06:07:27.470Z</time>
      </trkpt>
      <trkpt lat="44.08052" lon="7.4024">
        <ele>1747</ele>
        <time>2013-08-10T06:07:35.470Z</time>
      </trkpt>
      <trkpt lat="44.08065" lon="7.40233">
        <ele>1749</ele>
        <time>2013-08-10T06:07:45.370Z</time>
      </trkpt>
      <trkpt lat="44.08081" lon="7.40215">
        <ele>1750</ele>
        <time>2013-08-10T06:07:59.420Z</time>
      </trkpt>
      <trkpt lat="44.0809" lon="7.40212">
        <ele>1752</ele>
        <time>2013-08-10T06:08:06.370Z</time>
      </trkpt>
      <trkpt lat="44.08095" lon="7.40215">
        <ele>1752</ele>
        <time>2013-08-10T06:08:12.370Z</time>
      </trkpt>
      <trkpt lat="44.08099" lon="7.40214">
        <ele>1754</ele>
        <time>2013-08-10T06:08:15.370Z</time>
      </trkpt>
      <trkpt lat="44.08116" lon="7.40204">
        <ele>1756</ele>
        <time>2013-08-10T06:08:25.370Z</time>
      </trkpt>
      <trkpt lat="44.08124" lon="7.40206">
        <ele>1756</ele>
        <time>2013-08-10T06:08:31.370Z</time>
      </trkpt>
      <trkpt lat="44.08144" lon="7.40197">
        <ele>1757</ele>
        <time>2013-08-10T06:08:43.470Z</time>
      </trkpt>
      <trkpt lat="44.08152" lon="7.40194">
        <ele>1763</ele>
        <time>2013-08-10T06:08:50.430Z</time>
      </trkpt>
      <trkpt lat="44.08162" lon="7.40196">
        <ele>1763</ele>
        <time>2013-08-10T06:08:58.370Z</time>
      </trkpt>
      <trkpt lat="44.08175" lon="7.40195">
        <ele>1769</ele>
        <time>2013-08-10T06:09:13.470Z</time>
      </trkpt>
      <trkpt lat="44.08179" lon="7.40186">
        <ele>1769</ele>
        <time>2013-08-10T06:09:20.370Z</time>
      </trkpt>
      <trkpt lat="44.08183" lon="7.40184">
        <ele>1772</ele>
        <time>2013-08-10T06:09:26.370Z</time>
      </trkpt>
      <trkpt lat="44.08186" lon="7.40188">
        <ele>1773</ele>
        <time>2013-08-10T06:09:30.370Z</time>
      </trkpt>
      <trkpt lat="44.08203" lon="7.40188">
        <ele>1774</ele>
        <time>2013-08-10T06:09:39.470Z</time>
      </trkpt>
      <trkpt lat="44.08214" lon="7.40198">
        <ele>1774</ele>
        <time>2013-08-10T06:09:45.470Z</time>
      </trkpt>
      <trkpt lat="44.08233" lon="7.40204">
        <ele>1775</ele>
        <time>2013-08-10T06:09:55.470Z</time>
      </trkpt>
      <trkpt lat="44.08253" lon="7.40199">
        <ele>1776</ele>
        <time>2013-08-10T06:10:13.370Z</time>
      </trkpt>
      <trkpt lat="44.08258" lon="7.40202">
        <ele>1778</ele>
        <time>2013-08-10T06:10:17.450Z</time>
      </trkpt>
      <trkpt lat="44.08269" lon="7.40197">
        <ele>1778</ele>
        <time>2013-08-10T06:10:23.470Z</time>
      </trkpt>
      <trkpt lat="44.08284" lon="7.40196">
        <ele>1783</ele>
        <time>2013-08-10T06:10:32.470Z</time>
      </trkpt>
      <trkpt lat="44.08328" lon="7.40209">
        <ele>1788</ele>
        <time>2013-08-10T06:10:58.470Z</time>
      </trkpt>
      <trkpt lat="44.0834" lon="7.40205">
        <ele>1789</ele>
        <time>2013-08-10T06:11:05.370Z</time>
      </trkpt>
      <trkpt lat="44.08363" lon="7.40209">
        <ele>1790</ele>
        <time>2013-08-10T06:11:21.370Z</time>
      </trkpt>
      <trkpt lat="44.0837" lon="7.40202">
        <ele>1792</ele>
        <time>2013-08-10T06:11:28.370Z</time>
      </trkpt>
      <trkpt lat="44.08375" lon="7.40204">
        <ele>1792</ele>
        <time>2013-08-10T06:11:33.330Z</time>
      </trkpt>
      <trkpt lat="44.08383" lon="7.402">
        <ele>1797</ele>
        <time>2013-08-10T06:11:46.370Z</time>
      </trkpt>
      <trkpt lat="44.08382" lon="7.40204">
        <ele>1797</ele>
        <time>2013-08-10T06:11:59.420Z</time>
      </trkpt>
      <trkpt lat="44.08377" lon="7.40198">
        <ele>1799</ele>
        <time>2013-08-10T06:12:15.430Z</time>
      </trkpt>
      <trkpt lat="44.08374" lon="7.40201">
        <ele>1799</ele>
        <time>2013-08-10T06:12:20.370Z</time>
      </trkpt>
      <trkpt lat="44.08375" lon="7.40194">
        <ele>1799</ele>
        <time>2013-08-10T06:12:38.370Z</time>
      </trkpt>
      <trkpt lat="44.0837" lon="7.40196">
        <ele>1799</ele>
        <time>2013-08-10T06:12:53.470Z</time>
      </trkpt>
      <trkpt lat="44.08361" lon="7.40181">
        <ele>1799.7800064</ele>
        <time>2013-08-10T06:13:04.470Z</time>
      </trkpt>
      <trkpt lat="44.08324" lon="7.4015">
        <ele>1808</ele>
        <time>2013-08-10T06:13:36.370Z</time>
      </trkpt>
      <trkpt lat="44.08332" lon="7.40149">
        <ele>1808</ele>
        <time>2013-08-10T06:13:43.370Z</time>
      </trkpt>
      <trkpt lat="44.08344" lon="7.40142">
        <ele>1815</ele>
        <time>2013-08-10T06:13:55.470Z</time>
      </trkpt>
      <trkpt lat="44.08358" lon="7.40138">
        <ele>1818</ele>
        <time>2013-08-10T06:14:06.370Z</time>
      </trkpt>
      <trkpt lat="44.08368" lon="7.4013">
        <ele>1820</ele>
        <time>2013-08-10T06:14:15.370Z</time>
      </trkpt>
      <trkpt lat="44.08355" lon="7.40126">
        <ele>1820.7800064</ele>
        <time>2013-08-10T06:14:24.470Z</time>
      </trkpt>
      <trkpt lat="44.08348" lon="7.40115">
        <ele>1822</ele>
        <time>2013-08-10T06:14:32.370Z</time>
      </trkpt>
      <trkpt lat="44.08346" lon="7.40112">
        <ele>1825</ele>
        <time>2013-08-10T06:14:35.370Z</time>
      </trkpt>
      <trkpt lat="44.08327" lon="7.40097">
        <ele>1827</ele>
        <time>2013-08-10T06:14:53.470Z</time>
      </trkpt>
      <trkpt lat="44.08315" lon="7.40079">
        <ele>1834.3900032</ele>
        <time>2013-08-10T06:15:09.470Z</time>
      </trkpt>
      <trkpt lat="44.08326" lon="7.40071">
        <ele>1838</ele>
        <time>2013-08-10T06:15:25.470Z</time>
      </trkpt>
      <trkpt lat="44.08336" lon="7.40068">
        <ele>1838</ele>
        <time>2013-08-10T06:15:33.350Z</time>
      </trkpt>
      <trkpt lat="44.08339" lon="7.40067">
        <ele>1842</ele>
        <time>2013-08-10T06:15:35.470Z</time>
      </trkpt>
      <trkpt lat="44.08364" lon="7.40062">
        <ele>1844</ele>
        <time>2013-08-10T06:15:53.450Z</time>
      </trkpt>
      <trkpt lat="44.08371" lon="7.40054">
        <ele>1846</ele>
        <time>2013-08-10T06:16:03.470Z</time>
      </trkpt>
      <trkpt lat="44.08375" lon="7.40046">
        <ele>1853</ele>
        <time>2013-08-10T06:16:11.470Z</time>
      </trkpt>
      <trkpt lat="44.08373" lon="7.40035">
        <ele>1857</ele>
        <time>2013-08-10T06:16:25.470Z</time>
      </trkpt>
      <trkpt lat="44.08384" lon="7.40028">
        <ele>1859</ele>
        <time>2013-08-10T06:16:43.370Z</time>
      </trkpt>
      <trkpt lat="44.08382" lon="7.40022">
        <ele>1861</ele>
        <time>2013-08-10T06:16:47.330Z</time>
      </trkpt>
      <trkpt lat="44.08387" lon="7.40017">
        <ele>1861</ele>
        <time>2013-08-10T06:16:53.470Z</time>
      </trkpt>
      <trkpt lat="44.08402" lon="7.40016">
        <ele>1863</ele>
        <time>2013-08-10T06:17:02.470Z</time>
      </trkpt>
      <trkpt lat="44.08426" lon="7.40007">
        <ele>1870</ele>
        <time>2013-08-10T06:17:26.370Z</time>
      </trkpt>
      <trkpt lat="44.08457" lon="7.40022">
        <ele>1874</ele>
        <time>2013-08-10T06:19:40.370Z</time>
      </trkpt>
      <trkpt lat="44.08466" lon="7.40023">
        <ele>1874</ele>
        <time>2013-08-10T06:19:47.470Z</time>
      </trkpt>
      <trkpt lat="44.08479" lon="7.40014">
        <ele>1876</ele>
        <time>2013-08-10T06:20:01.470Z</time>
      </trkpt>
      <trkpt lat="44.08495" lon="7.40013">
        <ele>1878</ele>
        <time>2013-08-10T06:20:12.370Z</time>
      </trkpt>
      <trkpt lat="44.08512" lon="7.39996">
        <ele>1880</ele>
        <time>2013-08-10T06:20:31.370Z</time>
      </trkpt>
      <trkpt lat="44.08525" lon="7.39977">
        <ele>1884</ele>
        <time>2013-08-10T06:20:48.470Z</time>
      </trkpt>
      <trkpt lat="44.08551" lon="7.39964">
        <ele>1885</ele>
        <time>2013-08-10T06:21:06.470Z</time>
      </trkpt>
      <trkpt lat="44.08557" lon="7.39964">
        <ele>1885</ele>
        <time>2013-08-10T06:21:08.370Z</time>
      </trkpt>
      <trkpt lat="44.08581" lon="7.39979">
        <ele>1887</ele>
        <time>2013-08-10T06:21:23.470Z</time>
      </trkpt>
      <trkpt lat="44.08578" lon="7.39979">
        <ele>1890</ele>
        <time>2013-08-10T06:21:25.470Z</time>
      </trkpt>
      <trkpt lat="44.08574" lon="7.39975">
        <ele>1889</ele>
        <time>2013-08-10T06:21:37.370Z</time>
      </trkpt>
      <trkpt lat="44.08579" lon="7.39977">
        <ele>1889.5799936</ele>
        <time>2013-08-10T06:21:44.370Z</time>
      </trkpt>
      <trkpt lat="44.08582" lon="7.39975">
        <ele>1891</ele>
        <time>2013-08-10T06:21:49.370Z</time>
      </trkpt>
      <trkpt lat="44.08584" lon="7.3998">
        <ele>1893</ele>
        <time>2013-08-10T06:21:59.350Z</time>
      </trkpt>
      <trkpt lat="44.08592" lon="7.39981">
        <ele>1894</ele>
        <time>2013-08-10T06:22:15.470Z</time>
      </trkpt>
      <trkpt lat="44.08596" lon="7.39978">
        <ele>1894</ele>
        <time>2013-08-10T06:22:21.470Z</time>
      </trkpt>
      <trkpt lat="44.08601" lon="7.39969">
        <ele>1898</ele>
        <time>2013-08-10T06:22:36.470Z</time>
      </trkpt>
      <trkpt lat="44.08606" lon="7.39967">
        <ele>1898</ele>
        <time>2013-08-10T06:22:43.470Z</time>
      </trkpt>
      <trkpt lat="44.0861" lon="7.39963">
        <ele>1903</ele>
        <time>2013-08-10T06:22:51.470Z</time>
      </trkpt>
      <trkpt lat="44.08623" lon="7.39959">
        <ele>1906</ele>
        <time>2013-08-10T06:23:09.370Z</time>
      </trkpt>
      <trkpt lat="44.08632" lon="7.39969">
        <ele>1910</ele>
        <time>2013-08-10T06:23:25.350Z</time>
      </trkpt>
      <trkpt lat="44.08636" lon="7.3997">
        <ele>1910</ele>
        <time>2013-08-10T06:23:33.420Z</time>
      </trkpt>
      <trkpt lat="44.08637" lon="7.39973">
        <ele>1912</ele>
        <time>2013-08-10T06:23:37.470Z</time>
      </trkpt>
      <trkpt lat="44.08652" lon="7.39984">
        <ele>1914</ele>
        <time>2013-08-10T06:24:01.370Z</time>
      </trkpt>
      <trkpt lat="44.08647" lon="7.39986">
        <ele>1916</ele>
        <time>2013-08-10T06:24:26.430Z</time>
      </trkpt>
      <trkpt lat="44.0867" lon="7.40006">
        <ele>1920</ele>
        <time>2013-08-10T06:25:11.370Z</time>
      </trkpt>
      <trkpt lat="44.08671" lon="7.40013">
        <ele>1922</ele>
        <time>2013-08-10T06:25:15.370Z</time>
      </trkpt>
      <trkpt lat="44.08678" lon="7.40024">
        <ele>1922.2899968</ele>
        <time>2013-08-10T06:25:24.370Z</time>
      </trkpt>
      <trkpt lat="44.08701" lon="7.40035">
        <ele>1923</ele>
        <time>2013-08-10T06:25:37.350Z</time>
      </trkpt>
      <trkpt lat="44.08704" lon="7.4004">
        <ele>1923</ele>
        <time>2013-08-10T06:25:42.370Z</time>
      </trkpt>
      <trkpt lat="44.08708" lon="7.40038">
        <ele>1923</ele>
        <time>2013-08-10T06:25:46.370Z</time>
      </trkpt>
      <trkpt lat="44.08713" lon="7.40044">
        <ele>1923.7800064</ele>
        <time>2013-08-10T06:25:54.470Z</time>
      </trkpt>
      <trkpt lat="44.08717" lon="7.40046">
        <ele>1925</ele>
        <time>2013-08-10T06:26:03.470Z</time>
      </trkpt>
      <trkpt lat="44.08719" lon="7.40037">
        <ele>1929</ele>
        <time>2013-08-10T06:26:13.370Z</time>
      </trkpt>
      <trkpt lat="44.08744" lon="7.40066">
        <ele>1937</ele>
        <time>2013-08-10T06:26:52.370Z</time>
      </trkpt>
      <trkpt lat="44.08742" lon="7.40062">
        <ele>1939</ele>
        <time>2013-08-10T06:26:57.370Z</time>
      </trkpt>
      <trkpt lat="44.08744" lon="7.40035">
        <ele>1941</ele>
        <time>2013-08-10T06:27:17.370Z</time>
      </trkpt>
      <trkpt lat="44.08738" lon="7.40014">
        <ele>1944</ele>
        <time>2013-08-10T06:27:36.470Z</time>
      </trkpt>
      <trkpt lat="44.08724" lon="7.39998">
        <ele>1949</ele>
        <time>2013-08-10T06:28:01.370Z</time>
      </trkpt>
      <trkpt lat="44.0872" lon="7.39985">
        <ele>1952</ele>
        <time>2013-08-10T06:28:17.470Z</time>
      </trkpt>
      <trkpt lat="44.08715" lon="7.39982">
        <ele>1954</ele>
        <time>2013-08-10T06:28:30.470Z</time>
      </trkpt>
      <trkpt lat="44.08721" lon="7.39987">
        <ele>1954</ele>
        <time>2013-08-10T06:28:42.370Z</time>
      </trkpt>
      <trkpt lat="44.08719" lon="7.39987">
        <ele>1952</ele>
        <time>2013-08-10T06:28:57.370Z</time>
      </trkpt>
      <trkpt lat="44.08734" lon="7.39984">
        <ele>1956</ele>
        <time>2013-08-10T06:29:18.470Z</time>
      </trkpt>
      <trkpt lat="44.08739" lon="7.39987">
        <ele>1956</ele>
        <time>2013-08-10T06:29:23.470Z</time>
      </trkpt>
      <trkpt lat="44.08745" lon="7.39994">
        <ele>1962</ele>
        <time>2013-08-10T06:29:31.470Z</time>
      </trkpt>
      <trkpt lat="44.08751" lon="7.40001">
        <ele>1962</ele>
        <time>2013-08-10T06:29:35.470Z</time>
      </trkpt>
      <trkpt lat="44.088" lon="7.40027">
        <ele>1971</ele>
        <time>2013-08-10T06:30:30.470Z</time>
      </trkpt>
      <trkpt lat="44.08797" lon="7.40004">
        <ele>1975</ele>
        <time>2013-08-10T06:30:47.470Z</time>
      </trkpt>
      <trkpt lat="44.0878" lon="7.39983">
        <ele>1980</ele>
        <time>2013-08-10T06:31:08.370Z</time>
      </trkpt>
      <trkpt lat="44.08789" lon="7.39979">
        <ele>1982</ele>
        <time>2013-08-10T06:31:20.370Z</time>
      </trkpt>
      <trkpt lat="44.08779" lon="7.39969">
        <ele>1984</ele>
        <time>2013-08-10T06:31:33.420Z</time>
      </trkpt>
      <trkpt lat="44.08777" lon="7.39967">
        <ele>1986</ele>
        <time>2013-08-10T06:31:35.470Z</time>
      </trkpt>
      <trkpt lat="44.08779" lon="7.39964">
        <ele>1986</ele>
        <time>2013-08-10T06:31:37.470Z</time>
      </trkpt>
      <trkpt lat="44.08792" lon="7.39965">
        <ele>1991</ele>
        <time>2013-08-10T06:31:50.420Z</time>
      </trkpt>
      <trkpt lat="44.08807" lon="7.39965">
        <ele>1991</ele>
        <time>2013-08-10T06:32:03.470Z</time>
      </trkpt>
      <trkpt lat="44.08834" lon="7.39969">
        <ele>1997</ele>
        <time>2013-08-10T06:32:27.370Z</time>
      </trkpt>
      <trkpt lat="44.08856" lon="7.39956">
        <ele>2001</ele>
        <time>2013-08-10T06:32:49.370Z</time>
      </trkpt>
      <trkpt lat="44.08861" lon="7.39948">
        <ele>2003</ele>
        <time>2013-08-10T06:32:59.350Z</time>
      </trkpt>
      <trkpt lat="44.08869" lon="7.39945">
        <ele>2008</ele>
        <time>2013-08-10T06:33:10.470Z</time>
      </trkpt>
      <trkpt lat="44.08877" lon="7.39942">
        <ele>2008</ele>
        <time>2013-08-10T06:33:18.370Z</time>
      </trkpt>
      <trkpt lat="44.08883" lon="7.39946">
        <ele>2010</ele>
        <time>2013-08-10T06:33:25.370Z</time>
      </trkpt>
      <trkpt lat="44.08909" lon="7.39951">
        <ele>2011.2899968</ele>
        <time>2013-08-10T06:33:44.370Z</time>
      </trkpt>
      <trkpt lat="44.08952" lon="7.39973">
        <ele>2014</ele>
        <time>2013-08-10T06:34:06.370Z</time>
      </trkpt>
      <trkpt lat="44.08966" lon="7.39968">
        <ele>2015</ele>
        <time>2013-08-10T06:34:21.430Z</time>
      </trkpt>
      <trkpt lat="44.08978" lon="7.39971">
        <ele>2016</ele>
        <time>2013-08-10T06:34:29.470Z</time>
      </trkpt>
      <trkpt lat="44.08992" lon="7.39969">
        <ele>2016</ele>
        <time>2013-08-10T06:34:38.380Z</time>
      </trkpt>
      <trkpt lat="44.08992" lon="7.39962">
        <ele>2016</ele>
        <time>2013-08-10T06:34:45.470Z</time>
      </trkpt>
      <trkpt lat="44.08987" lon="7.39953">
        <ele>2016</ele>
        <time>2013-08-10T06:34:51.470Z</time>
      </trkpt>
      <trkpt lat="44.09001" lon="7.39952">
        <ele>2017</ele>
        <time>2013-08-10T06:34:58.470Z</time>
      </trkpt>
      <trkpt lat="44.09023" lon="7.39928">
        <ele>2019</ele>
        <time>2013-08-10T06:35:15.470Z</time>
      </trkpt>
      <trkpt lat="44.09044" lon="7.39922">
        <ele>2017</ele>
        <time>2013-08-10T06:35:29.430Z</time>
      </trkpt>
      <trkpt lat="44.09058" lon="7.39911">
        <ele>2015</ele>
        <time>2013-08-10T06:35:42.470Z</time>
      </trkpt>
      <trkpt lat="44.09071" lon="7.3992">
        <ele>2014</ele>
        <time>2013-08-10T06:35:47.470Z</time>
      </trkpt>
      <trkpt lat="44.09066" lon="7.39915">
        <ele>2014</ele>
        <time>2013-08-10T06:36:00.360Z</time>
      </trkpt>
      <trkpt lat="44.09072" lon="7.39918">
        <ele>2015</ele>
        <time>2013-08-10T06:36:06.370Z</time>
      </trkpt>
      <trkpt lat="44.09066" lon="7.39916">
        <ele>2015</ele>
        <time>2013-08-10T06:36:09.370Z</time>
      </trkpt>
      <trkpt lat="44.0907" lon="7.3991">
        <ele>2015</ele>
        <time>2013-08-10T06:36:18.470Z</time>
      </trkpt>
      <trkpt lat="44.09068" lon="7.39906">
        <ele>2015</ele>
        <time>2013-08-10T06:36:21.470Z</time>
      </trkpt>
      <trkpt lat="44.09074" lon="7.39898">
        <ele>2016</ele>
        <time>2013-08-10T06:36:32.370Z</time>
      </trkpt>
      <trkpt lat="44.0908" lon="7.39897">
        <ele>2018</ele>
        <time>2013-08-10T06:36:36.370Z</time>
      </trkpt>
      <trkpt lat="44.09084" lon="7.39886">
        <ele>2020</ele>
        <time>2013-08-10T06:36:46.370Z</time>
      </trkpt>
      <trkpt lat="44.09095" lon="7.39881">
        <ele>2021</ele>
        <time>2013-08-10T06:36:56.470Z</time>
      </trkpt>
      <trkpt lat="44.09104" lon="7.39888">
        <ele>2022</ele>
        <time>2013-08-10T06:37:28.380Z</time>
      </trkpt>
      <trkpt lat="44.09099" lon="7.39878">
        <ele>2023</ele>
        <time>2013-08-10T06:37:43.370Z</time>
      </trkpt>
      <trkpt lat="44.09084" lon="7.39872">
        <ele>2025</ele>
        <time>2013-08-10T06:37:55.370Z</time>
      </trkpt>
      <trkpt lat="44.09082" lon="7.39855">
        <ele>2026</ele>
        <time>2013-08-10T06:38:12.370Z</time>
      </trkpt>
      <trkpt lat="44.09085" lon="7.39857">
        <ele>2028</ele>
        <time>2013-08-10T06:38:16.320Z</time>
      </trkpt>
      <trkpt lat="44.09083" lon="7.39848">
        <ele>2029</ele>
        <time>2013-08-10T06:38:33.420Z</time>
      </trkpt>
      <trkpt lat="44.09079" lon="7.39843">
        <ele>2031</ele>
        <time>2013-08-10T06:38:40.470Z</time>
      </trkpt>
      <trkpt lat="44.09081" lon="7.39837">
        <ele>2033</ele>
        <time>2013-08-10T06:38:45.470Z</time>
      </trkpt>
      <trkpt lat="44.09088" lon="7.39836">
        <ele>2033</ele>
        <time>2013-08-10T06:38:50.320Z</time>
      </trkpt>
      <trkpt lat="44.09083" lon="7.39832">
        <ele>2033</ele>
        <time>2013-08-10T06:38:52.370Z</time>
      </trkpt>
      <trkpt lat="44.09086" lon="7.39817">
        <ele>2035</ele>
        <time>2013-08-10T06:39:03.470Z</time>
      </trkpt>
      <trkpt lat="44.09088" lon="7.3981">
        <ele>2041</ele>
        <time>2013-08-10T06:39:10.430Z</time>
      </trkpt>
      <trkpt lat="44.09091" lon="7.39812">
        <ele>2042</ele>
        <time>2013-08-10T06:39:16.420Z</time>
      </trkpt>
      <trkpt lat="44.0909" lon="7.39809">
        <ele>2042.3900032</ele>
        <time>2013-08-10T06:39:19.470Z</time>
      </trkpt>
      <trkpt lat="44.09099" lon="7.39802">
        <ele>2044</ele>
        <time>2013-08-10T06:39:29.370Z</time>
      </trkpt>
      <trkpt lat="44.09094" lon="7.39789">
        <ele>2046</ele>
        <time>2013-08-10T06:39:39.470Z</time>
      </trkpt>
      <trkpt lat="44.09095" lon="7.39786">
        <ele>2049</ele>
        <time>2013-08-10T06:39:45.470Z</time>
      </trkpt>
      <trkpt lat="44.09101" lon="7.39786">
        <ele>2049</ele>
        <time>2013-08-10T06:39:48.450Z</time>
      </trkpt>
      <trkpt lat="44.09095" lon="7.39773">
        <ele>2051</ele>
        <time>2013-08-10T06:39:58.470Z</time>
      </trkpt>
      <trkpt lat="44.09103" lon="7.39772">
        <ele>2053</ele>
        <time>2013-08-10T06:40:09.470Z</time>
      </trkpt>
      <trkpt lat="44.09099" lon="7.39768">
        <ele>2053</ele>
        <time>2013-08-10T06:40:11.470Z</time>
      </trkpt>
      <trkpt lat="44.09099" lon="7.39758">
        <ele>2055</ele>
        <time>2013-08-10T06:40:22.470Z</time>
      </trkpt>
      <trkpt lat="44.091" lon="7.39755">
        <ele>2057</ele>
        <time>2013-08-10T06:40:25.350Z</time>
      </trkpt>
      <trkpt lat="44.09104" lon="7.39756">
        <ele>2057</ele>
        <time>2013-08-10T06:40:30.470Z</time>
      </trkpt>
      <trkpt lat="44.09096" lon="7.39745">
        <ele>2059</ele>
        <time>2013-08-10T06:40:37.350Z</time>
      </trkpt>
      <trkpt lat="44.09109" lon="7.39754">
        <ele>2059</ele>
        <time>2013-08-10T06:40:42.370Z</time>
      </trkpt>
      <trkpt lat="44.09118" lon="7.39756">
        <ele>2062.7722860112</ele>
        <time>2013-08-10T06:40:49.470Z</time>
      </trkpt>
      <trkpt lat="44.09116" lon="7.39749">
        <ele>2066</ele>
        <time>2013-08-10T06:40:56.470Z</time>
      </trkpt>
      <trkpt lat="44.09118" lon="7.39744">
        <ele>2067</ele>
        <time>2013-08-10T06:41:03.470Z</time>
      </trkpt>
      <trkpt lat="44.09115" lon="7.39741">
        <ele>2071</ele>
        <time>2013-08-10T06:41:11.470Z</time>
      </trkpt>
      <trkpt lat="44.09116" lon="7.39731">
        <ele>2071</ele>
        <time>2013-08-10T06:41:18.470Z</time>
      </trkpt>
      <trkpt lat="44.09109" lon="7.39729">
        <ele>2073</ele>
        <time>2013-08-10T06:41:35.370Z</time>
      </trkpt>
      <trkpt lat="44.09118" lon="7.39715">
        <ele>2075.8699904</ele>
        <time>2013-08-10T06:41:54.370Z</time>
      </trkpt>
      <trkpt lat="44.09118" lon="7.39705">
        <ele>2080</ele>
        <time>2013-08-10T06:42:03.370Z</time>
      </trkpt>
      <trkpt lat="44.09121" lon="7.39703">
        <ele>2083</ele>
        <time>2013-08-10T06:42:10.370Z</time>
      </trkpt>
      <trkpt lat="44.09116" lon="7.39698">
        <ele>2083</ele>
        <time>2013-08-10T06:42:20.470Z</time>
      </trkpt>
      <trkpt lat="44.09115" lon="7.39693">
        <ele>2085</ele>
        <time>2013-08-10T06:42:26.370Z</time>
      </trkpt>
      <trkpt lat="44.09122" lon="7.39692">
        <ele>2086</ele>
        <time>2013-08-10T06:42:36.370Z</time>
      </trkpt>
      <trkpt lat="44.09118" lon="7.39676">
        <ele>2088</ele>
        <time>2013-08-10T06:42:49.470Z</time>
      </trkpt>
      <trkpt lat="44.09125" lon="7.39664">
        <ele>2090</ele>
        <time>2013-08-10T06:43:00.460Z</time>
      </trkpt>
      <trkpt lat="44.09127" lon="7.39666">
        <ele>2093</ele>
        <time>2013-08-10T06:43:05.470Z</time>
      </trkpt>
      <trkpt lat="44.09131" lon="7.3965">
        <ele>2094.5742529085</ele>
        <time>2013-08-10T06:43:24.370Z</time>
      </trkpt>
      <trkpt lat="44.09137" lon="7.39648">
        <ele>2096</ele>
        <time>2013-08-10T06:43:29.370Z</time>
      </trkpt>
      <trkpt lat="44.09143" lon="7.39651">
        <ele>2098</ele>
        <time>2013-08-10T06:43:36.370Z</time>
      </trkpt>
      <trkpt lat="44.09147" lon="7.3966">
        <ele>2098</ele>
        <time>2013-08-10T06:43:42.330Z</time>
      </trkpt>
      <trkpt lat="44.09153" lon="7.39645">
        <ele>2102</ele>
        <time>2013-08-10T06:43:56.370Z</time>
      </trkpt>
      <trkpt lat="44.09158" lon="7.39651">
        <ele>2102</ele>
        <time>2013-08-10T06:44:01.370Z</time>
      </trkpt>
      <trkpt lat="44.09163" lon="7.39642">
        <ele>2104</ele>
        <time>2013-08-10T06:44:12.370Z</time>
      </trkpt>
      <trkpt lat="44.09172" lon="7.39645">
        <ele>2106</ele>
        <time>2013-08-10T06:44:21.370Z</time>
      </trkpt>
      <trkpt lat="44.09171" lon="7.39638">
        <ele>2109</ele>
        <time>2013-08-10T06:44:25.370Z</time>
      </trkpt>
      <trkpt lat="44.09173" lon="7.39622">
        <ele>2111</ele>
        <time>2013-08-10T06:44:41.370Z</time>
      </trkpt>
      <trkpt lat="44.09189" lon="7.3962">
        <ele>2115</ele>
        <time>2013-08-10T06:44:56.370Z</time>
      </trkpt>
      <trkpt lat="44.09211" lon="7.39587">
        <ele>2123</ele>
        <time>2013-08-10T06:45:25.470Z</time>
      </trkpt>
      <trkpt lat="44.09209" lon="7.39583">
        <ele>2123</ele>
        <time>2013-08-10T06:45:28.470Z</time>
      </trkpt>
      <trkpt lat="44.09218" lon="7.39577">
        <ele>2125</ele>
        <time>2013-08-10T06:45:35.470Z</time>
      </trkpt>
      <trkpt lat="44.09257" lon="7.39571">
        <ele>2127</ele>
        <time>2013-08-10T06:48:13.470Z</time>
      </trkpt>
      <trkpt lat="44.09265" lon="7.39558">
        <ele>2125</ele>
        <time>2013-08-10T06:48:25.370Z</time>
      </trkpt>
      <trkpt lat="44.09268" lon="7.39557">
        <ele>2125</ele>
        <time>2013-08-10T06:48:28.370Z</time>
      </trkpt>
      <trkpt lat="44.09267" lon="7.39546">
        <ele>2126</ele>
        <time>2013-08-10T06:48:36.370Z</time>
      </trkpt>
      <trkpt lat="44.09271" lon="7.39549">
        <ele>2126</ele>
        <time>2013-08-10T06:48:39.370Z</time>
      </trkpt>
      <trkpt lat="44.09277" lon="7.39543">
        <ele>2128</ele>
        <time>2013-08-10T06:48:48.260Z</time>
      </trkpt>
      <trkpt lat="44.09288" lon="7.39546">
        <ele>2129</ele>
        <time>2013-08-10T06:48:59.420Z</time>
      </trkpt>
      <trkpt lat="44.09306" lon="7.39531">
        <ele>2128</ele>
        <time>2013-08-10T06:49:19.470Z</time>
      </trkpt>
      <trkpt lat="44.09319" lon="7.39527">
        <ele>2125</ele>
        <time>2013-08-10T06:49:37.370Z</time>
      </trkpt>
      <trkpt lat="44.09325" lon="7.39521">
        <ele>2124</ele>
        <time>2013-08-10T06:49:46.370Z</time>
      </trkpt>
      <trkpt lat="44.09353" lon="7.39512">
        <ele>2123</ele>
        <time>2013-08-10T06:50:09.470Z</time>
      </trkpt>
      <trkpt lat="44.09372" lon="7.39525">
        <ele>2123</ele>
        <time>2013-08-10T06:50:27.470Z</time>
      </trkpt>
      <trkpt lat="44.09378" lon="7.39525">
        <ele>2123</ele>
        <time>2013-08-10T06:50:34.370Z</time>
      </trkpt>
      <trkpt lat="44.094" lon="7.39537">
        <ele>2123</ele>
        <time>2013-08-10T06:50:53.370Z</time>
      </trkpt>
      <trkpt lat="44.09419" lon="7.39532">
        <ele>2122</ele>
        <time>2013-08-10T06:51:13.370Z</time>
      </trkpt>
      <trkpt lat="44.09426" lon="7.39527">
        <ele>2124</ele>
        <time>2013-08-10T06:51:21.350Z</time>
      </trkpt>
      <trkpt lat="44.09435" lon="7.3953">
        <ele>2125</ele>
        <time>2013-08-10T06:51:28.470Z</time>
      </trkpt>
      <trkpt lat="44.09445" lon="7.39526">
        <ele>2126</ele>
        <time>2013-08-10T06:51:40.470Z</time>
      </trkpt>
      <trkpt lat="44.09457" lon="7.39535">
        <ele>2126</ele>
        <time>2013-08-10T06:51:47.470Z</time>
      </trkpt>
      <trkpt lat="44.09485" lon="7.39535">
        <ele>2125</ele>
        <time>2013-08-10T06:52:01.370Z</time>
      </trkpt>
      <trkpt lat="44.09524" lon="7.39543">
        <ele>2125</ele>
        <time>2013-08-10T06:52:21.470Z</time>
      </trkpt>
      <trkpt lat="44.09542" lon="7.39565">
        <ele>2124</ele>
        <time>2013-08-10T06:52:31.470Z</time>
      </trkpt>
      <trkpt lat="44.09565" lon="7.39571">
        <ele>2123</ele>
        <time>2013-08-10T06:52:41.470Z</time>
      </trkpt>
      <trkpt lat="44.09572" lon="7.39565">
        <ele>2122</ele>
        <time>2013-08-10T06:52:45.370Z</time>
      </trkpt>
      <trkpt lat="44.09577" lon="7.39547">
        <ele>2122</ele>
        <time>2013-08-10T06:52:55.470Z</time>
      </trkpt>
      <trkpt lat="44.09591" lon="7.39543">
        <ele>2122</ele>
        <time>2013-08-10T06:53:01.470Z</time>
      </trkpt>
      <trkpt lat="44.09639" lon="7.39554">
        <ele>2123</ele>
        <time>2013-08-10T06:53:21.470Z</time>
      </trkpt>
      <trkpt lat="44.09688" lon="7.39558">
        <ele>2124</ele>
        <time>2013-08-10T06:53:41.370Z</time>
      </trkpt>
      <trkpt lat="44.09697" lon="7.39555">
        <ele>2125</ele>
        <time>2013-08-10T06:53:45.470Z</time>
      </trkpt>
      <trkpt lat="44.09713" lon="7.3956">
        <ele>2125</ele>
        <time>2013-08-10T06:53:54.330Z</time>
      </trkpt>
      <trkpt lat="44.09732" lon="7.39559">
        <ele>2125</ele>
        <time>2013-08-10T06:54:04.470Z</time>
      </trkpt>
      <trkpt lat="44.09778" lon="7.39542">
        <ele>2129</ele>
        <time>2013-08-10T06:54:38.470Z</time>
      </trkpt>
      <trkpt lat="44.09798" lon="7.39545">
        <ele>2131</ele>
        <time>2013-08-10T06:54:48.460Z</time>
      </trkpt>
      <trkpt lat="44.09807" lon="7.39551">
        <ele>2131</ele>
        <time>2013-08-10T06:54:53.360Z</time>
      </trkpt>
      <trkpt lat="44.09812" lon="7.39546">
        <ele>2132</ele>
        <time>2013-08-10T06:55:00.360Z</time>
      </trkpt>
      <trkpt lat="44.09819" lon="7.39547">
        <ele>2133</ele>
        <time>2013-08-10T06:55:08.470Z</time>
      </trkpt>
      <trkpt lat="44.09851" lon="7.39581">
        <ele>2136</ele>
        <time>2013-08-10T06:55:43.470Z</time>
      </trkpt>
      <trkpt lat="44.09861" lon="7.39579">
        <ele>2140</ele>
        <time>2013-08-10T06:55:55.360Z</time>
      </trkpt>
      <trkpt lat="44.09866" lon="7.39586">
        <ele>2140</ele>
        <time>2013-08-10T06:56:03.360Z</time>
      </trkpt>
      <trkpt lat="44.09867" lon="7.39587">
        <ele>2144</ele>
        <time>2013-08-10T06:56:05.360Z</time>
      </trkpt>
      <trkpt lat="44.0987" lon="7.39588">
        <ele>2144</ele>
        <time>2013-08-10T06:56:08.360Z</time>
      </trkpt>
      <trkpt lat="44.09871" lon="7.39587">
        <ele>2146</ele>
        <time>2013-08-10T06:56:10.330Z</time>
      </trkpt>
      <trkpt lat="44.09867" lon="7.39578">
        <ele>2147</ele>
        <time>2013-08-10T06:56:20.370Z</time>
      </trkpt>
      <trkpt lat="44.09877" lon="7.39581">
        <ele>2150</ele>
        <time>2013-08-10T06:56:53.460Z</time>
      </trkpt>
      <trkpt lat="44.09879" lon="7.39591">
        <ele>2150</ele>
        <time>2013-08-10T06:57:02.460Z</time>
      </trkpt>
      <trkpt lat="44.09887" lon="7.39601">
        <ele>2151</ele>
        <time>2013-08-10T06:57:10.460Z</time>
      </trkpt>
      <trkpt lat="44.09888" lon="7.39617">
        <ele>2151</ele>
        <time>2013-08-10T06:57:15.360Z</time>
      </trkpt>
      <trkpt lat="44.09885" lon="7.39624">
        <ele>2151</ele>
        <time>2013-08-10T06:57:18.320Z</time>
      </trkpt>
      <trkpt lat="44.09885" lon="7.3965">
        <ele>2153</ele>
        <time>2013-08-10T06:57:28.460Z</time>
      </trkpt>
      <trkpt lat="44.09898" lon="7.39684">
        <ele>2155</ele>
        <time>2013-08-10T06:57:43.360Z</time>
      </trkpt>
      <trkpt lat="44.09898" lon="7.39692">
        <ele>2158</ele>
        <time>2013-08-10T06:57:46.360Z</time>
      </trkpt>
      <trkpt lat="44.09905" lon="7.39697">
        <ele>2161</ele>
        <time>2013-08-10T06:57:51.360Z</time>
      </trkpt>
      <trkpt lat="44.09926" lon="7.39692">
        <ele>2162</ele>
        <time>2013-08-10T06:58:03.360Z</time>
      </trkpt>
      <trkpt lat="44.0993" lon="7.39686">
        <ele>2164</ele>
        <time>2013-08-10T06:58:06.360Z</time>
      </trkpt>
      <trkpt lat="44.09949" lon="7.39674">
        <ele>2165</ele>
        <time>2013-08-10T06:58:23.470Z</time>
      </trkpt>
      <trkpt lat="44.09949" lon="7.39668">
        <ele>2167</ele>
        <time>2013-08-10T06:58:27.470Z</time>
      </trkpt>
      <trkpt lat="44.09942" lon="7.39664">
        <ele>2168.5200256</ele>
        <time>2013-08-10T06:58:34.460Z</time>
      </trkpt>
      <trkpt lat="44.09947" lon="7.39659">
        <ele>2173</ele>
        <time>2013-08-10T06:58:41.460Z</time>
      </trkpt>
      <trkpt lat="44.09942" lon="7.39647">
        <ele>2175</ele>
        <time>2013-08-10T06:58:49.360Z</time>
      </trkpt>
      <trkpt lat="44.09952" lon="7.39644">
        <ele>2176</ele>
        <time>2013-08-10T06:59:02.470Z</time>
      </trkpt>
      <trkpt lat="44.09956" lon="7.39638">
        <ele>2177</ele>
        <time>2013-08-10T06:59:08.470Z</time>
      </trkpt>
      <trkpt lat="44.09998" lon="7.39639">
        <ele>2182</ele>
        <time>2013-08-10T06:59:41.360Z</time>
      </trkpt>
      <trkpt lat="44.10016" lon="7.39631">
        <ele>2184</ele>
        <time>2013-08-10T06:59:53.470Z</time>
      </trkpt>
      <trkpt lat="44.10019" lon="7.39631">
        <ele>2187</ele>
        <time>2013-08-10T06:59:55.470Z</time>
      </trkpt>
      <trkpt lat="44.10038" lon="7.39637">
        <ele>2189</ele>
        <time>2013-08-10T07:00:09.460Z</time>
      </trkpt>
      <trkpt lat="44.10067" lon="7.39631">
        <ele>2191</ele>
        <time>2013-08-10T07:04:36.360Z</time>
      </trkpt>
      <trkpt lat="44.10083" lon="7.39636">
        <ele>2193</ele>
        <time>2013-08-10T07:04:51.360Z</time>
      </trkpt>
      <trkpt lat="44.10097" lon="7.39626">
        <ele>2194</ele>
        <time>2013-08-10T07:05:01.460Z</time>
      </trkpt>
      <trkpt lat="44.1011" lon="7.39608">
        <ele>2196</ele>
        <time>2013-08-10T07:05:12.460Z</time>
      </trkpt>
      <trkpt lat="44.10157" lon="7.39611">
        <ele>2197</ele>
        <time>2013-08-10T07:05:30.460Z</time>
      </trkpt>
      <trkpt lat="44.10173" lon="7.3961">
        <ele>2194</ele>
        <time>2013-08-10T07:05:36.460Z</time>
      </trkpt>
      <trkpt lat="44.10198" lon="7.39601">
        <ele>2191</ele>
        <time>2013-08-10T07:05:46.460Z</time>
      </trkpt>
      <trkpt lat="44.10218" lon="7.39603">
        <ele>2190</ele>
        <time>2013-08-10T07:05:53.350Z</time>
      </trkpt>
      <trkpt lat="44.10242" lon="7.39598">
        <ele>2189</ele>
        <time>2013-08-10T07:06:03.360Z</time>
      </trkpt>
      <trkpt lat="44.10252" lon="7.39601">
        <ele>2187</ele>
        <time>2013-08-10T07:06:07.360Z</time>
      </trkpt>
      <trkpt lat="44.10279" lon="7.39622">
        <ele>2186</ele>
        <time>2013-08-10T07:06:18.460Z</time>
      </trkpt>
      <trkpt lat="44.10313" lon="7.39638">
        <ele>2186</ele>
        <time>2013-08-10T07:06:30.360Z</time>
      </trkpt>
      <trkpt lat="44.10334" lon="7.39652">
        <ele>2184</ele>
        <time>2013-08-10T07:06:40.360Z</time>
      </trkpt>
      <trkpt lat="44.10335" lon="7.39656">
        <ele>2184</ele>
        <time>2013-08-10T07:06:43.360Z</time>
      </trkpt>
      <trkpt lat="44.10336" lon="7.39653">
        <ele>2182</ele>
        <time>2013-08-10T07:06:48.360Z</time>
      </trkpt>
      <trkpt lat="44.10334" lon="7.39653">
        <ele>2182</ele>
        <time>2013-08-10T07:06:50.320Z</time>
      </trkpt>
      <trkpt lat="44.10344" lon="7.39648">
        <ele>2184</ele>
        <time>2013-08-10T07:07:08.370Z</time>
      </trkpt>
      <trkpt lat="44.1035" lon="7.39656">
        <ele>2185</ele>
        <time>2013-08-10T07:07:22.460Z</time>
      </trkpt>
      <trkpt lat="44.10348" lon="7.39663">
        <ele>2185</ele>
        <time>2013-08-10T07:07:29.460Z</time>
      </trkpt>
      <trkpt lat="44.1035" lon="7.39671">
        <ele>2184</ele>
        <time>2013-08-10T07:07:35.360Z</time>
      </trkpt>
      <trkpt lat="44.10358" lon="7.39675">
        <ele>2184</ele>
        <time>2013-08-10T07:07:42.460Z</time>
      </trkpt>
      <trkpt lat="44.10368" lon="7.39688">
        <ele>2184</ele>
        <time>2013-08-10T07:07:52.460Z</time>
      </trkpt>
      <trkpt lat="44.10416" lon="7.39699">
        <ele>2184</ele>
        <time>2013-08-10T07:08:16.420Z</time>
      </trkpt>
      <trkpt lat="44.10426" lon="7.3971">
        <ele>2184</ele>
        <time>2013-08-10T07:08:22.460Z</time>
      </trkpt>
      <trkpt lat="44.10431" lon="7.39732">
        <ele>2184</ele>
        <time>2013-08-10T07:08:33.420Z</time>
      </trkpt>
      <trkpt lat="44.10443" lon="7.39747">
        <ele>2186</ele>
        <time>2013-08-10T07:08:42.360Z</time>
      </trkpt>
      <trkpt lat="44.10443" lon="7.39759">
        <ele>2187</ele>
        <time>2013-08-10T07:08:49.360Z</time>
      </trkpt>
      <trkpt lat="44.10451" lon="7.39788">
        <ele>2188</ele>
        <time>2013-08-10T07:09:09.370Z</time>
      </trkpt>
      <trkpt lat="44.10448" lon="7.39796">
        <ele>2188</ele>
        <time>2013-08-10T07:09:14.360Z</time>
      </trkpt>
      <trkpt lat="44.10452" lon="7.39802">
        <ele>2188</ele>
        <time>2013-08-10T07:09:21.370Z</time>
      </trkpt>
      <trkpt lat="44.10453" lon="7.39819">
        <ele>2187</ele>
        <time>2013-08-10T07:09:28.350Z</time>
      </trkpt>
      <trkpt lat="44.10463" lon="7.39838">
        <ele>2186</ele>
        <time>2013-08-10T07:09:35.360Z</time>
      </trkpt>
      <trkpt lat="44.10479" lon="7.39854">
        <ele>2186.28</ele>
        <time>2013-08-10T07:09:44.360Z</time>
      </trkpt>
      <trkpt lat="44.10487" lon="7.39867">
        <ele>2187</ele>
        <time>2013-08-10T07:09:53.460Z</time>
      </trkpt>
      <trkpt lat="44.10487" lon="7.39876">
        <ele>2189</ele>
        <time>2013-08-10T07:09:58.460Z</time>
      </trkpt>
      <trkpt lat="44.10493" lon="7.39904">
        <ele>2189</ele>
        <time>2013-08-10T07:10:08.360Z</time>
      </trkpt>
      <trkpt lat="44.10508" lon="7.39949">
        <ele>2190</ele>
        <time>2013-08-10T07:10:25.460Z</time>
      </trkpt>
      <trkpt lat="44.10503" lon="7.39966">
        <ele>2190</ele>
        <time>2013-08-10T07:10:31.460Z</time>
      </trkpt>
      <trkpt lat="44.10503" lon="7.39983">
        <ele>2190</ele>
        <time>2013-08-10T07:10:37.420Z</time>
      </trkpt>
      <trkpt lat="44.10519" lon="7.40005">
        <ele>2192</ele>
        <time>2013-08-10T07:10:47.370Z</time>
      </trkpt>
      <trkpt lat="44.10522" lon="7.40024">
        <ele>2192.3333290236</ele>
        <time>2013-08-10T07:10:54.420Z</time>
      </trkpt>
      <trkpt lat="44.10521" lon="7.40034">
        <ele>2193</ele>
        <time>2013-08-10T07:11:01.460Z</time>
      </trkpt>
      <trkpt lat="44.10509" lon="7.40037">
        <ele>2192</ele>
        <time>2013-08-10T07:11:12.370Z</time>
      </trkpt>
      <trkpt lat="44.1051" lon="7.40045">
        <ele>2191</ele>
        <time>2013-08-10T07:11:15.460Z</time>
      </trkpt>
      <trkpt lat="44.10515" lon="7.40056">
        <ele>2191.5799936</ele>
        <time>2013-08-10T07:11:24.370Z</time>
      </trkpt>
      <trkpt lat="44.10508" lon="7.40056">
        <ele>2193.8100096</ele>
        <time>2013-08-10T07:11:34.350Z</time>
      </trkpt>
      <trkpt lat="44.10507" lon="7.40057">
        <ele>2198</ele>
        <time>2013-08-10T07:11:40.360Z</time>
      </trkpt>
      <trkpt lat="44.1048" lon="7.40053">
        <ele>2204.7600128</ele>
        <time>2013-08-10T07:12:14.460Z</time>
      </trkpt>
      <trkpt lat="44.10472" lon="7.40046">
        <ele>2207.1400192</ele>
        <time>2013-08-10T07:12:24.460Z</time>
      </trkpt>
      <trkpt lat="44.10474" lon="7.40066">
        <ele>2212</ele>
        <time>2013-08-10T07:12:38.460Z</time>
      </trkpt>
      <trkpt lat="44.1047" lon="7.40068">
        <ele>2213.28</ele>
        <time>2013-08-10T07:12:44.360Z</time>
      </trkpt>
      <trkpt lat="44.1046" lon="7.40064">
        <ele>2214.56</ele>
        <time>2013-08-10T07:12:54.360Z</time>
      </trkpt>
      <trkpt lat="44.10452" lon="7.40051">
        <ele>2217</ele>
        <time>2013-08-10T07:13:09.460Z</time>
      </trkpt>
      <trkpt lat="44.10455" lon="7.40041">
        <ele>2218</ele>
        <time>2013-08-10T07:13:21.360Z</time>
      </trkpt>
      <trkpt lat="44.10448" lon="7.40029">
        <ele>2218</ele>
        <time>2013-08-10T07:13:36.360Z</time>
      </trkpt>
      <trkpt lat="44.10439" lon="7.40027">
        <ele>2218</ele>
        <time>2013-08-10T07:13:45.370Z</time>
      </trkpt>
      <trkpt lat="44.10438" lon="7.40023">
        <ele>2218</ele>
        <time>2013-08-10T07:13:48.360Z</time>
      </trkpt>
      <trkpt lat="44.10433" lon="7.40036">
        <ele>2218</ele>
        <time>2013-08-10T07:14:46.460Z</time>
      </trkpt>
      <trkpt lat="44.10437" lon="7.40023">
        <ele>2217</ele>
        <time>2013-08-10T07:15:35.360Z</time>
      </trkpt>
      <trkpt lat="44.10439" lon="7.40023">
        <ele>2217</ele>
        <time>2013-08-10T07:15:37.360Z</time>
      </trkpt>
      <trkpt lat="44.10451" lon="7.4004">
        <ele>2217</ele>
        <time>2013-08-10T07:15:47.360Z</time>
      </trkpt>
      <trkpt lat="44.10445" lon="7.40048">
        <ele>2217</ele>
        <time>2013-08-10T07:15:55.360Z</time>
      </trkpt>
      <trkpt lat="44.10454" lon="7.40059">
        <ele>2217</ele>
        <time>2013-08-10T07:16:12.360Z</time>
      </trkpt>
      <trkpt lat="44.10457" lon="7.40056">
        <ele>2217</ele>
        <time>2013-08-10T07:16:16.320Z</time>
      </trkpt>
      <trkpt lat="44.10449" lon="7.40039">
        <ele>2217</ele>
        <time>2013-08-10T07:16:28.460Z</time>
      </trkpt>
      <trkpt lat="44.1045" lon="7.40035">
        <ele>2217</ele>
        <time>2013-08-10T07:16:31.460Z</time>
      </trkpt>
      <trkpt lat="44.10438" lon="7.4">
        <ele>2217</ele>
        <time>2013-08-10T07:16:40.360Z</time>
      </trkpt>
      <trkpt lat="44.10423" lon="7.39982">
        <ele>2217</ele>
        <time>2013-08-10T07:16:46.360Z</time>
      </trkpt>
      <trkpt lat="44.10449" lon="7.40045">
        <ele>2218</ele>
        <time>2013-08-10T07:17:00.340Z</time>
      </trkpt>
      <trkpt lat="44.1045" lon="7.40064">
        <ele>2217</ele>
        <time>2013-08-10T07:18:18.460Z</time>
      </trkpt>
      <trkpt lat="44.10459" lon="7.40081">
        <ele>2217</ele>
        <time>2013-08-10T07:18:33.440Z</time>
      </trkpt>
      <trkpt lat="44.10468" lon="7.40087">
        <ele>2219</ele>
        <time>2013-08-10T07:18:45.460Z</time>
      </trkpt>
      <trkpt lat="44.1047" lon="7.40095">
        <ele>2219</ele>
        <time>2013-08-10T07:18:53.460Z</time>
      </trkpt>
      <trkpt lat="44.1047" lon="7.40101">
        <ele>2224</ele>
        <time>2013-08-10T07:19:00.360Z</time>
      </trkpt>
      <trkpt lat="44.10479" lon="7.40108">
        <ele>2228</ele>
        <time>2013-08-10T07:19:15.360Z</time>
      </trkpt>
      <trkpt lat="44.10481" lon="7.40115">
        <ele>2229</ele>
        <time>2013-08-10T07:19:25.460Z</time>
      </trkpt>
      <trkpt lat="44.10478" lon="7.40124">
        <ele>2229.28</ele>
        <time>2013-08-10T07:19:34.360Z</time>
      </trkpt>
      <trkpt lat="44.10485" lon="7.40131">
        <ele>2232</ele>
        <time>2013-08-10T07:19:45.460Z</time>
      </trkpt>
      <trkpt lat="44.10482" lon="7.40136">
        <ele>2232</ele>
        <time>2013-08-10T07:19:51.460Z</time>
      </trkpt>
      <trkpt lat="44.10483" lon="7.40152">
        <ele>2239</ele>
        <time>2013-08-10T07:20:15.420Z</time>
      </trkpt>
      <trkpt lat="44.10475" lon="7.40157">
        <ele>2239</ele>
        <time>2013-08-10T07:20:22.460Z</time>
      </trkpt>
      <trkpt lat="44.10473" lon="7.40168">
        <ele>2241</ele>
        <time>2013-08-10T07:20:28.460Z</time>
      </trkpt>
      <trkpt lat="44.10471" lon="7.4019">
        <ele>2240</ele>
        <time>2013-08-10T07:20:41.460Z</time>
      </trkpt>
      <trkpt lat="44.10478" lon="7.40208">
        <ele>2239</ele>
        <time>2013-08-10T07:20:50.420Z</time>
      </trkpt>
      <trkpt lat="44.10477" lon="7.40224">
        <ele>2238</ele>
        <time>2013-08-10T07:20:55.460Z</time>
      </trkpt>
      <trkpt lat="44.10472" lon="7.40253">
        <ele>2238</ele>
        <time>2013-08-10T07:21:05.460Z</time>
      </trkpt>
      <trkpt lat="44.10454" lon="7.40288">
        <ele>2239</ele>
        <time>2013-08-10T07:21:21.340Z</time>
      </trkpt>
      <trkpt lat="44.10457" lon="7.403">
        <ele>2240</ele>
        <time>2013-08-10T07:21:26.460Z</time>
      </trkpt>
      <trkpt lat="44.10455" lon="7.40317">
        <ele>2239.44</ele>
        <time>2013-08-10T07:21:34.360Z</time>
      </trkpt>
      <trkpt lat="44.10448" lon="7.4033">
        <ele>2238</ele>
        <time>2013-08-10T07:21:39.460Z</time>
      </trkpt>
      <trkpt lat="44.1044" lon="7.40339">
        <ele>2238</ele>
        <time>2013-08-10T07:21:43.460Z</time>
      </trkpt>
      <trkpt lat="44.10434" lon="7.40353">
        <ele>2235</ele>
        <time>2013-08-10T07:21:48.460Z</time>
      </trkpt>
      <trkpt lat="44.10433" lon="7.4036">
        <ele>2231</ele>
        <time>2013-08-10T07:21:50.420Z</time>
      </trkpt>
      <trkpt lat="44.10424" lon="7.40377">
        <ele>2230</ele>
        <time>2013-08-10T07:21:57.420Z</time>
      </trkpt>
      <trkpt lat="44.10416" lon="7.40383">
        <ele>2229</ele>
        <time>2013-08-10T07:22:02.460Z</time>
      </trkpt>
      <trkpt lat="44.10412" lon="7.40364">
        <ele>2228</ele>
        <time>2013-08-10T07:22:10.370Z</time>
      </trkpt>
      <trkpt lat="44.10407" lon="7.40359">
        <ele>2227.7676742863</ele>
        <time>2013-08-10T07:22:14.320Z</time>
      </trkpt>
      <trkpt lat="44.10402" lon="7.4036">
        <ele>2227</ele>
        <time>2013-08-10T07:22:19.360Z</time>
      </trkpt>
      <trkpt lat="44.104" lon="7.40368">
        <ele>2227</ele>
        <time>2013-08-10T07:22:27.460Z</time>
      </trkpt>
      <trkpt lat="44.10393" lon="7.40364">
        <ele>2227</ele>
        <time>2013-08-10T07:22:41.460Z</time>
      </trkpt>
      <trkpt lat="44.10391" lon="7.4037">
        <ele>2227</ele>
        <time>2013-08-10T07:22:57.460Z</time>
      </trkpt>
      <trkpt lat="44.1038" lon="7.40363">
        <ele>2229</ele>
        <time>2013-08-10T07:23:57.360Z</time>
      </trkpt>
      <trkpt lat="44.10377" lon="7.40379">
        <ele>2230.84</ele>
        <time>2013-08-10T07:24:14.360Z</time>
      </trkpt>
      <trkpt lat="44.10372" lon="7.4038">
        <ele>2236</ele>
        <time>2013-08-10T07:24:21.360Z</time>
      </trkpt>
      <trkpt lat="44.10373" lon="7.40391">
        <ele>2240</ele>
        <time>2013-08-10T07:24:35.360Z</time>
      </trkpt>
      <trkpt lat="44.10369" lon="7.40392">
        <ele>2240</ele>
        <time>2013-08-10T07:24:40.360Z</time>
      </trkpt>
      <trkpt lat="44.10369" lon="7.40397">
        <ele>2242</ele>
        <time>2013-08-10T07:24:45.360Z</time>
      </trkpt>
      <trkpt lat="44.10356" lon="7.4041">
        <ele>2246</ele>
        <time>2013-08-10T07:25:08.360Z</time>
      </trkpt>
      <trkpt lat="44.10349" lon="7.40427">
        <ele>2251</ele>
        <time>2013-08-10T07:25:25.460Z</time>
      </trkpt>
      <trkpt lat="44.10346" lon="7.40468">
        <ele>2253</ele>
        <time>2013-08-10T07:25:42.360Z</time>
      </trkpt>
      <trkpt lat="44.10339" lon="7.40488">
        <ele>2252</ele>
        <time>2013-08-10T07:25:52.460Z</time>
      </trkpt>
      <trkpt lat="44.10338" lon="7.40509">
        <ele>2248</ele>
        <time>2013-08-10T07:26:00.460Z</time>
      </trkpt>
      <trkpt lat="44.10331" lon="7.40516">
        <ele>2248</ele>
        <time>2013-08-10T07:26:06.480Z</time>
      </trkpt>
      <trkpt lat="44.10328" lon="7.40527">
        <ele>2248</ele>
        <time>2013-08-10T07:26:13.360Z</time>
      </trkpt>
      <trkpt lat="44.10322" lon="7.40531">
        <ele>2250</ele>
        <time>2013-08-10T07:26:21.460Z</time>
      </trkpt>
      <trkpt lat="44.10327" lon="7.40537">
        <ele>2251</ele>
        <time>2013-08-10T07:26:26.460Z</time>
      </trkpt>
      <trkpt lat="44.10327" lon="7.40547">
        <ele>2251</ele>
        <time>2013-08-10T07:26:31.370Z</time>
      </trkpt>
      <trkpt lat="44.10307" lon="7.40579">
        <ele>2254</ele>
        <time>2013-08-10T07:26:48.360Z</time>
      </trkpt>
      <trkpt lat="44.10304" lon="7.40611">
        <ele>2254</ele>
        <time>2013-08-10T07:27:02.460Z</time>
      </trkpt>
      <trkpt lat="44.10301" lon="7.40619">
        <ele>2254</ele>
        <time>2013-08-10T07:27:07.360Z</time>
      </trkpt>
      <trkpt lat="44.10294" lon="7.40622">
        <ele>2254</ele>
        <time>2013-08-10T07:27:13.360Z</time>
      </trkpt>
      <trkpt lat="44.10304" lon="7.40633">
        <ele>2255</ele>
        <time>2013-08-10T07:27:29.360Z</time>
      </trkpt>
      <trkpt lat="44.10295" lon="7.40639">
        <ele>2257</ele>
        <time>2013-08-10T07:27:41.460Z</time>
      </trkpt>
      <trkpt lat="44.10293" lon="7.40648">
        <ele>2263</ele>
        <time>2013-08-10T07:27:51.360Z</time>
      </trkpt>
      <trkpt lat="44.10302" lon="7.40657">
        <ele>2266</ele>
        <time>2013-08-10T07:28:05.460Z</time>
      </trkpt>
      <trkpt lat="44.10305" lon="7.40666">
        <ele>2268</ele>
        <time>2013-08-10T07:28:15.460Z</time>
      </trkpt>
      <trkpt lat="44.10317" lon="7.40675">
        <ele>2269</ele>
        <time>2013-08-10T07:28:26.360Z</time>
      </trkpt>
      <trkpt lat="44.10322" lon="7.4069">
        <ele>2269</ele>
        <time>2013-08-10T07:28:33.320Z</time>
      </trkpt>
      <trkpt lat="44.10315" lon="7.40721">
        <ele>2272</ele>
        <time>2013-08-10T07:28:55.360Z</time>
      </trkpt>
      <trkpt lat="44.10323" lon="7.40756">
        <ele>2277</ele>
        <time>2013-08-10T07:29:18.460Z</time>
      </trkpt>
      <trkpt lat="44.1032" lon="7.40777">
        <ele>2279</ele>
        <time>2013-08-10T07:29:31.460Z</time>
      </trkpt>
      <trkpt lat="44.10323" lon="7.40809">
        <ele>2281</ele>
        <time>2013-08-10T07:29:47.360Z</time>
      </trkpt>
      <trkpt lat="44.10308" lon="7.40798">
        <ele>2284</ele>
        <time>2013-08-10T07:30:03.460Z</time>
      </trkpt>
      <trkpt lat="44.10306" lon="7.40799">
        <ele>2287</ele>
        <time>2013-08-10T07:30:06.460Z</time>
      </trkpt>
      <trkpt lat="44.10306" lon="7.40808">
        <ele>2288</ele>
        <time>2013-08-10T07:30:15.460Z</time>
      </trkpt>
      <trkpt lat="44.10298" lon="7.40807">
        <ele>2290</ele>
        <time>2013-08-10T07:30:27.320Z</time>
      </trkpt>
      <trkpt lat="44.10295" lon="7.408">
        <ele>2295</ele>
        <time>2013-08-10T07:30:40.360Z</time>
      </trkpt>
      <trkpt lat="44.10293" lon="7.40786">
        <ele>2295</ele>
        <time>2013-08-10T07:30:51.360Z</time>
      </trkpt>
      <trkpt lat="44.10282" lon="7.40781">
        <ele>2297</ele>
        <time>2013-08-10T07:31:02.460Z</time>
      </trkpt>
      <trkpt lat="44.10278" lon="7.40781">
        <ele>2301</ele>
        <time>2013-08-10T07:31:06.360Z</time>
      </trkpt>
      <trkpt lat="44.10271" lon="7.40771">
        <ele>2303</ele>
        <time>2013-08-10T07:31:16.350Z</time>
      </trkpt>
      <trkpt lat="44.10261" lon="7.40771">
        <ele>2305</ele>
        <time>2013-08-10T07:31:25.460Z</time>
      </trkpt>
      <trkpt lat="44.10259" lon="7.40764">
        <ele>2305</ele>
        <time>2013-08-10T07:31:32.460Z</time>
      </trkpt>
      <trkpt lat="44.10248" lon="7.40765">
        <ele>2306</ele>
        <time>2013-08-10T07:31:41.460Z</time>
      </trkpt>
      <trkpt lat="44.10242" lon="7.40762">
        <ele>2309</ele>
        <time>2013-08-10T07:31:47.460Z</time>
      </trkpt>
      <trkpt lat="44.10234" lon="7.40775">
        <ele>2311</ele>
        <time>2013-08-10T07:31:59.420Z</time>
      </trkpt>
      <trkpt lat="44.10217" lon="7.4078">
        <ele>2315</ele>
        <time>2013-08-10T07:32:20.360Z</time>
      </trkpt>
      <trkpt lat="44.10208" lon="7.40795">
        <ele>2320.28</ele>
        <time>2013-08-10T07:32:34.360Z</time>
      </trkpt>
      <trkpt lat="44.10207" lon="7.40803">
        <ele>2322</ele>
        <time>2013-08-10T07:32:40.360Z</time>
      </trkpt>
      <trkpt lat="44.10201" lon="7.4081">
        <ele>2323</ele>
        <time>2013-08-10T07:32:47.360Z</time>
      </trkpt>
      <trkpt lat="44.10194" lon="7.40826">
        <ele>2323</ele>
        <time>2013-08-10T07:32:56.460Z</time>
      </trkpt>
      <trkpt lat="44.10193" lon="7.40838">
        <ele>2323</ele>
        <time>2013-08-10T07:33:03.460Z</time>
      </trkpt>
      <trkpt lat="44.1019" lon="7.40847">
        <ele>2327</ele>
        <time>2013-08-10T07:33:10.460Z</time>
      </trkpt>
      <trkpt lat="44.10192" lon="7.40861">
        <ele>2328</ele>
        <time>2013-08-10T07:33:23.460Z</time>
      </trkpt>
      <trkpt lat="44.1019" lon="7.40865">
        <ele>2330</ele>
        <time>2013-08-10T07:33:27.420Z</time>
      </trkpt>
      <trkpt lat="44.10183" lon="7.40864">
        <ele>2330</ele>
        <time>2013-08-10T07:33:33.420Z</time>
      </trkpt>
      <trkpt lat="44.10181" lon="7.40865">
        <ele>2333</ele>
        <time>2013-08-10T07:33:35.460Z</time>
      </trkpt>
      <trkpt lat="44.10184" lon="7.40869">
        <ele>2334</ele>
        <time>2013-08-10T07:33:41.340Z</time>
      </trkpt>
      <trkpt lat="44.10179" lon="7.40874">
        <ele>2337</ele>
        <time>2013-08-10T07:33:51.330Z</time>
      </trkpt>
      <trkpt lat="44.1017" lon="7.40868">
        <ele>2340</ele>
        <time>2013-08-10T07:34:00.460Z</time>
      </trkpt>
      <trkpt lat="44.10162" lon="7.40871">
        <ele>2341</ele>
        <time>2013-08-10T07:34:10.360Z</time>
      </trkpt>
      <trkpt lat="44.10156" lon="7.40887">
        <ele>2343</ele>
        <time>2013-08-10T07:34:23.360Z</time>
      </trkpt>
      <trkpt lat="44.10151" lon="7.40893">
        <ele>2347</ele>
        <time>2013-08-10T07:34:31.360Z</time>
      </trkpt>
      <trkpt lat="44.10145" lon="7.40911">
        <ele>2353</ele>
        <time>2013-08-10T07:34:46.360Z</time>
      </trkpt>
      <trkpt lat="44.10141" lon="7.40921">
        <ele>2353</ele>
        <time>2013-08-10T07:34:53.360Z</time>
      </trkpt>
      <trkpt lat="44.10143" lon="7.40934">
        <ele>2352</ele>
        <time>2013-08-10T07:35:03.460Z</time>
      </trkpt>
      <trkpt lat="44.10139" lon="7.40947">
        <ele>2354</ele>
        <time>2013-08-10T07:35:45.360Z</time>
      </trkpt>
      <trkpt lat="44.1014" lon="7.40968">
        <ele>2354</ele>
        <time>2013-08-10T07:36:01.360Z</time>
      </trkpt>
      <trkpt lat="44.10144" lon="7.4099">
        <ele>2350</ele>
        <time>2013-08-10T07:36:19.460Z</time>
      </trkpt>
      <trkpt lat="44.10127" lon="7.41017">
        <ele>2349</ele>
        <time>2013-08-10T07:36:32.460Z</time>
      </trkpt>
      <trkpt lat="44.1011" lon="7.4108">
        <ele>2349</ele>
        <time>2013-08-10T07:36:51.460Z</time>
      </trkpt>
      <trkpt lat="44.10097" lon="7.41099">
        <ele>2350</ele>
        <time>2013-08-10T07:37:02.360Z</time>
      </trkpt>
      <trkpt lat="44.10099" lon="7.41109">
        <ele>2350</ele>
        <time>2013-08-10T07:37:09.440Z</time>
      </trkpt>
      <trkpt lat="44.10096" lon="7.4113">
        <ele>2352</ele>
        <time>2013-08-10T07:37:17.460Z</time>
      </trkpt>
      <trkpt lat="44.10096" lon="7.41181">
        <ele>2357</ele>
        <time>2013-08-10T07:37:41.360Z</time>
      </trkpt>
      <trkpt lat="44.10107" lon="7.41227">
        <ele>2357</ele>
        <time>2013-08-10T07:38:03.460Z</time>
      </trkpt>
      <trkpt lat="44.10108" lon="7.41247">
        <ele>2357</ele>
        <time>2013-08-10T07:38:12.360Z</time>
      </trkpt>
      <trkpt lat="44.10117" lon="7.41272">
        <ele>2359</ele>
        <time>2013-08-10T07:38:24.360Z</time>
      </trkpt>
      <trkpt lat="44.10118" lon="7.41298">
        <ele>2359</ele>
        <time>2013-08-10T07:38:32.460Z</time>
      </trkpt>
      <trkpt lat="44.10125" lon="7.41344">
        <ele>2359</ele>
        <time>2013-08-10T07:38:51.460Z</time>
      </trkpt>
      <trkpt lat="44.10122" lon="7.41383">
        <ele>2359</ele>
        <time>2013-08-10T07:39:03.360Z</time>
      </trkpt>
      <trkpt lat="44.10124" lon="7.41404">
        <ele>2359</ele>
        <time>2013-08-10T07:39:10.460Z</time>
      </trkpt>
      <trkpt lat="44.10137" lon="7.41457">
        <ele>2361</ele>
        <time>2013-08-10T07:39:31.350Z</time>
      </trkpt>
      <trkpt lat="44.10131" lon="7.41501">
        <ele>2364</ele>
        <time>2013-08-10T07:39:46.360Z</time>
      </trkpt>
      <trkpt lat="44.10134" lon="7.41556">
        <ele>2362</ele>
        <time>2013-08-10T07:40:05.320Z</time>
      </trkpt>
      <trkpt lat="44.10131" lon="7.41592">
        <ele>2363</ele>
        <time>2013-08-10T07:40:19.460Z</time>
      </trkpt>
      <trkpt lat="44.10118" lon="7.41624">
        <ele>2362</ele>
        <time>2013-08-10T07:40:31.460Z</time>
      </trkpt>
      <trkpt lat="44.10122" lon="7.41642">
        <ele>2363</ele>
        <time>2013-08-10T07:40:40.360Z</time>
      </trkpt>
      <trkpt lat="44.10112" lon="7.41667">
        <ele>2367</ele>
        <time>2013-08-10T07:40:57.360Z</time>
      </trkpt>
      <trkpt lat="44.10117" lon="7.4168">
        <ele>2368</ele>
        <time>2013-08-10T07:41:09.360Z</time>
      </trkpt>
      <trkpt lat="44.10104" lon="7.41699">
        <ele>2370</ele>
        <time>2013-08-10T07:41:20.460Z</time>
      </trkpt>
      <trkpt lat="44.101" lon="7.4172">
        <ele>2370</ele>
        <time>2013-08-10T07:41:33.420Z</time>
      </trkpt>
      <trkpt lat="44.10092" lon="7.41737">
        <ele>2369</ele>
        <time>2013-08-10T07:41:42.460Z</time>
      </trkpt>
      <trkpt lat="44.10094" lon="7.41763">
        <ele>2368</ele>
        <time>2013-08-10T07:41:58.460Z</time>
      </trkpt>
      <trkpt lat="44.1009" lon="7.41784">
        <ele>2369</ele>
        <time>2013-08-10T07:42:13.460Z</time>
      </trkpt>
      <trkpt lat="44.10089" lon="7.41787">
        <ele>2372</ele>
        <time>2013-08-10T07:42:15.460Z</time>
      </trkpt>
      <trkpt lat="44.10089" lon="7.41801">
        <ele>2373</ele>
        <time>2013-08-10T07:42:23.460Z</time>
      </trkpt>
      <trkpt lat="44.10085" lon="7.41821">
        <ele>2371</ele>
        <time>2013-08-10T07:42:33.420Z</time>
      </trkpt>
      <trkpt lat="44.10078" lon="7.41837">
        <ele>2369</ele>
        <time>2013-08-10T07:42:43.360Z</time>
      </trkpt>
      <trkpt lat="44.10074" lon="7.41842">
        <ele>2365</ele>
        <time>2013-08-10T07:42:45.360Z</time>
      </trkpt>
      <trkpt lat="44.10064" lon="7.41852">
        <ele>2364</ele>
        <time>2013-08-10T07:42:50.420Z</time>
      </trkpt>
      <trkpt lat="44.10044" lon="7.41853">
        <ele>2364</ele>
        <time>2013-08-10T07:43:00.460Z</time>
      </trkpt>
      <trkpt lat="44.10042" lon="7.41862">
        <ele>2364</ele>
        <time>2013-08-10T07:43:08.460Z</time>
      </trkpt>
      <trkpt lat="44.10034" lon="7.41866">
        <ele>2366</ele>
        <time>2013-08-10T07:43:16.320Z</time>
      </trkpt>
      <trkpt lat="44.10037" lon="7.41884">
        <ele>2366</ele>
        <time>2013-08-10T07:43:26.360Z</time>
      </trkpt>
      <trkpt lat="44.10036" lon="7.41892">
        <ele>2366</ele>
        <time>2013-08-10T07:43:29.320Z</time>
      </trkpt>
      <trkpt lat="44.10023" lon="7.41898">
        <ele>2365</ele>
        <time>2013-08-10T07:43:35.360Z</time>
      </trkpt>
      <trkpt lat="44.10014" lon="7.41897">
        <ele>2365</ele>
        <time>2013-08-10T07:43:40.360Z</time>
      </trkpt>
      <trkpt lat="44.10002" lon="7.41915">
        <ele>2364</ele>
        <time>2013-08-10T07:43:50.320Z</time>
      </trkpt>
      <trkpt lat="44.0999" lon="7.41921">
        <ele>2365</ele>
        <time>2013-08-10T07:43:58.360Z</time>
      </trkpt>
      <trkpt lat="44.09989" lon="7.41933">
        <ele>2365</ele>
        <time>2013-08-10T07:44:05.460Z</time>
      </trkpt>
      <trkpt lat="44.09987" lon="7.41926">
        <ele>2366</ele>
        <time>2013-08-10T07:44:31.360Z</time>
      </trkpt>
      <trkpt lat="44.09982" lon="7.41923">
        <ele>2366</ele>
        <time>2013-08-10T07:44:37.320Z</time>
      </trkpt>
      <trkpt lat="44.09973" lon="7.41932">
        <ele>2366</ele>
        <time>2013-08-10T07:44:49.360Z</time>
      </trkpt>
      <trkpt lat="44.09967" lon="7.41924">
        <ele>2365</ele>
        <time>2013-08-10T07:44:55.360Z</time>
      </trkpt>
      <trkpt lat="44.09961" lon="7.41923">
        <ele>2365</ele>
        <time>2013-08-10T07:45:00.360Z</time>
      </trkpt>
      <trkpt lat="44.09958" lon="7.41915">
        <ele>2366</ele>
        <time>2013-08-10T07:45:11.320Z</time>
      </trkpt>
      <trkpt lat="44.09946" lon="7.41915">
        <ele>2369</ele>
        <time>2013-08-10T07:45:30.460Z</time>
      </trkpt>
      <trkpt lat="44.09941" lon="7.41912">
        <ele>2369</ele>
        <time>2013-08-10T07:45:38.460Z</time>
      </trkpt>
      <trkpt lat="44.09951" lon="7.41909">
        <ele>2370</ele>
        <time>2013-08-10T07:46:04.360Z</time>
      </trkpt>
      <trkpt lat="44.09948" lon="7.41909">
        <ele>2370</ele>
        <time>2013-08-10T07:46:08.360Z</time>
      </trkpt>
      <trkpt lat="44.09937" lon="7.41926">
        <ele>2372</ele>
        <time>2013-08-10T07:46:26.360Z</time>
      </trkpt>
      <trkpt lat="44.09931" lon="7.41941">
        <ele>2372</ele>
        <time>2013-08-10T07:46:33.320Z</time>
      </trkpt>
      <trkpt lat="44.09926" lon="7.41953">
        <ele>2378</ele>
        <time>2013-08-10T07:46:40.360Z</time>
      </trkpt>
      <trkpt lat="44.09919" lon="7.41961">
        <ele>2380</ele>
        <time>2013-08-10T07:46:47.460Z</time>
      </trkpt>
      <trkpt lat="44.0992" lon="7.41964">
        <ele>2381</ele>
        <time>2013-08-10T07:46:57.460Z</time>
      </trkpt>
      <trkpt lat="44.09909" lon="7.41983">
        <ele>2383</ele>
        <time>2013-08-10T07:47:09.460Z</time>
      </trkpt>
      <trkpt lat="44.09905" lon="7.42001">
        <ele>2385</ele>
        <time>2013-08-10T07:47:23.460Z</time>
      </trkpt>
      <trkpt lat="44.09899" lon="7.42012">
        <ele>2391</ele>
        <time>2013-08-10T07:47:35.460Z</time>
      </trkpt>
      <trkpt lat="44.09896" lon="7.42035">
        <ele>2392</ele>
        <time>2013-08-10T07:47:50.420Z</time>
      </trkpt>
      <trkpt lat="44.09898" lon="7.42043">
        <ele>2394</ele>
        <time>2013-08-10T07:47:59.420Z</time>
      </trkpt>
      <trkpt lat="44.09906" lon="7.42048">
        <ele>2395</ele>
        <time>2013-08-10T07:48:07.360Z</time>
      </trkpt>
      <trkpt lat="44.09912" lon="7.42058">
        <ele>2397</ele>
        <time>2013-08-10T07:48:23.440Z</time>
      </trkpt>
      <trkpt lat="44.09906" lon="7.4206">
        <ele>2398</ele>
        <time>2013-08-10T07:48:33.420Z</time>
      </trkpt>
      <trkpt lat="44.0991" lon="7.42063">
        <ele>2404</ele>
        <time>2013-08-10T07:48:46.360Z</time>
      </trkpt>
      <trkpt lat="44.09907" lon="7.42066">
        <ele>2407</ele>
        <time>2013-08-10T07:48:50.320Z</time>
      </trkpt>
      <trkpt lat="44.09907" lon="7.42077">
        <ele>2407</ele>
        <time>2013-08-10T07:48:58.360Z</time>
      </trkpt>
      <trkpt lat="44.09906" lon="7.42088">
        <ele>2412</ele>
        <time>2013-08-10T07:49:10.360Z</time>
      </trkpt>
      <trkpt lat="44.09899" lon="7.42088">
        <ele>2413.3799936</ele>
        <time>2013-08-10T07:49:19.460Z</time>
      </trkpt>
      <trkpt lat="44.09898" lon="7.42095">
        <ele>2414</ele>
        <time>2013-08-10T07:49:41.360Z</time>
      </trkpt>
      <trkpt lat="44.09889" lon="7.42091">
        <ele>2414</ele>
        <time>2013-08-10T07:49:50.420Z</time>
      </trkpt>
      <trkpt lat="44.09887" lon="7.42099">
        <ele>2416</ele>
        <time>2013-08-10T07:50:01.360Z</time>
      </trkpt>
      <trkpt lat="44.09887" lon="7.42105">
        <ele>2420.56</ele>
        <time>2013-08-10T07:50:09.360Z</time>
      </trkpt>
      <trkpt lat="44.09892" lon="7.42111">
        <ele>2425</ele>
        <time>2013-08-10T07:50:20.360Z</time>
      </trkpt>
      <trkpt lat="44.09896" lon="7.42126">
        <ele>2428</ele>
        <time>2013-08-10T07:50:36.470Z</time>
      </trkpt>
      <trkpt lat="44.09895" lon="7.42131">
        <ele>2428</ele>
        <time>2013-08-10T07:50:42.460Z</time>
      </trkpt>
      <trkpt lat="44.09898" lon="7.42142">
        <ele>2432</ele>
        <time>2013-08-10T07:50:51.420Z</time>
      </trkpt>
      <trkpt lat="44.09895" lon="7.42143">
        <ele>2436</ele>
        <time>2013-08-10T07:51:00.460Z</time>
      </trkpt>
      <trkpt lat="44.09893" lon="7.42152">
        <ele>2439</ele>
        <time>2013-08-10T07:51:17.360Z</time>
      </trkpt>
      <trkpt lat="44.09887" lon="7.4218">
        <ele>2443</ele>
        <time>2013-08-10T07:51:42.420Z</time>
      </trkpt>
      <trkpt lat="44.09883" lon="7.42186">
        <ele>2448</ele>
        <time>2013-08-10T07:51:50.320Z</time>
      </trkpt>
      <trkpt lat="44.09878" lon="7.42193">
        <ele>2449</ele>
        <time>2013-08-10T07:52:01.460Z</time>
      </trkpt>
      <trkpt lat="44.09877" lon="7.42213">
        <ele>2453</ele>
        <time>2013-08-10T07:52:17.360Z</time>
      </trkpt>
      <trkpt lat="44.0988" lon="7.42237">
        <ele>2453</ele>
        <time>2013-08-10T07:52:32.360Z</time>
      </trkpt>
      <trkpt lat="44.09876" lon="7.42253">
        <ele>2453</ele>
        <time>2013-08-10T07:52:42.460Z</time>
      </trkpt>
      <trkpt lat="44.09875" lon="7.42268">
        <ele>2458</ele>
        <time>2013-08-10T07:52:53.440Z</time>
      </trkpt>
      <trkpt lat="44.09868" lon="7.4228">
        <ele>2460</ele>
        <time>2013-08-10T07:53:06.460Z</time>
      </trkpt>
      <trkpt lat="44.09866" lon="7.4232">
        <ele>2465</ele>
        <time>2013-08-10T07:53:36.460Z</time>
      </trkpt>
      <trkpt lat="44.09862" lon="7.42326">
        <ele>2467</ele>
        <time>2013-08-10T07:53:45.360Z</time>
      </trkpt>
      <trkpt lat="44.09842" lon="7.42327">
        <ele>2469</ele>
        <time>2013-08-10T07:54:13.360Z</time>
      </trkpt>
      <trkpt lat="44.09837" lon="7.42322">
        <ele>2474</ele>
        <time>2013-08-10T07:54:22.360Z</time>
      </trkpt>
      <trkpt lat="44.09829" lon="7.42327">
        <ele>2474</ele>
        <time>2013-08-10T07:54:33.320Z</time>
      </trkpt>
      <trkpt lat="44.09824" lon="7.42325">
        <ele>2476</ele>
        <time>2013-08-10T07:54:40.360Z</time>
      </trkpt>
      <trkpt lat="44.09819" lon="7.4233">
        <ele>2480</ele>
        <time>2013-08-10T07:54:58.360Z</time>
      </trkpt>
      <trkpt lat="44.09821" lon="7.42329">
        <ele>2481</ele>
        <time>2013-08-10T07:55:08.560Z</time>
      </trkpt>
      <trkpt lat="44.09815" lon="7.42323">
        <ele>2481</ele>
        <time>2013-08-10T07:55:25.360Z</time>
      </trkpt>
      <trkpt lat="44.09809" lon="7.42333">
        <ele>2483</ele>
        <time>2013-08-10T07:55:39.360Z</time>
      </trkpt>
      <trkpt lat="44.09809" lon="7.42345">
        <ele>2484</ele>
        <time>2013-08-10T07:55:53.360Z</time>
      </trkpt>
      <trkpt lat="44.09803" lon="7.42342">
        <ele>2486</ele>
        <time>2013-08-10T07:56:00.360Z</time>
      </trkpt>
      <trkpt lat="44.09792" lon="7.42345">
        <ele>2490</ele>
        <time>2013-08-10T07:56:21.460Z</time>
      </trkpt>
      <trkpt lat="44.09792" lon="7.42352">
        <ele>2494</ele>
        <time>2013-08-10T07:56:33.420Z</time>
      </trkpt>
      <trkpt lat="44.09785" lon="7.42358">
        <ele>2500</ele>
        <time>2013-08-10T07:56:51.360Z</time>
      </trkpt>
      <trkpt lat="44.09785" lon="7.42363">
        <ele>2502</ele>
        <time>2013-08-10T07:57:00.360Z</time>
      </trkpt>
      <trkpt lat="44.09781" lon="7.42371">
        <ele>2502</ele>
        <time>2013-08-10T07:57:13.360Z</time>
      </trkpt>
      <trkpt lat="44.09771" lon="7.42369">
        <ele>2507.4</ele>
        <time>2013-08-10T07:57:34.360Z</time>
      </trkpt>
      <trkpt lat="44.09771" lon="7.42376">
        <ele>2512</ele>
        <time>2013-08-10T07:57:41.460Z</time>
      </trkpt>
      <trkpt lat="44.09764" lon="7.42373">
        <ele>2513</ele>
        <time>2013-08-10T07:57:53.460Z</time>
      </trkpt>
      <trkpt lat="44.09761" lon="7.42384">
        <ele>2517</ele>
        <time>2013-08-10T07:58:12.460Z</time>
      </trkpt>
      <trkpt lat="44.09757" lon="7.42385">
        <ele>2521.1399808</ele>
        <time>2013-08-10T07:58:19.460Z</time>
      </trkpt>
      <trkpt lat="44.09758" lon="7.42389">
        <ele>2523</ele>
        <time>2013-08-10T07:58:26.470Z</time>
      </trkpt>
      <trkpt lat="44.09754" lon="7.42398">
        <ele>2527</ele>
        <time>2013-08-10T07:58:38.360Z</time>
      </trkpt>
      <trkpt lat="44.09751" lon="7.42394">
        <ele>2530</ele>
        <time>2013-08-10T07:58:47.320Z</time>
      </trkpt>
      <trkpt lat="44.09748" lon="7.42403">
        <ele>2531</ele>
        <time>2013-08-10T07:58:57.360Z</time>
      </trkpt>
      <trkpt lat="44.09744" lon="7.42403">
        <ele>2531.6666580472</ele>
        <time>2013-08-10T07:59:04.420Z</time>
      </trkpt>
      <trkpt lat="44.09744" lon="7.42411">
        <ele>2533</ele>
        <time>2013-08-10T07:59:13.460Z</time>
      </trkpt>
      <trkpt lat="44.09747" lon="7.42418">
        <ele>2538</ele>
        <time>2013-08-10T07:59:20.460Z</time>
      </trkpt>
      <trkpt lat="44.09747" lon="7.42434">
        <ele>2541</ele>
        <time>2013-08-10T07:59:42.460Z</time>
      </trkpt>
      <trkpt lat="44.09741" lon="7.42437">
        <ele>2547</ele>
        <time>2013-08-10T07:59:57.460Z</time>
      </trkpt>
      <trkpt lat="44.09737" lon="7.42436">
        <ele>2547</ele>
        <time>2013-08-10T08:00:02.360Z</time>
      </trkpt>
      <trkpt lat="44.09736" lon="7.42438">
        <ele>2551</ele>
        <time>2013-08-10T08:00:06.360Z</time>
      </trkpt>
      <trkpt lat="44.09737" lon="7.4245">
        <ele>2552</ele>
        <time>2013-08-10T08:00:15.360Z</time>
      </trkpt>
      <trkpt lat="44.09732" lon="7.42449">
        <ele>2552</ele>
        <time>2013-08-10T08:00:21.460Z</time>
      </trkpt>
      <trkpt lat="44.09726" lon="7.42434">
        <ele>2555</ele>
        <time>2013-08-10T08:00:39.460Z</time>
      </trkpt>
      <trkpt lat="44.09719" lon="7.42436">
        <ele>2560</ele>
        <time>2013-08-10T08:00:56.460Z</time>
      </trkpt>
      <trkpt lat="44.09719" lon="7.42443">
        <ele>2563</ele>
        <time>2013-08-10T08:01:05.360Z</time>
      </trkpt>
      <trkpt lat="44.09709" lon="7.42454">
        <ele>2567</ele>
        <time>2013-08-10T08:01:25.360Z</time>
      </trkpt>
      <trkpt lat="44.09709" lon="7.42461">
        <ele>2567</ele>
        <time>2013-08-10T08:01:31.360Z</time>
      </trkpt>
      <trkpt lat="44.09708" lon="7.42468">
        <ele>2573</ele>
        <time>2013-08-10T08:01:40.360Z</time>
      </trkpt>
      <trkpt lat="44.09704" lon="7.4247">
        <ele>2573</ele>
        <time>2013-08-10T08:01:47.360Z</time>
      </trkpt>
      <trkpt lat="44.09701" lon="7.42483">
        <ele>2575.56</ele>
        <time>2013-08-10T08:02:04.360Z</time>
      </trkpt>
      <trkpt lat="44.09703" lon="7.42493">
        <ele>2579</ele>
        <time>2013-08-10T08:02:22.340Z</time>
      </trkpt>
      <trkpt lat="44.09703" lon="7.42495">
        <ele>2583</ele>
        <time>2013-08-10T08:02:28.320Z</time>
      </trkpt>
      <trkpt lat="44.09703" lon="7.42508">
        <ele>2585</ele>
        <time>2013-08-10T08:02:46.360Z</time>
      </trkpt>
      <trkpt lat="44.0971" lon="7.42515">
        <ele>2587</ele>
        <time>2013-08-10T08:02:58.460Z</time>
      </trkpt>
      <trkpt lat="44.09708" lon="7.42525">
        <ele>2589</ele>
        <time>2013-08-10T08:03:05.460Z</time>
      </trkpt>
      <trkpt lat="44.09712" lon="7.42541">
        <ele>2591</ele>
        <time>2013-08-10T08:03:23.460Z</time>
      </trkpt>
      <trkpt lat="44.09715" lon="7.42549">
        <ele>2595</ele>
        <time>2013-08-10T08:03:35.460Z</time>
      </trkpt>
      <trkpt lat="44.09717" lon="7.42577">
        <ele>2597</ele>
        <time>2013-08-10T08:04:06.460Z</time>
      </trkpt>
      <trkpt lat="44.09713" lon="7.42592">
        <ele>2596</ele>
        <time>2013-08-10T08:04:27.420Z</time>
      </trkpt>
      <trkpt lat="44.09718" lon="7.42603">
        <ele>2596</ele>
        <time>2013-08-10T08:04:36.460Z</time>
      </trkpt>
      <trkpt lat="44.09732" lon="7.42604">
        <ele>2595</ele>
        <time>2013-08-10T08:04:48.360Z</time>
      </trkpt>
      <trkpt lat="44.09735" lon="7.42611">
        <ele>2596</ele>
        <time>2013-08-10T08:04:56.360Z</time>
      </trkpt>
      <trkpt lat="44.09733" lon="7.42621">
        <ele>2598</ele>
        <time>2013-08-10T08:05:05.460Z</time>
      </trkpt>
      <trkpt lat="44.09736" lon="7.42623">
        <ele>2598</ele>
        <time>2013-08-10T08:05:12.460Z</time>
      </trkpt>
      <trkpt lat="44.09728" lon="7.42632">
        <ele>2600</ele>
        <time>2013-08-10T08:05:26.360Z</time>
      </trkpt>
      <trkpt lat="44.09725" lon="7.42647">
        <ele>2601</ele>
        <time>2013-08-10T08:05:37.460Z</time>
      </trkpt>
      <trkpt lat="44.09714" lon="7.42665">
        <ele>2602</ele>
        <time>2013-08-10T08:06:00.460Z</time>
      </trkpt>
      <trkpt lat="44.097" lon="7.42673">
        <ele>2605</ele>
        <time>2013-08-10T08:06:27.360Z</time>
      </trkpt>
      <trkpt lat="44.09699" lon="7.42678">
        <ele>2605</ele>
        <time>2013-08-10T08:06:33.360Z</time>
      </trkpt>
      <trkpt lat="44.09687" lon="7.42688">
        <ele>2613</ele>
        <time>2013-08-10T08:08:03.460Z</time>
      </trkpt>
      <trkpt lat="44.09676" lon="7.42689">
        <ele>2620</ele>
        <time>2013-08-10T08:08:11.360Z</time>
      </trkpt>
      <trkpt lat="44.09676" lon="7.42697">
        <ele>2625</ele>
        <time>2013-08-10T08:08:21.460Z</time>
      </trkpt>
      <trkpt lat="44.09672" lon="7.42703">
        <ele>2626.7600128</ele>
        <time>2013-08-10T08:08:34.460Z</time>
      </trkpt>
      <trkpt lat="44.09664" lon="7.42704">
        <ele>2630</ele>
        <time>2013-08-10T08:08:48.360Z</time>
      </trkpt>
      <trkpt lat="44.09662" lon="7.42703">
        <ele>2635</ele>
        <time>2013-08-10T08:09:00.460Z</time>
      </trkpt>
      <trkpt lat="44.09665" lon="7.42711">
        <ele>2636</ele>
        <time>2013-08-10T08:09:12.460Z</time>
      </trkpt>
      <trkpt lat="44.09664" lon="7.42722">
        <ele>2638</ele>
        <time>2013-08-10T08:09:32.360Z</time>
      </trkpt>
      <trkpt lat="44.09661" lon="7.42731">
        <ele>2649</ele>
        <time>2013-08-10T08:10:05.360Z</time>
      </trkpt>
      <trkpt lat="44.09663" lon="7.42737">
        <ele>2649.56</ele>
        <time>2013-08-10T08:10:14.360Z</time>
      </trkpt>
      <trkpt lat="44.09668" lon="7.42743">
        <ele>2654</ele>
        <time>2013-08-10T08:10:37.530Z</time>
      </trkpt>
      <trkpt lat="44.09667" lon="7.42751">
        <ele>2654.5700096</ele>
        <time>2013-08-10T08:10:44.270Z</time>
      </trkpt>
      <trkpt lat="44.09666" lon="7.42755">
        <ele>2660</ele>
        <time>2013-08-10T08:10:50.210Z</time>
      </trkpt>
      <trkpt lat="44.09666" lon="7.42763">
        <ele>2663</ele>
        <time>2013-08-10T08:11:05.340Z</time>
      </trkpt>
      <trkpt lat="44.09656" lon="7.42784">
        <ele>2665</ele>
        <time>2013-08-10T08:18:59.210Z</time>
      </trkpt>
      <trkpt lat="44.09653" lon="7.42797">
        <ele>2663</ele>
        <time>2013-08-10T08:19:09.260Z</time>
      </trkpt>
      <trkpt lat="44.09649" lon="7.42796">
        <ele>2663</ele>
        <time>2013-08-10T08:19:12.260Z</time>
      </trkpt>
      <trkpt lat="44.09648" lon="7.4279">
        <ele>2661</ele>
        <time>2013-08-10T08:19:16.240Z</time>
      </trkpt>
      <trkpt lat="44.09645" lon="7.42798">
        <ele>2660.6400128</ele>
        <time>2013-08-10T08:19:24.260Z</time>
      </trkpt>
      <trkpt lat="44.09646" lon="7.42795">
        <ele>2659</ele>
        <time>2013-08-10T08:19:31.260Z</time>
      </trkpt>
      <trkpt lat="44.09644" lon="7.42787">
        <ele>2658</ele>
        <time>2013-08-10T08:19:39.260Z</time>
      </trkpt>
      <trkpt lat="44.09628" lon="7.42784">
        <ele>2651</ele>
        <time>2013-08-10T08:19:50.220Z</time>
      </trkpt>
      <trkpt lat="44.09618" lon="7.42768">
        <ele>2649</ele>
        <time>2013-08-10T08:19:57.260Z</time>
      </trkpt>
      <trkpt lat="44.09614" lon="7.42768">
        <ele>2648</ele>
        <time>2013-08-10T08:20:01.360Z</time>
      </trkpt>
      <trkpt lat="44.09597" lon="7.42781">
        <ele>2646</ele>
        <time>2013-08-10T08:20:23.360Z</time>
      </trkpt>
      <trkpt lat="44.09597" lon="7.42783">
        <ele>2642</ele>
        <time>2013-08-10T08:20:25.360Z</time>
      </trkpt>
      <trkpt lat="44.09597" lon="7.4278">
        <ele>2641.72</ele>
        <time>2013-08-10T08:20:29.360Z</time>
      </trkpt>
      <trkpt lat="44.09593" lon="7.42788">
        <ele>2638.7431185119</ele>
        <time>2013-08-10T08:20:39.360Z</time>
      </trkpt>
      <trkpt lat="44.09579" lon="7.42787">
        <ele>2637</ele>
        <time>2013-08-10T08:20:50.210Z</time>
      </trkpt>
      <trkpt lat="44.09581" lon="7.42785">
        <ele>2634</ele>
        <time>2013-08-10T08:20:56.260Z</time>
      </trkpt>
      <trkpt lat="44.09579" lon="7.42787">
        <ele>2630</ele>
        <time>2013-08-10T08:21:05.260Z</time>
      </trkpt>
      <trkpt lat="44.09564" lon="7.42792">
        <ele>2623</ele>
        <time>2013-08-10T08:21:22.260Z</time>
      </trkpt>
      <trkpt lat="44.09563" lon="7.42801">
        <ele>2620.8199936</ele>
        <time>2013-08-10T08:21:29.260Z</time>
      </trkpt>
      <trkpt lat="44.09549" lon="7.42812">
        <ele>2615</ele>
        <time>2013-08-10T08:21:41.260Z</time>
      </trkpt>
      <trkpt lat="44.09543" lon="7.42809">
        <ele>2614.8686775962</ele>
        <time>2013-08-10T08:21:44.220Z</time>
      </trkpt>
      <trkpt lat="44.09541" lon="7.428">
        <ele>2613.6435505538</ele>
        <time>2013-08-10T08:21:49.260Z</time>
      </trkpt>
      <trkpt lat="44.09537" lon="7.42797">
        <ele>2611</ele>
        <time>2013-08-10T08:21:56.360Z</time>
      </trkpt>
      <trkpt lat="44.09523" lon="7.42802">
        <ele>2605</ele>
        <time>2013-08-10T08:22:10.260Z</time>
      </trkpt>
      <trkpt lat="44.09512" lon="7.42796">
        <ele>2604</ele>
        <time>2013-08-10T08:22:17.260Z</time>
      </trkpt>
      <trkpt lat="44.09498" lon="7.42797">
        <ele>2602.4600192</ele>
        <time>2013-08-10T08:22:24.260Z</time>
      </trkpt>
      <trkpt lat="44.09495" lon="7.42803">
        <ele>2599.8199936</ele>
        <time>2013-08-10T08:22:29.260Z</time>
      </trkpt>
      <trkpt lat="44.09493" lon="7.42801">
        <ele>2599</ele>
        <time>2013-08-10T08:22:32.260Z</time>
      </trkpt>
      <trkpt lat="44.09486" lon="7.42812">
        <ele>2599</ele>
        <time>2013-08-10T08:22:39.360Z</time>
      </trkpt>
      <trkpt lat="44.09489" lon="7.42826">
        <ele>2597</ele>
        <time>2013-08-10T08:22:47.360Z</time>
      </trkpt>
      <trkpt lat="44.09487" lon="7.42832">
        <ele>2597</ele>
        <time>2013-08-10T08:22:50.310Z</time>
      </trkpt>
      <trkpt lat="44.09469" lon="7.4285">
        <ele>2589.6400128</ele>
        <time>2013-08-10T08:23:04.260Z</time>
      </trkpt>
      <trkpt lat="44.09461" lon="7.42846">
        <ele>2587.8686905254</ele>
        <time>2013-08-10T08:23:09.220Z</time>
      </trkpt>
      <trkpt lat="44.09446" lon="7.42848">
        <ele>2584</ele>
        <time>2013-08-10T08:23:16.310Z</time>
      </trkpt>
      <trkpt lat="44.09441" lon="7.42864">
        <ele>2583</ele>
        <time>2013-08-10T08:23:25.260Z</time>
      </trkpt>
      <trkpt lat="44.09412" lon="7.42894">
        <ele>2579</ele>
        <time>2013-08-10T08:23:41.360Z</time>
      </trkpt>
      <trkpt lat="44.0941" lon="7.42902">
        <ele>2577</ele>
        <time>2013-08-10T08:23:45.360Z</time>
      </trkpt>
      <trkpt lat="44.09399" lon="7.42924">
        <ele>2576</ele>
        <time>2013-08-10T08:23:57.260Z</time>
      </trkpt>
      <trkpt lat="44.09394" lon="7.42928">
        <ele>2576</ele>
        <time>2013-08-10T08:24:00.220Z</time>
      </trkpt>
      <trkpt lat="44.09391" lon="7.42921">
        <ele>2574.88</ele>
        <time>2013-08-10T08:24:04.360Z</time>
      </trkpt>
      <trkpt lat="44.09384" lon="7.42918">
        <ele>2569</ele>
        <time>2013-08-10T08:24:10.260Z</time>
      </trkpt>
      <trkpt lat="44.09373" lon="7.42928">
        <ele>2567</ele>
        <time>2013-08-10T08:24:18.360Z</time>
      </trkpt>
      <trkpt lat="44.09363" lon="7.42926">
        <ele>2560</ele>
        <time>2013-08-10T08:24:32.260Z</time>
      </trkpt>
      <trkpt lat="44.09354" lon="7.42933">
        <ele>2557</ele>
        <time>2013-08-10T08:24:37.260Z</time>
      </trkpt>
      <trkpt lat="44.0934" lon="7.42934">
        <ele>2553</ele>
        <time>2013-08-10T08:24:45.360Z</time>
      </trkpt>
      <trkpt lat="44.09265" lon="7.42967">
        <ele>2542</ele>
        <time>2013-08-10T08:25:27.360Z</time>
      </trkpt>
      <trkpt lat="44.09262" lon="7.42965">
        <ele>2542</ele>
        <time>2013-08-10T08:25:31.360Z</time>
      </trkpt>
      <trkpt lat="44.09257" lon="7.42969">
        <ele>2541.16</ele>
        <time>2013-08-10T08:25:34.360Z</time>
      </trkpt>
      <trkpt lat="44.09257" lon="7.42962">
        <ele>2537</ele>
        <time>2013-08-10T08:25:41.360Z</time>
      </trkpt>
      <trkpt lat="44.09247" lon="7.42968">
        <ele>2537</ele>
        <time>2013-08-10T08:25:50.210Z</time>
      </trkpt>
      <trkpt lat="44.0924" lon="7.42981">
        <ele>2535</ele>
        <time>2013-08-10T08:26:09.360Z</time>
      </trkpt>
      <trkpt lat="44.09244" lon="7.42972">
        <ele>2533</ele>
        <time>2013-08-10T08:26:17.260Z</time>
      </trkpt>
      <trkpt lat="44.09252" lon="7.42977">
        <ele>2533</ele>
        <time>2013-08-10T08:26:30.260Z</time>
      </trkpt>
      <trkpt lat="44.09257" lon="7.42977">
        <ele>2533</ele>
        <time>2013-08-10T08:26:41.360Z</time>
      </trkpt>
      <trkpt lat="44.09255" lon="7.4297">
        <ele>2533</ele>
        <time>2013-08-10T08:26:52.260Z</time>
      </trkpt>
      <trkpt lat="44.09248" lon="7.42972">
        <ele>2531</ele>
        <time>2013-08-10T08:26:57.260Z</time>
      </trkpt>
      <trkpt lat="44.09237" lon="7.4297">
        <ele>2530</ele>
        <time>2013-08-10T08:27:07.180Z</time>
      </trkpt>
      <trkpt lat="44.09208" lon="7.42979">
        <ele>2530</ele>
        <time>2013-08-10T08:27:19.260Z</time>
      </trkpt>
      <trkpt lat="44.09186" lon="7.42973">
        <ele>2531</ele>
        <time>2013-08-10T08:27:31.260Z</time>
      </trkpt>
      <trkpt lat="44.09172" lon="7.42978">
        <ele>2533</ele>
        <time>2013-08-10T08:27:39.260Z</time>
      </trkpt>
      <trkpt lat="44.0915" lon="7.43016">
        <ele>2531</ele>
        <time>2013-08-10T08:27:52.360Z</time>
      </trkpt>
      <trkpt lat="44.09144" lon="7.43025">
        <ele>2527</ele>
        <time>2013-08-10T08:27:56.360Z</time>
      </trkpt>
      <trkpt lat="44.09129" lon="7.4306">
        <ele>2524</ele>
        <time>2013-08-10T08:28:16.240Z</time>
      </trkpt>
      <trkpt lat="44.09131" lon="7.43056">
        <ele>2524</ele>
        <time>2013-08-10T08:28:18.260Z</time>
      </trkpt>
      <trkpt lat="44.09129" lon="7.43053">
        <ele>2524</ele>
        <time>2013-08-10T08:28:22.260Z</time>
      </trkpt>
      <trkpt lat="44.09113" lon="7.43075">
        <ele>2523</ele>
        <time>2013-08-10T08:29:41.360Z</time>
      </trkpt>
      <trkpt lat="44.09104" lon="7.43081">
        <ele>2520</ele>
        <time>2013-08-10T08:29:48.260Z</time>
      </trkpt>
      <trkpt lat="44.09101" lon="7.4308">
        <ele>2518</ele>
        <time>2013-08-10T08:29:50.210Z</time>
      </trkpt>
      <trkpt lat="44.09097" lon="7.43096">
        <ele>2519</ele>
        <time>2013-08-10T08:30:05.260Z</time>
      </trkpt>
      <trkpt lat="44.09093" lon="7.43094">
        <ele>2519</ele>
        <time>2013-08-10T08:30:14.250Z</time>
      </trkpt>
      <trkpt lat="44.0909" lon="7.43098">
        <ele>2519</ele>
        <time>2013-08-10T08:30:31.320Z</time>
      </trkpt>
      <trkpt lat="44.09088" lon="7.43116">
        <ele>2514</ele>
        <time>2013-08-10T08:31:07.360Z</time>
      </trkpt>
      <trkpt lat="44.09075" lon="7.43123">
        <ele>2512</ele>
        <time>2013-08-10T08:31:22.320Z</time>
      </trkpt>
      <trkpt lat="44.09074" lon="7.43132">
        <ele>2509.4600192</ele>
        <time>2013-08-10T08:31:34.260Z</time>
      </trkpt>
      <trkpt lat="44.09076" lon="7.43137">
        <ele>2505</ele>
        <time>2013-08-10T08:31:45.360Z</time>
      </trkpt>
      <trkpt lat="44.09075" lon="7.43147">
        <ele>2505</ele>
        <time>2013-08-10T08:31:50.310Z</time>
      </trkpt>
      <trkpt lat="44.09063" lon="7.43154">
        <ele>2502</ele>
        <time>2013-08-10T08:31:58.360Z</time>
      </trkpt>
      <trkpt lat="44.09052" lon="7.4315">
        <ele>2494.8200064</ele>
        <time>2013-08-10T08:32:06.260Z</time>
      </trkpt>
      <trkpt lat="44.09035" lon="7.43176">
        <ele>2494</ele>
        <time>2013-08-10T08:32:21.360Z</time>
      </trkpt>
      <trkpt lat="44.09036" lon="7.43178">
        <ele>2488</ele>
        <time>2013-08-10T08:32:30.320Z</time>
      </trkpt>
      <trkpt lat="44.09027" lon="7.43187">
        <ele>2486</ele>
        <time>2013-08-10T08:32:41.360Z</time>
      </trkpt>
      <trkpt lat="44.09025" lon="7.43194">
        <ele>2482</ele>
        <time>2013-08-10T08:32:46.360Z</time>
      </trkpt>
      <trkpt lat="44.09028" lon="7.43202">
        <ele>2480</ele>
        <time>2013-08-10T08:32:51.360Z</time>
      </trkpt>
      <trkpt lat="44.09025" lon="7.43205">
        <ele>2479.44</ele>
        <time>2013-08-10T08:32:54.360Z</time>
      </trkpt>
      <trkpt lat="44.09022" lon="7.43231">
        <ele>2476</ele>
        <time>2013-08-10T08:33:01.360Z</time>
      </trkpt>
      <trkpt lat="44.09018" lon="7.43234">
        <ele>2476</ele>
        <time>2013-08-10T08:33:03.360Z</time>
      </trkpt>
      <trkpt lat="44.09014" lon="7.43236">
        <ele>2472</ele>
        <time>2013-08-10T08:33:05.360Z</time>
      </trkpt>
      <trkpt lat="44.09002" lon="7.43242">
        <ele>2470.72</ele>
        <time>2013-08-10T08:33:11.360Z</time>
      </trkpt>
      <trkpt lat="44.0899" lon="7.43242">
        <ele>2470</ele>
        <time>2013-08-10T08:33:16.310Z</time>
      </trkpt>
      <trkpt lat="44.08976" lon="7.43265">
        <ele>2468</ele>
        <time>2013-08-10T08:33:36.360Z</time>
      </trkpt>
      <trkpt lat="44.0897" lon="7.4327">
        <ele>2468</ele>
        <time>2013-08-10T08:33:44.360Z</time>
      </trkpt>
      <trkpt lat="44.08967" lon="7.43282">
        <ele>2467</ele>
        <time>2013-08-10T08:33:56.260Z</time>
      </trkpt>
      <trkpt lat="44.08961" lon="7.4329">
        <ele>2467</ele>
        <time>2013-08-10T08:34:04.260Z</time>
      </trkpt>
      <trkpt lat="44.08955" lon="7.43287">
        <ele>2467</ele>
        <time>2013-08-10T08:34:10.260Z</time>
      </trkpt>
      <trkpt lat="44.08949" lon="7.43295">
        <ele>2466</ele>
        <time>2013-08-10T08:34:20.360Z</time>
      </trkpt>
      <trkpt lat="44.08931" lon="7.43294">
        <ele>2462</ele>
        <time>2013-08-10T08:34:35.360Z</time>
      </trkpt>
      <trkpt lat="44.08924" lon="7.43297">
        <ele>2462</ele>
        <time>2013-08-10T08:34:42.360Z</time>
      </trkpt>
      <trkpt lat="44.08921" lon="7.43313">
        <ele>2458</ele>
        <time>2013-08-10T08:34:55.340Z</time>
      </trkpt>
      <trkpt lat="44.08917" lon="7.43315">
        <ele>2458</ele>
        <time>2013-08-10T08:35:02.360Z</time>
      </trkpt>
      <trkpt lat="44.08917" lon="7.4332">
        <ele>2457.72</ele>
        <time>2013-08-10T08:35:04.360Z</time>
      </trkpt>
      <trkpt lat="44.08913" lon="7.4332">
        <ele>2457</ele>
        <time>2013-08-10T08:35:12.360Z</time>
      </trkpt>
      <trkpt lat="44.08907" lon="7.43327">
        <ele>2453</ele>
        <time>2013-08-10T08:35:17.360Z</time>
      </trkpt>
      <trkpt lat="44.08907" lon="7.43334">
        <ele>2450</ele>
        <time>2013-08-10T08:35:21.260Z</time>
      </trkpt>
      <trkpt lat="44.08902" lon="7.43351">
        <ele>2449</ele>
        <time>2013-08-10T08:35:27.260Z</time>
      </trkpt>
      <trkpt lat="44.08894" lon="7.43351">
        <ele>2447</ele>
        <time>2013-08-10T08:35:36.260Z</time>
      </trkpt>
      <trkpt lat="44.08886" lon="7.43347">
        <ele>2447</ele>
        <time>2013-08-10T08:35:41.260Z</time>
      </trkpt>
      <trkpt lat="44.08879" lon="7.43355">
        <ele>2447</ele>
        <time>2013-08-10T08:35:52.260Z</time>
      </trkpt>
      <trkpt lat="44.08854" lon="7.43353">
        <ele>2445</ele>
        <time>2013-08-10T08:36:17.360Z</time>
      </trkpt>
      <trkpt lat="44.08834" lon="7.43367">
        <ele>2448</ele>
        <time>2013-08-10T08:36:40.360Z</time>
      </trkpt>
      <trkpt lat="44.08818" lon="7.43373">
        <ele>2448</ele>
        <time>2013-08-10T08:36:49.360Z</time>
      </trkpt>
      <trkpt lat="44.08812" lon="7.43389">
        <ele>2447</ele>
        <time>2013-08-10T08:36:57.260Z</time>
      </trkpt>
      <trkpt lat="44.08807" lon="7.43392">
        <ele>2447</ele>
        <time>2013-08-10T08:37:01.360Z</time>
      </trkpt>
      <trkpt lat="44.08804" lon="7.43389">
        <ele>2446.72</ele>
        <time>2013-08-10T08:37:04.360Z</time>
      </trkpt>
      <trkpt lat="44.088" lon="7.43397">
        <ele>2442.7676742863</ele>
        <time>2013-08-10T08:37:19.320Z</time>
      </trkpt>
      <trkpt lat="44.08792" lon="7.43396">
        <ele>2441</ele>
        <time>2013-08-10T08:37:25.360Z</time>
      </trkpt>
      <trkpt lat="44.08777" lon="7.43406">
        <ele>2440</ele>
        <time>2013-08-10T08:37:37.360Z</time>
      </trkpt>
      <trkpt lat="44.0877" lon="7.43425">
        <ele>2441</ele>
        <time>2013-08-10T08:37:50.210Z</time>
      </trkpt>
      <trkpt lat="44.08763" lon="7.43428">
        <ele>2441</ele>
        <time>2013-08-10T08:37:56.250Z</time>
      </trkpt>
      <trkpt lat="44.08765" lon="7.43436">
        <ele>2441</ele>
        <time>2013-08-10T08:38:02.360Z</time>
      </trkpt>
      <trkpt lat="44.08759" lon="7.43437">
        <ele>2442</ele>
        <time>2013-08-10T08:38:09.260Z</time>
      </trkpt>
      <trkpt lat="44.08741" lon="7.4346">
        <ele>2444.56</ele>
        <time>2013-08-10T08:38:34.360Z</time>
      </trkpt>
      <trkpt lat="44.08739" lon="7.43478">
        <ele>2446</ele>
        <time>2013-08-10T08:38:49.260Z</time>
      </trkpt>
      <trkpt lat="44.08733" lon="7.43486">
        <ele>2443</ele>
        <time>2013-08-10T08:38:56.260Z</time>
      </trkpt>
      <trkpt lat="44.08723" lon="7.4349">
        <ele>2441</ele>
        <time>2013-08-10T08:39:06.260Z</time>
      </trkpt>
      <trkpt lat="44.0872" lon="7.43496">
        <ele>2441</ele>
        <time>2013-08-10T08:39:12.260Z</time>
      </trkpt>
      <trkpt lat="44.08712" lon="7.43495">
        <ele>2441</ele>
        <time>2013-08-10T08:39:20.360Z</time>
      </trkpt>
      <trkpt lat="44.08709" lon="7.435">
        <ele>2443</ele>
        <time>2013-08-10T08:39:25.360Z</time>
      </trkpt>
      <trkpt lat="44.08709" lon="7.43495">
        <ele>2444</ele>
        <time>2013-08-10T08:39:39.260Z</time>
      </trkpt>
      <trkpt lat="44.08698" lon="7.43504">
        <ele>2444</ele>
        <time>2013-08-10T08:39:49.260Z</time>
      </trkpt>
      <trkpt lat="44.08692" lon="7.43516">
        <ele>2444</ele>
        <time>2013-08-10T08:40:01.350Z</time>
      </trkpt>
      <trkpt lat="44.08686" lon="7.43519">
        <ele>2442</ele>
        <time>2013-08-10T08:40:08.360Z</time>
      </trkpt>
      <trkpt lat="44.08672" lon="7.43541">
        <ele>2439.6538584615</ele>
        <time>2013-08-10T08:40:34.260Z</time>
      </trkpt>
      <trkpt lat="44.08653" lon="7.43549">
        <ele>2433</ele>
        <time>2013-08-10T08:40:50.220Z</time>
      </trkpt>
      <trkpt lat="44.08639" lon="7.43546">
        <ele>2433</ele>
        <time>2013-08-10T08:41:06.340Z</time>
      </trkpt>
      <trkpt lat="44.08636" lon="7.43551">
        <ele>2432</ele>
        <time>2013-08-10T08:41:15.360Z</time>
      </trkpt>
      <trkpt lat="44.08617" lon="7.43559">
        <ele>2431</ele>
        <time>2013-08-10T08:41:31.260Z</time>
      </trkpt>
      <trkpt lat="44.08586" lon="7.43581">
        <ele>2427</ele>
        <time>2013-08-10T08:41:46.190Z</time>
      </trkpt>
      <trkpt lat="44.08577" lon="7.43579">
        <ele>2427</ele>
        <time>2013-08-10T08:41:53.260Z</time>
      </trkpt>
      <trkpt lat="44.08561" lon="7.43582">
        <ele>2428</ele>
        <time>2013-08-10T08:42:09.360Z</time>
      </trkpt>
      <trkpt lat="44.08553" lon="7.43589">
        <ele>2427</ele>
        <time>2013-08-10T08:42:20.260Z</time>
      </trkpt>
      <trkpt lat="44.08543" lon="7.43586">
        <ele>2423</ele>
        <time>2013-08-10T08:42:35.360Z</time>
      </trkpt>
      <trkpt lat="44.08516" lon="7.436">
        <ele>2416</ele>
        <time>2013-08-10T08:43:02.260Z</time>
      </trkpt>
      <trkpt lat="44.08508" lon="7.43611">
        <ele>2416</ele>
        <time>2013-08-10T08:43:13.360Z</time>
      </trkpt>
      <trkpt lat="44.08495" lon="7.43622">
        <ele>2410</ele>
        <time>2013-08-10T08:43:23.260Z</time>
      </trkpt>
      <trkpt lat="44.08493" lon="7.43629">
        <ele>2406</ele>
        <time>2013-08-10T08:43:31.360Z</time>
      </trkpt>
      <trkpt lat="44.08488" lon="7.43632">
        <ele>2405</ele>
        <time>2013-08-10T08:43:35.340Z</time>
      </trkpt>
      <trkpt lat="44.08481" lon="7.43646">
        <ele>2401</ele>
        <time>2013-08-10T08:43:47.240Z</time>
      </trkpt>
      <trkpt lat="44.08474" lon="7.4365">
        <ele>2399</ele>
        <time>2013-08-10T08:43:53.260Z</time>
      </trkpt>
      <trkpt lat="44.08468" lon="7.4366">
        <ele>2395</ele>
        <time>2013-08-10T08:44:05.260Z</time>
      </trkpt>
      <trkpt lat="44.0846" lon="7.43667">
        <ele>2395</ele>
        <time>2013-08-10T08:44:12.360Z</time>
      </trkpt>
      <trkpt lat="44.08463" lon="7.4368">
        <ele>2392.7171597021</ele>
        <time>2013-08-10T08:44:24.230Z</time>
      </trkpt>
      <trkpt lat="44.08459" lon="7.43683">
        <ele>2391</ele>
        <time>2013-08-10T08:44:30.270Z</time>
      </trkpt>
      <trkpt lat="44.08457" lon="7.43695">
        <ele>2390</ele>
        <time>2013-08-10T08:44:40.260Z</time>
      </trkpt>
      <trkpt lat="44.08462" lon="7.43724">
        <ele>2384</ele>
        <time>2013-08-10T08:44:56.260Z</time>
      </trkpt>
      <trkpt lat="44.08458" lon="7.43735">
        <ele>2384</ele>
        <time>2013-08-10T08:45:02.270Z</time>
      </trkpt>
      <trkpt lat="44.08452" lon="7.43738">
        <ele>2383</ele>
        <time>2013-08-10T08:45:07.250Z</time>
      </trkpt>
      <trkpt lat="44.08451" lon="7.4373">
        <ele>2385</ele>
        <time>2013-08-10T08:45:19.260Z</time>
      </trkpt>
      <trkpt lat="44.08442" lon="7.43731">
        <ele>2384</ele>
        <time>2013-08-10T08:46:39.260Z</time>
      </trkpt>
      <trkpt lat="44.08427" lon="7.43726">
        <ele>2386</ele>
        <time>2013-08-10T08:46:52.360Z</time>
      </trkpt>
      <trkpt lat="44.08415" lon="7.43728">
        <ele>2388.5399808</ele>
        <time>2013-08-10T08:47:04.260Z</time>
      </trkpt>
      <trkpt lat="44.08411" lon="7.43737">
        <ele>2392</ele>
        <time>2013-08-10T08:47:11.260Z</time>
      </trkpt>
      <trkpt lat="44.08404" lon="7.43732">
        <ele>2393</ele>
        <time>2013-08-10T08:47:17.260Z</time>
      </trkpt>
      <trkpt lat="44.08398" lon="7.43742">
        <ele>2395</ele>
        <time>2013-08-10T08:47:25.260Z</time>
      </trkpt>
      <trkpt lat="44.08374" lon="7.43761">
        <ele>2399</ele>
        <time>2013-08-10T08:47:45.360Z</time>
      </trkpt>
      <trkpt lat="44.08364" lon="7.43772">
        <ele>2399</ele>
        <time>2013-08-10T08:47:52.360Z</time>
      </trkpt>
      <trkpt lat="44.0836" lon="7.43784">
        <ele>2399</ele>
        <time>2013-08-10T08:47:56.360Z</time>
      </trkpt>
      <trkpt lat="44.08345" lon="7.43807">
        <ele>2399</ele>
        <time>2013-08-10T08:48:07.260Z</time>
      </trkpt>
      <trkpt lat="44.08342" lon="7.43827">
        <ele>2399</ele>
        <time>2013-08-10T08:48:17.260Z</time>
      </trkpt>
      <trkpt lat="44.08333" lon="7.43829">
        <ele>2399.5399808</ele>
        <time>2013-08-10T08:48:24.260Z</time>
      </trkpt>
      <trkpt lat="44.08332" lon="7.4383">
        <ele>2402</ele>
        <time>2013-08-10T08:48:25.260Z</time>
      </trkpt>
      <trkpt lat="44.08335" lon="7.43837">
        <ele>2405</ele>
        <time>2013-08-10T08:48:32.260Z</time>
      </trkpt>
      <trkpt lat="44.08333" lon="7.43839">
        <ele>2405.28</ele>
        <time>2013-08-10T08:48:34.360Z</time>
      </trkpt>
      <trkpt lat="44.08327" lon="7.43834">
        <ele>2406.2323257137</ele>
        <time>2013-08-10T08:48:39.320Z</time>
      </trkpt>
      <trkpt lat="44.08312" lon="7.43834">
        <ele>2411</ele>
        <time>2013-08-10T08:48:57.360Z</time>
      </trkpt>
      <trkpt lat="44.08303" lon="7.43839">
        <ele>2413</ele>
        <time>2013-08-10T08:49:11.260Z</time>
      </trkpt>
      <trkpt lat="44.08298" lon="7.43834">
        <ele>2417</ele>
        <time>2013-08-10T08:49:16.150Z</time>
      </trkpt>
      <trkpt lat="44.08278" lon="7.43838">
        <ele>2422</ele>
        <time>2013-08-10T08:49:40.360Z</time>
      </trkpt>
      <trkpt lat="44.08264" lon="7.43835">
        <ele>2430</ele>
        <time>2013-08-10T08:49:55.360Z</time>
      </trkpt>
      <trkpt lat="44.08259" lon="7.43835">
        <ele>2430</ele>
        <time>2013-08-10T08:49:59.210Z</time>
      </trkpt>
      <trkpt lat="44.08243" lon="7.43823">
        <ele>2431</ele>
        <time>2013-08-10T08:50:13.360Z</time>
      </trkpt>
      <trkpt lat="44.08215" lon="7.43786">
        <ele>2438.3599872</ele>
        <time>2013-08-10T08:50:44.260Z</time>
      </trkpt>
      <trkpt lat="44.08217" lon="7.43817">
        <ele>2443</ele>
        <time>2013-08-10T08:51:01.360Z</time>
      </trkpt>
      <trkpt lat="44.08213" lon="7.43849">
        <ele>2447.5399808</ele>
        <time>2013-08-10T08:51:24.260Z</time>
      </trkpt>
      <trkpt lat="44.08215" lon="7.43857">
        <ele>2452</ele>
        <time>2013-08-10T08:51:30.260Z</time>
      </trkpt>
      <trkpt lat="44.08219" lon="7.43866">
        <ele>2453</ele>
        <time>2013-08-10T08:51:37.260Z</time>
      </trkpt>
      <trkpt lat="44.08213" lon="7.4387">
        <ele>2456.1799936</ele>
        <time>2013-08-10T08:51:44.260Z</time>
      </trkpt>
      <trkpt lat="44.08205" lon="7.43862">
        <ele>2460</ele>
        <time>2013-08-10T08:51:55.360Z</time>
      </trkpt>
      <trkpt lat="44.08196" lon="7.43861">
        <ele>2461.3434267687</ele>
        <time>2013-08-10T08:52:04.260Z</time>
      </trkpt>
      <trkpt lat="44.08176" lon="7.43848">
        <ele>2467</ele>
        <time>2013-08-10T08:52:28.260Z</time>
      </trkpt>
      <trkpt lat="44.08166" lon="7.43851">
        <ele>2469</ele>
        <time>2013-08-10T08:52:39.260Z</time>
      </trkpt>
      <trkpt lat="44.08162" lon="7.43847">
        <ele>2469.5399808</ele>
        <time>2013-08-10T08:52:44.260Z</time>
      </trkpt>
      <trkpt lat="44.08159" lon="7.43847">
        <ele>2475</ele>
        <time>2013-08-10T08:52:50.210Z</time>
      </trkpt>
      <trkpt lat="44.08162" lon="7.43889">
        <ele>2481</ele>
        <time>2013-08-10T08:53:21.360Z</time>
      </trkpt>
      <trkpt lat="44.08161" lon="7.439">
        <ele>2483</ele>
        <time>2013-08-10T08:53:32.360Z</time>
      </trkpt>
      <trkpt lat="44.08165" lon="7.43915">
        <ele>2487.5544572022</ele>
        <time>2013-08-10T08:53:44.360Z</time>
      </trkpt>
      <trkpt lat="44.08163" lon="7.43917">
        <ele>2489</ele>
        <time>2013-08-10T08:53:47.440Z</time>
      </trkpt>
      <trkpt lat="44.08155" lon="7.43912">
        <ele>2493</ele>
        <time>2013-08-10T08:53:58.360Z</time>
      </trkpt>
      <trkpt lat="44.08144" lon="7.4391">
        <ele>2495</ele>
        <time>2013-08-10T08:54:13.360Z</time>
      </trkpt>
      <trkpt lat="44.08139" lon="7.43911">
        <ele>2500</ele>
        <time>2013-08-10T08:54:21.360Z</time>
      </trkpt>
      <trkpt lat="44.08117" lon="7.43904">
        <ele>2503</ele>
        <time>2013-08-10T08:54:43.360Z</time>
      </trkpt>
      <trkpt lat="44.08109" lon="7.439">
        <ele>2508</ele>
        <time>2013-08-10T08:54:50.310Z</time>
      </trkpt>
      <trkpt lat="44.08097" lon="7.439">
        <ele>2512.28</ele>
        <time>2013-08-10T08:55:04.360Z</time>
      </trkpt>
      <trkpt lat="44.0809" lon="7.43904">
        <ele>2513</ele>
        <time>2013-08-10T08:55:12.360Z</time>
      </trkpt>
      <trkpt lat="44.08076" lon="7.43891">
        <ele>2520</ele>
        <time>2013-08-10T08:55:31.260Z</time>
      </trkpt>
      <trkpt lat="44.08067" lon="7.43891">
        <ele>2524</ele>
        <time>2013-08-10T08:55:40.260Z</time>
      </trkpt>
      <trkpt lat="44.08064" lon="7.43886">
        <ele>2524</ele>
        <time>2013-08-10T08:55:45.360Z</time>
      </trkpt>
      <trkpt lat="44.0806" lon="7.43859">
        <ele>2526</ele>
        <time>2013-08-10T08:56:02.260Z</time>
      </trkpt>
      <trkpt lat="44.08055" lon="7.4385">
        <ele>2528</ele>
        <time>2013-08-10T08:56:11.360Z</time>
      </trkpt>
      <trkpt lat="44.08049" lon="7.43851">
        <ele>2530</ele>
        <time>2013-08-10T08:56:19.260Z</time>
      </trkpt>
      <trkpt lat="44.08061" lon="7.43867">
        <ele>2527</ele>
        <time>2013-08-10T09:04:00.250Z</time>
      </trkpt>
      <trkpt lat="44.08061" lon="7.43878">
        <ele>2527</ele>
        <time>2013-08-10T09:04:10.360Z</time>
      </trkpt>
      <trkpt lat="44.08073" lon="7.43897">
        <ele>2521</ele>
        <time>2013-08-10T09:04:25.350Z</time>
      </trkpt>
      <trkpt lat="44.08078" lon="7.43925">
        <ele>2525</ele>
        <time>2013-08-10T09:04:42.250Z</time>
      </trkpt>
      <trkpt lat="44.08092" lon="7.43938">
        <ele>2526</ele>
        <time>2013-08-10T09:05:00.350Z</time>
      </trkpt>
      <trkpt lat="44.08086" lon="7.43944">
        <ele>2528.8100096</ele>
        <time>2013-08-10T09:05:14.350Z</time>
      </trkpt>
      <trkpt lat="44.0809" lon="7.43951">
        <ele>2535</ele>
        <time>2013-08-10T09:05:25.250Z</time>
      </trkpt>
      <trkpt lat="44.08093" lon="7.43966">
        <ele>2537</ele>
        <time>2013-08-10T09:05:39.210Z</time>
      </trkpt>
      <trkpt lat="44.08104" lon="7.43984">
        <ele>2542</ele>
        <time>2013-08-10T09:06:02.350Z</time>
      </trkpt>
      <trkpt lat="44.08103" lon="7.43993">
        <ele>2549</ele>
        <time>2013-08-10T09:06:29.350Z</time>
      </trkpt>
      <trkpt lat="44.08095" lon="7.43996">
        <ele>2554</ele>
        <time>2013-08-10T09:06:45.250Z</time>
      </trkpt>
      <trkpt lat="44.08103" lon="7.44008">
        <ele>2557.2424234588</ele>
        <time>2013-08-10T09:07:04.210Z</time>
      </trkpt>
      <trkpt lat="44.08086" lon="7.44002">
        <ele>2562</ele>
        <time>2013-08-10T09:07:28.350Z</time>
      </trkpt>
      <trkpt lat="44.08092" lon="7.44012">
        <ele>2564.3399936</ele>
        <time>2013-08-10T09:07:44.250Z</time>
      </trkpt>
      <trkpt lat="44.0809" lon="7.44011">
        <ele>2566</ele>
        <time>2013-08-10T09:07:49.250Z</time>
      </trkpt>
      <trkpt lat="44.08089" lon="7.44021">
        <ele>2574</ele>
        <time>2013-08-10T09:08:10.350Z</time>
      </trkpt>
      <trkpt lat="44.08087" lon="7.4402">
        <ele>2574.5400064</ele>
        <time>2013-08-10T09:08:14.350Z</time>
      </trkpt>
      <trkpt lat="44.08084" lon="7.44025">
        <ele>2578</ele>
        <time>2013-08-10T09:08:26.340Z</time>
      </trkpt>
      <trkpt lat="44.08081" lon="7.44024">
        <ele>2578</ele>
        <time>2013-08-10T09:08:30.260Z</time>
      </trkpt>
      <trkpt lat="44.08085" lon="7.4403">
        <ele>2580</ele>
        <time>2013-08-10T09:08:39.260Z</time>
      </trkpt>
      <trkpt lat="44.08084" lon="7.44033">
        <ele>2580</ele>
        <time>2013-08-10T09:08:43.350Z</time>
      </trkpt>
      <trkpt lat="44.08075" lon="7.44031">
        <ele>2581.84</ele>
        <time>2013-08-10T09:08:54.360Z</time>
      </trkpt>
      <trkpt lat="44.08078" lon="7.44035">
        <ele>2586</ele>
        <time>2013-08-10T09:09:00.250Z</time>
      </trkpt>
      <trkpt lat="44.08083" lon="7.4404">
        <ele>2586</ele>
        <time>2013-08-10T09:09:05.350Z</time>
      </trkpt>
      <trkpt lat="44.08073" lon="7.44046">
        <ele>2588</ele>
        <time>2013-08-10T09:09:22.250Z</time>
      </trkpt>
      <trkpt lat="44.08066" lon="7.44046">
        <ele>2592</ele>
        <time>2013-08-10T09:09:32.250Z</time>
      </trkpt>
      <trkpt lat="44.08067" lon="7.44048">
        <ele>2595</ele>
        <time>2013-08-10T09:09:35.260Z</time>
      </trkpt>
      <trkpt lat="44.08075" lon="7.44062">
        <ele>2597</ele>
        <time>2013-08-10T09:09:50.210Z</time>
      </trkpt>
      <trkpt lat="44.0808" lon="7.44062">
        <ele>2597.2424234588</ele>
        <time>2013-08-10T09:09:54.210Z</time>
      </trkpt>
      <trkpt lat="44.0808" lon="7.44064">
        <ele>2599</ele>
        <time>2013-08-10T09:09:56.250Z</time>
      </trkpt>
      <trkpt lat="44.08064" lon="7.44074">
        <ele>2601.5400064</ele>
        <time>2013-08-10T09:10:14.350Z</time>
      </trkpt>
      <trkpt lat="44.08064" lon="7.44077">
        <ele>2603</ele>
        <time>2013-08-10T09:10:17.360Z</time>
      </trkpt>
      <trkpt lat="44.08067" lon="7.44084">
        <ele>2605</ele>
        <time>2013-08-10T09:10:25.350Z</time>
      </trkpt>
      <trkpt lat="44.08073" lon="7.44087">
        <ele>2605.32</ele>
        <time>2013-08-10T09:10:34.160Z</time>
      </trkpt>
      <trkpt lat="44.08074" lon="7.44093">
        <ele>2611</ele>
        <time>2013-08-10T09:10:40.250Z</time>
      </trkpt>
      <trkpt lat="44.08076" lon="7.44095">
        <ele>2611</ele>
        <time>2013-08-10T09:10:44.250Z</time>
      </trkpt>
      <trkpt lat="44.081" lon="7.44076">
        <ele>2615</ele>
        <time>2013-08-10T09:11:39.350Z</time>
      </trkpt>
      <trkpt lat="44.08092" lon="7.44089">
        <ele>2616</ele>
        <time>2013-08-10T09:13:07.350Z</time>
      </trkpt>
      <trkpt lat="44.08111" lon="7.44096">
        <ele>2619</ele>
        <time>2013-08-10T09:13:26.250Z</time>
      </trkpt>
      <trkpt lat="44.08104" lon="7.44114">
        <ele>2624</ele>
        <time>2013-08-10T09:13:50.240Z</time>
      </trkpt>
      <trkpt lat="44.08119" lon="7.4412">
        <ele>2627.3399936</ele>
        <time>2013-08-10T09:14:14.250Z</time>
      </trkpt>
      <trkpt lat="44.08108" lon="7.44139">
        <ele>2634</ele>
        <time>2013-08-10T09:14:36.350Z</time>
      </trkpt>
      <trkpt lat="44.08109" lon="7.44142">
        <ele>2634</ele>
        <time>2013-08-10T09:14:42.250Z</time>
      </trkpt>
      <trkpt lat="44.08117" lon="7.44142">
        <ele>2638</ele>
        <time>2013-08-10T09:15:07.460Z</time>
      </trkpt>
      <trkpt lat="44.08111" lon="7.4416">
        <ele>2638</ele>
        <time>2013-08-10T09:15:33.240Z</time>
      </trkpt>
      <trkpt lat="44.08111" lon="7.44163">
        <ele>2641</ele>
        <time>2013-08-10T09:15:36.350Z</time>
      </trkpt>
      <trkpt lat="44.08105" lon="7.44187">
        <ele>2642.5099904</ele>
        <time>2013-08-10T09:15:54.250Z</time>
      </trkpt>
      <trkpt lat="44.08105" lon="7.442">
        <ele>2648</ele>
        <time>2013-08-10T09:16:07.350Z</time>
      </trkpt>
      <trkpt lat="44.08098" lon="7.44214">
        <ele>2651</ele>
        <time>2013-08-10T09:16:29.350Z</time>
      </trkpt>
      <trkpt lat="44.081" lon="7.44217">
        <ele>2653</ele>
        <time>2013-08-10T09:16:41.350Z</time>
      </trkpt>
      <trkpt lat="44.08098" lon="7.44225">
        <ele>2657.267330748</ele>
        <time>2013-08-10T09:16:49.350Z</time>
      </trkpt>
      <trkpt lat="44.08101" lon="7.44229">
        <ele>2659</ele>
        <time>2013-08-10T09:16:55.350Z</time>
      </trkpt>
      <trkpt lat="44.08095" lon="7.44236">
        <ele>2662</ele>
        <time>2013-08-10T09:17:29.350Z</time>
      </trkpt>
      <trkpt lat="44.08095" lon="7.44249">
        <ele>2668</ele>
        <time>2013-08-10T09:18:36.250Z</time>
      </trkpt>
      <trkpt lat="44.08089" lon="7.44262">
        <ele>2670</ele>
        <time>2013-08-10T09:18:52.250Z</time>
      </trkpt>
      <trkpt lat="44.08087" lon="7.44263">
        <ele>2672</ele>
        <time>2013-08-10T09:18:58.210Z</time>
      </trkpt>
      <trkpt lat="44.08089" lon="7.44267">
        <ele>2673</ele>
        <time>2013-08-10T09:19:21.350Z</time>
      </trkpt>
      <trkpt lat="44.08095" lon="7.44264">
        <ele>2675</ele>
        <time>2013-08-10T09:19:41.350Z</time>
      </trkpt>
      <trkpt lat="44.08101" lon="7.4427">
        <ele>2676.5400064</ele>
        <time>2013-08-10T09:19:54.350Z</time>
      </trkpt>
      <trkpt lat="44.08105" lon="7.4427">
        <ele>2685</ele>
        <time>2013-08-10T09:21:00.250Z</time>
      </trkpt>
      <trkpt lat="44.08094" lon="7.4429">
        <ele>2686</ele>
        <time>2013-08-10T09:22:40.350Z</time>
      </trkpt>
      <trkpt lat="44.08086" lon="7.44319">
        <ele>2689</ele>
        <time>2013-08-10T09:23:00.250Z</time>
      </trkpt>
      <trkpt lat="44.08069" lon="7.44349">
        <ele>2692</ele>
        <time>2013-08-10T09:23:27.350Z</time>
      </trkpt>
      <trkpt lat="44.08062" lon="7.44373">
        <ele>2694</ele>
        <time>2013-08-10T09:23:55.350Z</time>
      </trkpt>
      <trkpt lat="44.08056" lon="7.44374">
        <ele>2694</ele>
        <time>2013-08-10T09:24:02.350Z</time>
      </trkpt>
      <trkpt lat="44.08054" lon="7.44364">
        <ele>2692</ele>
        <time>2013-08-10T09:28:00.330Z</time>
      </trkpt>
      <trkpt lat="44.0804" lon="7.44369">
        <ele>2687</ele>
        <time>2013-08-10T09:28:15.350Z</time>
      </trkpt>
      <trkpt lat="44.08021" lon="7.44402">
        <ele>2681.3200128</ele>
        <time>2013-08-10T09:28:29.250Z</time>
      </trkpt>
      <trkpt lat="44.08021" lon="7.44405">
        <ele>2678</ele>
        <time>2013-08-10T09:28:30.250Z</time>
      </trkpt>
      <trkpt lat="44.08005" lon="7.44455">
        <ele>2676</ele>
        <time>2013-08-10T09:28:45.350Z</time>
      </trkpt>
      <trkpt lat="44.07997" lon="7.44467">
        <ele>2676</ele>
        <time>2013-08-10T09:28:50.310Z</time>
      </trkpt>
      <trkpt lat="44.07978" lon="7.44479">
        <ele>2675</ele>
        <time>2013-08-10T09:28:58.350Z</time>
      </trkpt>
      <trkpt lat="44.07937" lon="7.44489">
        <ele>2678</ele>
        <time>2013-08-10T09:29:19.250Z</time>
      </trkpt>
      <trkpt lat="44.07899" lon="7.44479">
        <ele>2686</ele>
        <time>2013-08-10T09:29:40.350Z</time>
      </trkpt>
      <trkpt lat="44.07858" lon="7.44475">
        <ele>2688</ele>
        <time>2013-08-10T09:30:10.350Z</time>
      </trkpt>
      <trkpt lat="44.07817" lon="7.4453">
        <ele>2689</ele>
        <time>2013-08-10T09:30:52.310Z</time>
      </trkpt>
      <trkpt lat="44.07811" lon="7.4454">
        <ele>2694</ele>
        <time>2013-08-10T09:31:00.230Z</time>
      </trkpt>
      <trkpt lat="44.07793" lon="7.44564">
        <ele>2696</ele>
        <time>2013-08-10T09:31:20.250Z</time>
      </trkpt>
      <trkpt lat="44.07769" lon="7.44568">
        <ele>2698</ele>
        <time>2013-08-10T09:31:32.350Z</time>
      </trkpt>
      <trkpt lat="44.07757" lon="7.44574">
        <ele>2697</ele>
        <time>2013-08-10T09:31:58.260Z</time>
      </trkpt>
      <trkpt lat="44.07755" lon="7.44592">
        <ele>2704</ele>
        <time>2013-08-10T09:33:56.350Z</time>
      </trkpt>
      <trkpt lat="44.0774" lon="7.44595">
        <ele>2706</ele>
        <time>2013-08-10T09:34:14.250Z</time>
      </trkpt>
      <trkpt lat="44.07728" lon="7.44608">
        <ele>2706</ele>
        <time>2013-08-10T09:34:39.350Z</time>
      </trkpt>
      <trkpt lat="44.07711" lon="7.44616">
        <ele>2705</ele>
        <time>2013-08-10T09:34:52.350Z</time>
      </trkpt>
      <trkpt lat="44.07707" lon="7.44622">
        <ele>2701</ele>
        <time>2013-08-10T09:34:55.350Z</time>
      </trkpt>
      <trkpt lat="44.07706" lon="7.44633">
        <ele>2700</ele>
        <time>2013-08-10T09:35:00.350Z</time>
      </trkpt>
      <trkpt lat="44.07687" lon="7.44658">
        <ele>2699</ele>
        <time>2013-08-10T09:35:23.260Z</time>
      </trkpt>
      <trkpt lat="44.07683" lon="7.4466">
        <ele>2697</ele>
        <time>2013-08-10T09:35:26.250Z</time>
      </trkpt>
      <trkpt lat="44.07682" lon="7.44669">
        <ele>2697</ele>
        <time>2013-08-10T09:35:33.230Z</time>
      </trkpt>
      <trkpt lat="44.0768" lon="7.44669">
        <ele>2695</ele>
        <time>2013-08-10T09:35:36.250Z</time>
      </trkpt>
      <trkpt lat="44.07675" lon="7.44678">
        <ele>2694.4900096</ele>
        <time>2013-08-10T09:35:44.250Z</time>
      </trkpt>
      <trkpt lat="44.07674" lon="7.44681">
        <ele>2692</ele>
        <time>2013-08-10T09:35:47.230Z</time>
      </trkpt>
      <trkpt lat="44.07673" lon="7.44678">
        <ele>2689</ele>
        <time>2013-08-10T09:35:51.250Z</time>
      </trkpt>
      <trkpt lat="44.07674" lon="7.44664">
        <ele>2686</ele>
        <time>2013-08-10T09:36:01.160Z</time>
      </trkpt>
      <trkpt lat="44.07674" lon="7.4467">
        <ele>2686</ele>
        <time>2013-08-10T09:36:09.250Z</time>
      </trkpt>
      <trkpt lat="44.07669" lon="7.44669">
        <ele>2684</ele>
        <time>2013-08-10T09:36:32.240Z</time>
      </trkpt>
      <trkpt lat="44.07667" lon="7.44678">
        <ele>2683</ele>
        <time>2013-08-10T09:36:42.350Z</time>
      </trkpt>
      <trkpt lat="44.0766" lon="7.44685">
        <ele>2680</ele>
        <time>2013-08-10T09:36:51.250Z</time>
      </trkpt>
      <trkpt lat="44.07651" lon="7.44723">
        <ele>2678</ele>
        <time>2013-08-10T09:37:14.350Z</time>
      </trkpt>
      <trkpt lat="44.07648" lon="7.4475">
        <ele>2677</ele>
        <time>2013-08-10T09:37:30.350Z</time>
      </trkpt>
      <trkpt lat="44.07643" lon="7.44762">
        <ele>2678</ele>
        <time>2013-08-10T09:37:43.350Z</time>
      </trkpt>
      <trkpt lat="44.0764" lon="7.44766">
        <ele>2684</ele>
        <time>2013-08-10T09:37:57.310Z</time>
      </trkpt>
      <trkpt lat="44.07634" lon="7.44764">
        <ele>2684.3399936</ele>
        <time>2013-08-10T09:38:04.250Z</time>
      </trkpt>
      <trkpt lat="44.07629" lon="7.44771">
        <ele>2687</ele>
        <time>2013-08-10T09:38:17.350Z</time>
      </trkpt>
      <trkpt lat="44.0763" lon="7.44774">
        <ele>2685</ele>
        <time>2013-08-10T09:38:27.250Z</time>
      </trkpt>
      <trkpt lat="44.07618" lon="7.44784">
        <ele>2679.4900096</ele>
        <time>2013-08-10T09:38:44.250Z</time>
      </trkpt>
      <trkpt lat="44.07613" lon="7.4478">
        <ele>2676</ele>
        <time>2013-08-10T09:38:51.250Z</time>
      </trkpt>
      <trkpt lat="44.07616" lon="7.44774">
        <ele>2675</ele>
        <time>2013-08-10T09:38:55.250Z</time>
      </trkpt>
      <trkpt lat="44.07615" lon="7.44768">
        <ele>2675</ele>
        <time>2013-08-10T09:39:00.350Z</time>
      </trkpt>
      <trkpt lat="44.0761" lon="7.44774">
        <ele>2672</ele>
        <time>2013-08-10T09:39:07.250Z</time>
      </trkpt>
      <trkpt lat="44.07589" lon="7.44776">
        <ele>2669</ele>
        <time>2013-08-10T09:39:21.350Z</time>
      </trkpt>
      <trkpt lat="44.07581" lon="7.44817">
        <ele>2671</ele>
        <time>2013-08-10T09:39:50.310Z</time>
      </trkpt>
      <trkpt lat="44.07591" lon="7.4482">
        <ele>2673.5099904</ele>
        <time>2013-08-10T09:40:04.250Z</time>
      </trkpt>
      <trkpt lat="44.07593" lon="7.44822">
        <ele>2678.3399936</ele>
        <time>2013-08-10T09:40:14.250Z</time>
      </trkpt>
      <trkpt lat="44.07595" lon="7.44813">
        <ele>2681</ele>
        <time>2013-08-10T09:40:21.250Z</time>
      </trkpt>
      <trkpt lat="44.07593" lon="7.44827">
        <ele>2683</ele>
        <time>2013-08-10T09:40:37.350Z</time>
      </trkpt>
      <trkpt lat="44.07596" lon="7.44831">
        <ele>2685</ele>
        <time>2013-08-10T09:40:48.350Z</time>
      </trkpt>
      <trkpt lat="44.07594" lon="7.44838">
        <ele>2685.3399936</ele>
        <time>2013-08-10T09:40:54.250Z</time>
      </trkpt>
      <trkpt lat="44.07599" lon="7.44839">
        <ele>2693</ele>
        <time>2013-08-10T09:41:15.350Z</time>
      </trkpt>
      <trkpt lat="44.07602" lon="7.44839">
        <ele>2693</ele>
        <time>2013-08-10T09:41:21.210Z</time>
      </trkpt>
      <trkpt lat="44.07601" lon="7.44852">
        <ele>2695.2700032</ele>
        <time>2013-08-10T09:41:34.350Z</time>
      </trkpt>
      <trkpt lat="44.07593" lon="7.44864">
        <ele>2698</ele>
        <time>2013-08-10T09:41:49.350Z</time>
      </trkpt>
      <trkpt lat="44.07588" lon="7.44863">
        <ele>2699.0693229919</ele>
        <time>2013-08-10T09:41:54.350Z</time>
      </trkpt>
      <trkpt lat="44.07586" lon="7.44867">
        <ele>2702</ele>
        <time>2013-08-10T09:41:57.330Z</time>
      </trkpt>
      <trkpt lat="44.07588" lon="7.44879">
        <ele>2704.5400064</ele>
        <time>2013-08-10T09:42:14.350Z</time>
      </trkpt>
      <trkpt lat="44.07583" lon="7.44894">
        <ele>2711</ele>
        <time>2013-08-10T09:42:31.350Z</time>
      </trkpt>
      <trkpt lat="44.07588" lon="7.44896">
        <ele>2712.2700032</ele>
        <time>2013-08-10T09:42:39.350Z</time>
      </trkpt>
      <trkpt lat="44.07595" lon="7.44889">
        <ele>2714</ele>
        <time>2013-08-10T09:42:51.230Z</time>
      </trkpt>
      <trkpt lat="44.07588" lon="7.44917">
        <ele>2723</ele>
        <time>2013-08-10T09:43:27.250Z</time>
      </trkpt>
      <trkpt lat="44.07591" lon="7.44916">
        <ele>2723.3399936</ele>
        <time>2013-08-10T09:43:34.250Z</time>
      </trkpt>
      <trkpt lat="44.07587" lon="7.44923">
        <ele>2729</ele>
        <time>2013-08-10T09:43:51.250Z</time>
      </trkpt>
      <trkpt lat="44.0759" lon="7.44929">
        <ele>2730</ele>
        <time>2013-08-10T09:44:00.350Z</time>
      </trkpt>
      <trkpt lat="44.07587" lon="7.44932">
        <ele>2732</ele>
        <time>2013-08-10T09:44:10.350Z</time>
      </trkpt>
      <trkpt lat="44.07588" lon="7.44936">
        <ele>2732.5099904</ele>
        <time>2013-08-10T09:44:14.250Z</time>
      </trkpt>
      <trkpt lat="44.07586" lon="7.44939">
        <ele>2737</ele>
        <time>2013-08-10T09:44:21.250Z</time>
      </trkpt>
      <trkpt lat="44.07575" lon="7.44947">
        <ele>2738</ele>
        <time>2013-08-10T09:44:35.250Z</time>
      </trkpt>
      <trkpt lat="44.07564" lon="7.44945">
        <ele>2739</ele>
        <time>2013-08-10T09:44:49.350Z</time>
      </trkpt>
      <trkpt lat="44.07564" lon="7.44951">
        <ele>2739.8100096</ele>
        <time>2013-08-10T09:44:54.350Z</time>
      </trkpt>
      <trkpt lat="44.07548" lon="7.4494">
        <ele>2747</ele>
        <time>2013-08-10T09:45:15.240Z</time>
      </trkpt>
      <trkpt lat="44.0754" lon="7.44946">
        <ele>2747</ele>
        <time>2013-08-10T09:45:26.250Z</time>
      </trkpt>
      <trkpt lat="44.07533" lon="7.44958">
        <ele>2747</ele>
        <time>2013-08-10T09:45:35.250Z</time>
      </trkpt>
      <trkpt lat="44.07524" lon="7.44983">
        <ele>2749</ele>
        <time>2013-08-10T09:45:51.360Z</time>
      </trkpt>
      <trkpt lat="44.07517" lon="7.44993">
        <ele>2750</ele>
        <time>2013-08-10T09:46:00.250Z</time>
      </trkpt>
      <trkpt lat="44.07506" lon="7.44992">
        <ele>2755</ele>
        <time>2013-08-10T09:46:10.310Z</time>
      </trkpt>
      <trkpt lat="44.0748" lon="7.44989">
        <ele>2755</ele>
        <time>2013-08-10T09:47:42.230Z</time>
      </trkpt>
      <trkpt lat="44.07475" lon="7.44999">
        <ele>2755</ele>
        <time>2013-08-10T09:47:53.250Z</time>
      </trkpt>
      <trkpt lat="44.07473" lon="7.45009">
        <ele>2748</ele>
        <time>2013-08-10T09:49:55.350Z</time>
      </trkpt>
      <trkpt lat="44.07468" lon="7.45014">
        <ele>2748</ele>
        <time>2013-08-10T09:50:03.250Z</time>
      </trkpt>
      <trkpt lat="44.07467" lon="7.45022">
        <ele>2746</ele>
        <time>2013-08-10T09:50:10.350Z</time>
      </trkpt>
      <trkpt lat="44.07453" lon="7.45034">
        <ele>2746</ele>
        <time>2013-08-10T09:50:27.350Z</time>
      </trkpt>
      <trkpt lat="44.07435" lon="7.45039">
        <ele>2747</ele>
        <time>2013-08-10T09:50:42.210Z</time>
      </trkpt>
      <trkpt lat="44.07432" lon="7.45047">
        <ele>2749</ele>
        <time>2013-08-10T09:50:50.210Z</time>
      </trkpt>
      <trkpt lat="44.07424" lon="7.45049">
        <ele>2750</ele>
        <time>2013-08-10T09:51:02.250Z</time>
      </trkpt>
      <trkpt lat="44.07423" lon="7.45046">
        <ele>2754</ele>
        <time>2013-08-10T09:51:07.250Z</time>
      </trkpt>
      <trkpt lat="44.07423" lon="7.4505">
        <ele>2756</ele>
        <time>2013-08-10T09:51:16.330Z</time>
      </trkpt>
      <trkpt lat="44.07418" lon="7.45048">
        <ele>2760</ele>
        <time>2013-08-10T09:51:35.250Z</time>
      </trkpt>
      <trkpt lat="44.07417" lon="7.45041">
        <ele>2760</ele>
        <time>2013-08-10T09:51:42.250Z</time>
      </trkpt>
      <trkpt lat="44.07421" lon="7.45038">
        <ele>2760</ele>
        <time>2013-08-10T09:51:48.250Z</time>
      </trkpt>
      <trkpt lat="44.07415" lon="7.45038">
        <ele>2762</ele>
        <time>2013-08-10T09:52:00.250Z</time>
      </trkpt>
      <trkpt lat="44.07414" lon="7.45045">
        <ele>2763</ele>
        <time>2013-08-10T09:52:13.250Z</time>
      </trkpt>
      <trkpt lat="44.07411" lon="7.45037">
        <ele>2768</ele>
        <time>2013-08-10T09:52:42.350Z</time>
      </trkpt>
      <trkpt lat="44.07405" lon="7.45037">
        <ele>2770</ele>
        <time>2013-08-10T09:53:08.350Z</time>
      </trkpt>
      <trkpt lat="44.07401" lon="7.45036">
        <ele>2779</ele>
        <time>2013-08-10T09:53:40.250Z</time>
      </trkpt>
      <trkpt lat="44.07396" lon="7.45033">
        <ele>2779.1699968</ele>
        <time>2013-08-10T09:53:54.250Z</time>
      </trkpt>
      <trkpt lat="44.07399" lon="7.45024">
        <ele>2782</ele>
        <time>2013-08-10T09:54:06.310Z</time>
      </trkpt>
      <trkpt lat="44.07396" lon="7.45019">
        <ele>2782</ele>
        <time>2013-08-10T09:54:10.250Z</time>
      </trkpt>
      <trkpt lat="44.07404" lon="7.45011">
        <ele>2784</ele>
        <time>2013-08-10T09:54:24.350Z</time>
      </trkpt>
      <trkpt lat="44.07405" lon="7.45005">
        <ele>2784</ele>
        <time>2013-08-10T09:54:33.310Z</time>
      </trkpt>
      <trkpt lat="44.07392" lon="7.45018">
        <ele>2786</ele>
        <time>2013-08-10T09:54:46.350Z</time>
      </trkpt>
      <trkpt lat="44.07382" lon="7.45025">
        <ele>2787</ele>
        <time>2013-08-10T09:55:00.250Z</time>
      </trkpt>
      <trkpt lat="44.07379" lon="7.45023">
        <ele>2790</ele>
        <time>2013-08-10T09:55:09.250Z</time>
      </trkpt>
      <trkpt lat="44.07381" lon="7.45031">
        <ele>2791</ele>
        <time>2013-08-10T09:55:19.250Z</time>
      </trkpt>
      <trkpt lat="44.07361" lon="7.45023">
        <ele>2799</ele>
        <time>2013-08-10T09:55:55.250Z</time>
      </trkpt>
      <trkpt lat="44.07355" lon="7.45019">
        <ele>2799</ele>
        <time>2013-08-10T09:56:03.350Z</time>
      </trkpt>
      <trkpt lat="44.07352" lon="7.45026">
        <ele>2804</ele>
        <time>2013-08-10T09:56:16.310Z</time>
      </trkpt>
      <trkpt lat="44.07353" lon="7.45033">
        <ele>2805</ele>
        <time>2013-08-10T09:56:33.230Z</time>
      </trkpt>
      <trkpt lat="44.07352" lon="7.45037">
        <ele>2809</ele>
        <time>2013-08-10T09:56:40.350Z</time>
      </trkpt>
      <trkpt lat="44.07347" lon="7.45035">
        <ele>2810</ele>
        <time>2013-08-10T09:56:47.350Z</time>
      </trkpt>
      <trkpt lat="44.07333" lon="7.4502">
        <ele>2811.8100096</ele>
        <time>2013-08-10T09:57:04.350Z</time>
      </trkpt>
      <trkpt lat="44.07317" lon="7.45011">
        <ele>2815</ele>
        <time>2013-08-10T09:57:20.250Z</time>
      </trkpt>
      <trkpt lat="44.07301" lon="7.45007">
        <ele>2818</ele>
        <time>2013-08-10T09:57:40.250Z</time>
      </trkpt>
      <trkpt lat="44.07298" lon="7.4501">
        <ele>2822</ele>
        <time>2013-08-10T09:57:51.350Z</time>
      </trkpt>
      <trkpt lat="44.0729" lon="7.4501">
        <ele>2823</ele>
        <time>2013-08-10T09:58:07.250Z</time>
      </trkpt>
      <trkpt lat="44.07284" lon="7.45018">
        <ele>2823.5099904</ele>
        <time>2013-08-10T09:58:14.250Z</time>
      </trkpt>
      <trkpt lat="44.07284" lon="7.45019">
        <ele>2826</ele>
        <time>2013-08-10T09:58:15.250Z</time>
      </trkpt>
      <trkpt lat="44.07281" lon="7.45035">
        <ele>2827</ele>
        <time>2013-08-10T09:58:27.350Z</time>
      </trkpt>
      <trkpt lat="44.07301" lon="7.45044">
        <ele>2831</ele>
        <time>2013-08-10T09:58:48.350Z</time>
      </trkpt>
      <trkpt lat="44.07301" lon="7.4504">
        <ele>2831</ele>
        <time>2013-08-10T09:58:52.350Z</time>
      </trkpt>
      <trkpt lat="44.07288" lon="7.45039">
        <ele>2832</ele>
        <time>2013-08-10T10:07:43.350Z</time>
      </trkpt>
      <trkpt lat="44.07282" lon="7.45036">
        <ele>2829</ele>
        <time>2013-08-10T10:07:47.350Z</time>
      </trkpt>
      <trkpt lat="44.07282" lon="7.4503">
        <ele>2827</ele>
        <time>2013-08-10T10:07:51.250Z</time>
      </trkpt>
      <trkpt lat="44.0725" lon="7.45035">
        <ele>2826</ele>
        <time>2013-08-10T10:08:20.250Z</time>
      </trkpt>
      <trkpt lat="44.0724" lon="7.4502">
        <ele>2825</ele>
        <time>2013-08-10T10:09:03.360Z</time>
      </trkpt>
      <trkpt lat="44.07218" lon="7.45026">
        <ele>2816</ele>
        <time>2013-08-10T10:09:49.350Z</time>
      </trkpt>
      <trkpt lat="44.0721" lon="7.45022">
        <ele>2806</ele>
        <time>2013-08-10T10:11:21.250Z</time>
      </trkpt>
      <trkpt lat="44.07203" lon="7.45021">
        <ele>2805</ele>
        <time>2013-08-10T10:11:32.250Z</time>
      </trkpt>
      <trkpt lat="44.07197" lon="7.45027">
        <ele>2803</ele>
        <time>2013-08-10T10:12:12.250Z</time>
      </trkpt>
      <trkpt lat="44.07191" lon="7.45047">
        <ele>2802.6600064</ele>
        <time>2013-08-10T10:12:24.250Z</time>
      </trkpt>
      <trkpt lat="44.07188" lon="7.45058">
        <ele>2796</ele>
        <time>2013-08-10T10:12:41.350Z</time>
      </trkpt>
      <trkpt lat="44.07174" lon="7.45068">
        <ele>2794</ele>
        <time>2013-08-10T10:13:02.250Z</time>
      </trkpt>
      <trkpt lat="44.07169" lon="7.45067">
        <ele>2792</ele>
        <time>2013-08-10T10:13:07.350Z</time>
      </trkpt>
      <trkpt lat="44.07147" lon="7.45102">
        <ele>2790</ele>
        <time>2013-08-10T10:13:36.250Z</time>
      </trkpt>
      <trkpt lat="44.07122" lon="7.45123">
        <ele>2794</ele>
        <time>2013-08-10T10:14:02.350Z</time>
      </trkpt>
      <trkpt lat="44.07113" lon="7.45125">
        <ele>2796</ele>
        <time>2013-08-10T10:14:10.260Z</time>
      </trkpt>
      <trkpt lat="44.07104" lon="7.45139">
        <ele>2796</ele>
        <time>2013-08-10T10:14:21.350Z</time>
      </trkpt>
      <trkpt lat="44.0706" lon="7.45172">
        <ele>2795</ele>
        <time>2013-08-10T10:14:57.350Z</time>
      </trkpt>
      <trkpt lat="44.07053" lon="7.45192">
        <ele>2796</ele>
        <time>2013-08-10T10:15:09.250Z</time>
      </trkpt>
      <trkpt lat="44.07053" lon="7.45204">
        <ele>2797</ele>
        <time>2013-08-10T10:15:17.250Z</time>
      </trkpt>
      <trkpt lat="44.07047" lon="7.45214">
        <ele>2797</ele>
        <time>2013-08-10T10:15:30.250Z</time>
      </trkpt>
      <trkpt lat="44.07034" lon="7.45219">
        <ele>2797</ele>
        <time>2013-08-10T10:15:51.250Z</time>
      </trkpt>
      <trkpt lat="44.07024" lon="7.45216">
        <ele>2796</ele>
        <time>2013-08-10T10:16:02.350Z</time>
      </trkpt>
      <trkpt lat="44.06999" lon="7.45221">
        <ele>2796</ele>
        <time>2013-08-10T10:16:22.250Z</time>
      </trkpt>
      <trkpt lat="44.0698" lon="7.45223">
        <ele>2789.7299968</ele>
        <time>2013-08-10T10:16:44.350Z</time>
      </trkpt>
      <trkpt lat="44.06974" lon="7.45236">
        <ele>2789</ele>
        <time>2013-08-10T10:16:53.250Z</time>
      </trkpt>
      <trkpt lat="44.06967" lon="7.4524">
        <ele>2783</ele>
        <time>2013-08-10T10:17:01.350Z</time>
      </trkpt>
      <trkpt lat="44.06956" lon="7.45265">
        <ele>2777</ele>
        <time>2013-08-10T10:17:17.250Z</time>
      </trkpt>
      <trkpt lat="44.06953" lon="7.45267">
        <ele>2773</ele>
        <time>2013-08-10T10:17:20.210Z</time>
      </trkpt>
      <trkpt lat="44.06948" lon="7.45277">
        <ele>2772</ele>
        <time>2013-08-10T10:17:28.250Z</time>
      </trkpt>
      <trkpt lat="44.06942" lon="7.45282">
        <ele>2770</ele>
        <time>2013-08-10T10:17:32.250Z</time>
      </trkpt>
      <trkpt lat="44.06941" lon="7.45287">
        <ele>2768</ele>
        <time>2013-08-10T10:17:36.250Z</time>
      </trkpt>
      <trkpt lat="44.06936" lon="7.45289">
        <ele>2766</ele>
        <time>2013-08-10T10:17:43.350Z</time>
      </trkpt>
      <trkpt lat="44.06935" lon="7.45293">
        <ele>2761.7299968</ele>
        <time>2013-08-10T10:17:45.350Z</time>
      </trkpt>
      <trkpt lat="44.06934" lon="7.4531">
        <ele>2758</ele>
        <time>2013-08-10T10:17:56.250Z</time>
      </trkpt>
      <trkpt lat="44.06929" lon="7.45316">
        <ele>2754</ele>
        <time>2013-08-10T10:18:05.330Z</time>
      </trkpt>
      <trkpt lat="44.06931" lon="7.45318">
        <ele>2754</ele>
        <time>2013-08-10T10:18:07.350Z</time>
      </trkpt>
      <trkpt lat="44.06929" lon="7.45334">
        <ele>2749.5499904</ele>
        <time>2013-08-10T10:18:19.230Z</time>
      </trkpt>
      <trkpt lat="44.06925" lon="7.45342">
        <ele>2745</ele>
        <time>2013-08-10T10:18:25.250Z</time>
      </trkpt>
      <trkpt lat="44.06916" lon="7.45351">
        <ele>2741</ele>
        <time>2013-08-10T10:18:35.250Z</time>
      </trkpt>
      <trkpt lat="44.06917" lon="7.45368">
        <ele>2736.6633716067</ele>
        <time>2013-08-10T10:18:44.250Z</time>
      </trkpt>
      <trkpt lat="44.06915" lon="7.45368">
        <ele>2731</ele>
        <time>2013-08-10T10:18:51.250Z</time>
      </trkpt>
      <trkpt lat="44.06908" lon="7.45371">
        <ele>2729</ele>
        <time>2013-08-10T10:19:00.350Z</time>
      </trkpt>
      <trkpt lat="44.06907" lon="7.4538">
        <ele>2728.3200128</ele>
        <time>2013-08-10T10:19:04.250Z</time>
      </trkpt>
      <trkpt lat="44.06904" lon="7.4539">
        <ele>2720</ele>
        <time>2013-08-10T10:19:12.350Z</time>
      </trkpt>
      <trkpt lat="44.06903" lon="7.45396">
        <ele>2720</ele>
        <time>2013-08-10T10:19:18.350Z</time>
      </trkpt>
      <trkpt lat="44.06898" lon="7.45395">
        <ele>2717</ele>
        <time>2013-08-10T10:19:21.330Z</time>
      </trkpt>
      <trkpt lat="44.06895" lon="7.454">
        <ele>2713.7299968</ele>
        <time>2013-08-10T10:19:25.350Z</time>
      </trkpt>
      <trkpt lat="44.06888" lon="7.45392">
        <ele>2711</ele>
        <time>2013-08-10T10:19:30.360Z</time>
      </trkpt>
      <trkpt lat="44.0688" lon="7.45389">
        <ele>2709</ele>
        <time>2013-08-10T10:19:35.250Z</time>
      </trkpt>
      <trkpt lat="44.06875" lon="7.45383">
        <ele>2709</ele>
        <time>2013-08-10T10:19:38.250Z</time>
      </trkpt>
      <trkpt lat="44.06866" lon="7.4537">
        <ele>2705</ele>
        <time>2013-08-10T10:19:48.250Z</time>
      </trkpt>
      <trkpt lat="44.06864" lon="7.45363">
        <ele>2701</ele>
        <time>2013-08-10T10:19:51.250Z</time>
      </trkpt>
      <trkpt lat="44.06857" lon="7.45358">
        <ele>2697.7299968</ele>
        <time>2013-08-10T10:19:56.350Z</time>
      </trkpt>
      <trkpt lat="44.06846" lon="7.45335">
        <ele>2693</ele>
        <time>2013-08-10T10:20:12.350Z</time>
      </trkpt>
      <trkpt lat="44.06844" lon="7.4531">
        <ele>2688</ele>
        <time>2013-08-10T10:20:29.250Z</time>
      </trkpt>
      <trkpt lat="44.06841" lon="7.45305">
        <ele>2685</ele>
        <time>2013-08-10T10:20:35.250Z</time>
      </trkpt>
      <trkpt lat="44.06835" lon="7.45279">
        <ele>2681</ele>
        <time>2013-08-10T10:20:50.200Z</time>
      </trkpt>
      <trkpt lat="44.06834" lon="7.45257">
        <ele>2680</ele>
        <time>2013-08-10T10:21:13.350Z</time>
      </trkpt>
      <trkpt lat="44.06833" lon="7.45255">
        <ele>2676</ele>
        <time>2013-08-10T10:21:15.350Z</time>
      </trkpt>
      <trkpt lat="44.06831" lon="7.45251">
        <ele>2675.4599936</ele>
        <time>2013-08-10T10:21:19.350Z</time>
      </trkpt>
      <trkpt lat="44.06827" lon="7.45257">
        <ele>2673</ele>
        <time>2013-08-10T10:21:27.350Z</time>
      </trkpt>
      <trkpt lat="44.06818" lon="7.45253">
        <ele>2666</ele>
        <time>2013-08-10T10:21:47.350Z</time>
      </trkpt>
      <trkpt lat="44.06815" lon="7.45236">
        <ele>2660.8300032</ele>
        <time>2013-08-10T10:22:04.250Z</time>
      </trkpt>
      <trkpt lat="44.06809" lon="7.45234">
        <ele>2659</ele>
        <time>2013-08-10T10:22:12.350Z</time>
      </trkpt>
      <trkpt lat="44.06804" lon="7.45218">
        <ele>2651</ele>
        <time>2013-08-10T10:22:26.310Z</time>
      </trkpt>
      <trkpt lat="44.06796" lon="7.4523">
        <ele>2647</ele>
        <time>2013-08-10T10:22:36.250Z</time>
      </trkpt>
      <trkpt lat="44.06793" lon="7.45211">
        <ele>2644.4900096</ele>
        <time>2013-08-10T10:22:44.250Z</time>
      </trkpt>
      <trkpt lat="44.06785" lon="7.45197">
        <ele>2637</ele>
        <time>2013-08-10T10:22:56.250Z</time>
      </trkpt>
      <trkpt lat="44.06782" lon="7.45198">
        <ele>2637</ele>
        <time>2013-08-10T10:22:58.230Z</time>
      </trkpt>
      <trkpt lat="44.0678" lon="7.45184">
        <ele>2632</ele>
        <time>2013-08-10T10:23:05.350Z</time>
      </trkpt>
      <trkpt lat="44.06777" lon="7.45174">
        <ele>2632</ele>
        <time>2013-08-10T10:23:08.330Z</time>
      </trkpt>
      <trkpt lat="44.06776" lon="7.45169">
        <ele>2627</ele>
        <time>2013-08-10T10:23:10.350Z</time>
      </trkpt>
      <trkpt lat="44.06777" lon="7.45143">
        <ele>2620.8762882517</ele>
        <time>2013-08-10T10:23:19.230Z</time>
      </trkpt>
      <trkpt lat="44.06774" lon="7.45134">
        <ele>2616</ele>
        <time>2013-08-10T10:23:23.260Z</time>
      </trkpt>
      <trkpt lat="44.06766" lon="7.45127">
        <ele>2613.8300032</ele>
        <time>2013-08-10T10:23:30.250Z</time>
      </trkpt>
      <trkpt lat="44.06763" lon="7.45117">
        <ele>2609.8300032</ele>
        <time>2013-08-10T10:23:35.250Z</time>
      </trkpt>
      <trkpt lat="44.06757" lon="7.45121">
        <ele>2608</ele>
        <time>2013-08-10T10:23:39.250Z</time>
      </trkpt>
      <trkpt lat="44.06738" lon="7.45155">
        <ele>2600</ele>
        <time>2013-08-10T10:23:52.250Z</time>
      </trkpt>
      <trkpt lat="44.06732" lon="7.45138">
        <ele>2597</ele>
        <time>2013-08-10T10:24:00.350Z</time>
      </trkpt>
      <trkpt lat="44.06731" lon="7.451">
        <ele>2592</ele>
        <time>2013-08-10T10:24:28.350Z</time>
      </trkpt>
      <trkpt lat="44.06715" lon="7.45128">
        <ele>2590</ele>
        <time>2013-08-10T10:24:43.250Z</time>
      </trkpt>
      <trkpt lat="44.06714" lon="7.45125">
        <ele>2585</ele>
        <time>2013-08-10T10:24:45.250Z</time>
      </trkpt>
      <trkpt lat="44.06712" lon="7.45113">
        <ele>2584.1584290168</ele>
        <time>2013-08-10T10:24:49.250Z</time>
      </trkpt>
      <trkpt lat="44.06712" lon="7.45109">
        <ele>2580</ele>
        <time>2013-08-10T10:24:50.200Z</time>
      </trkpt>
      <trkpt lat="44.06713" lon="7.45094">
        <ele>2579.4900096</ele>
        <time>2013-08-10T10:24:54.250Z</time>
      </trkpt>
      <trkpt lat="44.06713" lon="7.45089">
        <ele>2576</ele>
        <time>2013-08-10T10:24:56.350Z</time>
      </trkpt>
      <trkpt lat="44.06706" lon="7.45098">
        <ele>2573.8300032</ele>
        <time>2013-08-10T10:25:03.250Z</time>
      </trkpt>
      <trkpt lat="44.06705" lon="7.45091">
        <ele>2572</ele>
        <time>2013-08-10T10:25:06.250Z</time>
      </trkpt>
      <trkpt lat="44.067" lon="7.45099">
        <ele>2572</ele>
        <time>2013-08-10T10:25:11.250Z</time>
      </trkpt>
      <trkpt lat="44.06698" lon="7.45093">
        <ele>2571.150016</ele>
        <time>2013-08-10T10:25:14.250Z</time>
      </trkpt>
      <trkpt lat="44.06697" lon="7.45092">
        <ele>2567</ele>
        <time>2013-08-10T10:25:15.250Z</time>
      </trkpt>
      <trkpt lat="44.06689" lon="7.4511">
        <ele>2564.6600064</ele>
        <time>2013-08-10T10:25:24.250Z</time>
      </trkpt>
      <trkpt lat="44.06685" lon="7.45095">
        <ele>2561</ele>
        <time>2013-08-10T10:25:30.250Z</time>
      </trkpt>
      <trkpt lat="44.06684" lon="7.45068">
        <ele>2557</ele>
        <time>2013-08-10T10:25:43.350Z</time>
      </trkpt>
      <trkpt lat="44.06667" lon="7.45089">
        <ele>2552</ele>
        <time>2013-08-10T10:25:52.250Z</time>
      </trkpt>
      <trkpt lat="44.06663" lon="7.451">
        <ele>2547.8300032</ele>
        <time>2013-08-10T10:25:56.250Z</time>
      </trkpt>
      <trkpt lat="44.0666" lon="7.45086">
        <ele>2544</ele>
        <time>2013-08-10T10:26:02.350Z</time>
      </trkpt>
      <trkpt lat="44.06654" lon="7.451">
        <ele>2541.732669252</ele>
        <time>2013-08-10T10:26:08.350Z</time>
      </trkpt>
      <trkpt lat="44.0665" lon="7.45101">
        <ele>2539.8300032</ele>
        <time>2013-08-10T10:26:11.250Z</time>
      </trkpt>
      <trkpt lat="44.06641" lon="7.45069">
        <ele>2537</ele>
        <time>2013-08-10T10:26:28.350Z</time>
      </trkpt>
      <trkpt lat="44.06637" lon="7.45062">
        <ele>2533</ele>
        <time>2013-08-10T10:26:30.350Z</time>
      </trkpt>
      <trkpt lat="44.06632" lon="7.45046">
        <ele>2532.4900096</ele>
        <time>2013-08-10T10:26:34.250Z</time>
      </trkpt>
      <trkpt lat="44.06634" lon="7.4503">
        <ele>2527.8300032</ele>
        <time>2013-08-10T10:26:38.250Z</time>
      </trkpt>
      <trkpt lat="44.06631" lon="7.45012">
        <ele>2525</ele>
        <time>2013-08-10T10:26:44.250Z</time>
      </trkpt>
      <trkpt lat="44.0662" lon="7.45012">
        <ele>2525</ele>
        <time>2013-08-10T10:26:48.330Z</time>
      </trkpt>
      <trkpt lat="44.06615" lon="7.45005">
        <ele>2523</ele>
        <time>2013-08-10T10:26:52.350Z</time>
      </trkpt>
      <trkpt lat="44.06618" lon="7.44994">
        <ele>2516.2200064</ele>
        <time>2013-08-10T10:26:58.310Z</time>
      </trkpt>
      <trkpt lat="44.066" lon="7.4502">
        <ele>2513</ele>
        <time>2013-08-10T10:27:08.350Z</time>
      </trkpt>
      <trkpt lat="44.06595" lon="7.45017">
        <ele>2511</ele>
        <time>2013-08-10T10:27:13.350Z</time>
      </trkpt>
      <trkpt lat="44.06593" lon="7.45006">
        <ele>2504</ele>
        <time>2013-08-10T10:27:18.350Z</time>
      </trkpt>
      <trkpt lat="44.06589" lon="7.45013">
        <ele>2504</ele>
        <time>2013-08-10T10:27:22.350Z</time>
      </trkpt>
      <trkpt lat="44.06584" lon="7.45042">
        <ele>2501</ele>
        <time>2013-08-10T10:27:33.200Z</time>
      </trkpt>
      <trkpt lat="44.0658" lon="7.45038">
        <ele>2501</ele>
        <time>2013-08-10T10:27:38.250Z</time>
      </trkpt>
      <trkpt lat="44.06581" lon="7.45024">
        <ele>2501</ele>
        <time>2013-08-10T10:27:43.250Z</time>
      </trkpt>
      <trkpt lat="44.06581" lon="7.4502">
        <ele>2498</ele>
        <time>2013-08-10T10:27:47.250Z</time>
      </trkpt>
      <trkpt lat="44.06578" lon="7.45028">
        <ele>2495</ele>
        <time>2013-08-10T10:27:52.250Z</time>
      </trkpt>
      <trkpt lat="44.06572" lon="7.45022">
        <ele>2492</ele>
        <time>2013-08-10T10:28:01.250Z</time>
      </trkpt>
      <trkpt lat="44.06564" lon="7.45038">
        <ele>2486</ele>
        <time>2013-08-10T10:28:11.250Z</time>
      </trkpt>
      <trkpt lat="44.06552" lon="7.45024">
        <ele>2480</ele>
        <time>2013-08-10T10:28:17.350Z</time>
      </trkpt>
      <trkpt lat="44.06543" lon="7.45037">
        <ele>2476</ele>
        <time>2013-08-10T10:28:24.250Z</time>
      </trkpt>
      <trkpt lat="44.06546" lon="7.45037">
        <ele>2476.2700032</ele>
        <time>2013-08-10T10:28:34.350Z</time>
      </trkpt>
      <trkpt lat="44.06543" lon="7.45036">
        <ele>2477</ele>
        <time>2013-08-10T10:28:39.350Z</time>
      </trkpt>
      <trkpt lat="44.06539" lon="7.4502">
        <ele>2474.4900096</ele>
        <time>2013-08-10T10:29:04.250Z</time>
      </trkpt>
      <trkpt lat="44.06539" lon="7.45022">
        <ele>2472</ele>
        <time>2013-08-10T10:29:05.250Z</time>
      </trkpt>
      <trkpt lat="44.06535" lon="7.45029">
        <ele>2471.7299968</ele>
        <time>2013-08-10T10:29:09.350Z</time>
      </trkpt>
      <trkpt lat="44.06534" lon="7.4504">
        <ele>2469</ele>
        <time>2013-08-10T10:29:15.350Z</time>
      </trkpt>
      <trkpt lat="44.06529" lon="7.45033">
        <ele>2466</ele>
        <time>2013-08-10T10:29:26.250Z</time>
      </trkpt>
      <trkpt lat="44.06525" lon="7.45038">
        <ele>2464</ele>
        <time>2013-08-10T10:29:30.250Z</time>
      </trkpt>
      <trkpt lat="44.06515" lon="7.45027">
        <ele>2460.4900096</ele>
        <time>2013-08-10T10:29:39.250Z</time>
      </trkpt>
      <trkpt lat="44.06515" lon="7.45042">
        <ele>2456</ele>
        <time>2013-08-10T10:29:46.250Z</time>
      </trkpt>
      <trkpt lat="44.06508" lon="7.45037">
        <ele>2453</ele>
        <time>2013-08-10T10:29:52.250Z</time>
      </trkpt>
      <trkpt lat="44.06507" lon="7.45046">
        <ele>2451</ele>
        <time>2013-08-10T10:29:55.350Z</time>
      </trkpt>
      <trkpt lat="44.06513" lon="7.45072">
        <ele>2449.9901148202</ele>
        <time>2013-08-10T10:30:04.250Z</time>
      </trkpt>
      <trkpt lat="44.06514" lon="7.45074">
        <ele>2444.8787882706</ele>
        <time>2013-08-10T10:30:05.210Z</time>
      </trkpt>
      <trkpt lat="44.06511" lon="7.45067">
        <ele>2441.1699968</ele>
        <time>2013-08-10T10:30:09.250Z</time>
      </trkpt>
      <trkpt lat="44.06497" lon="7.45059">
        <ele>2438</ele>
        <time>2013-08-10T10:30:18.230Z</time>
      </trkpt>
      <trkpt lat="44.06498" lon="7.45063">
        <ele>2437</ele>
        <time>2013-08-10T10:30:26.250Z</time>
      </trkpt>
      <trkpt lat="44.06494" lon="7.45064">
        <ele>2437</ele>
        <time>2013-08-10T10:30:28.250Z</time>
      </trkpt>
      <trkpt lat="44.06487" lon="7.45056">
        <ele>2437</ele>
        <time>2013-08-10T10:30:33.200Z</time>
      </trkpt>
      <trkpt lat="44.06483" lon="7.45051">
        <ele>2433</ele>
        <time>2013-08-10T10:30:35.250Z</time>
      </trkpt>
      <trkpt lat="44.06477" lon="7.45047">
        <ele>2432.3939413529</ele>
        <time>2013-08-10T10:30:39.210Z</time>
      </trkpt>
      <trkpt lat="44.06476" lon="7.45046">
        <ele>2428</ele>
        <time>2013-08-10T10:30:41.250Z</time>
      </trkpt>
      <trkpt lat="44.06466" lon="7.4505">
        <ele>2422.8300032</ele>
        <time>2013-08-10T10:30:51.250Z</time>
      </trkpt>
      <trkpt lat="44.0646" lon="7.45046">
        <ele>2420.8200064</ele>
        <time>2013-08-10T10:30:54.260Z</time>
      </trkpt>
      <trkpt lat="44.06446" lon="7.45046">
        <ele>2415.7878827058</ele>
        <time>2013-08-10T10:30:59.300Z</time>
      </trkpt>
      <trkpt lat="44.06436" lon="7.45036">
        <ele>2412.7299968</ele>
        <time>2013-08-10T10:31:05.350Z</time>
      </trkpt>
      <trkpt lat="44.0644" lon="7.4506">
        <ele>2407.7299968</ele>
        <time>2013-08-10T10:31:14.350Z</time>
      </trkpt>
      <trkpt lat="44.0643" lon="7.45058">
        <ele>2405.2700032</ele>
        <time>2013-08-10T10:31:20.350Z</time>
      </trkpt>
      <trkpt lat="44.06442" lon="7.45083">
        <ele>2404</ele>
        <time>2013-08-10T10:31:28.350Z</time>
      </trkpt>
      <trkpt lat="44.06441" lon="7.45088">
        <ele>2401</ele>
        <time>2013-08-10T10:31:30.310Z</time>
      </trkpt>
      <trkpt lat="44.06435" lon="7.45088">
        <ele>2401</ele>
        <time>2013-08-10T10:31:33.300Z</time>
      </trkpt>
      <trkpt lat="44.06432" lon="7.45092">
        <ele>2395</ele>
        <time>2013-08-10T10:31:38.350Z</time>
      </trkpt>
      <trkpt lat="44.06428" lon="7.45086">
        <ele>2393</ele>
        <time>2013-08-10T10:31:43.350Z</time>
      </trkpt>
      <trkpt lat="44.06424" lon="7.45088">
        <ele>2393</ele>
        <time>2013-08-10T10:31:48.350Z</time>
      </trkpt>
      <trkpt lat="44.06423" lon="7.4509">
        <ele>2391</ele>
        <time>2013-08-10T10:31:51.250Z</time>
      </trkpt>
      <trkpt lat="44.06429" lon="7.45097">
        <ele>2389.6363648117</ele>
        <time>2013-08-10T10:31:59.210Z</time>
      </trkpt>
      <trkpt lat="44.0643" lon="7.45099">
        <ele>2387</ele>
        <time>2013-08-10T10:32:00.250Z</time>
      </trkpt>
      <trkpt lat="44.06425" lon="7.45101">
        <ele>2387</ele>
        <time>2013-08-10T10:32:03.250Z</time>
      </trkpt>
      <trkpt lat="44.06413" lon="7.45095">
        <ele>2384.4599936</ele>
        <time>2013-08-10T10:32:09.350Z</time>
      </trkpt>
      <trkpt lat="44.06422" lon="7.45111">
        <ele>2380.7299968</ele>
        <time>2013-08-10T10:32:19.350Z</time>
      </trkpt>
      <trkpt lat="44.06412" lon="7.45112">
        <ele>2378.9199872</ele>
        <time>2013-08-10T10:32:24.350Z</time>
      </trkpt>
      <trkpt lat="44.06412" lon="7.45114">
        <ele>2376</ele>
        <time>2013-08-10T10:32:25.350Z</time>
      </trkpt>
      <trkpt lat="44.06413" lon="7.45123">
        <ele>2376</ele>
        <time>2013-08-10T10:32:28.350Z</time>
      </trkpt>
      <trkpt lat="44.06408" lon="7.45143">
        <ele>2373</ele>
        <time>2013-08-10T10:32:33.200Z</time>
      </trkpt>
      <trkpt lat="44.06394" lon="7.45159">
        <ele>2366</ele>
        <time>2013-08-10T10:32:40.350Z</time>
      </trkpt>
      <trkpt lat="44.06387" lon="7.45159">
        <ele>2366</ele>
        <time>2013-08-10T10:32:42.250Z</time>
      </trkpt>
      <trkpt lat="44.06373" lon="7.45143">
        <ele>2361.8300032</ele>
        <time>2013-08-10T10:32:48.250Z</time>
      </trkpt>
      <trkpt lat="44.06369" lon="7.4513">
        <ele>2361</ele>
        <time>2013-08-10T10:32:52.350Z</time>
      </trkpt>
      <trkpt lat="44.06369" lon="7.4512">
        <ele>2358</ele>
        <time>2013-08-10T10:33:02.230Z</time>
      </trkpt>
      <trkpt lat="44.06361" lon="7.45128">
        <ele>2357</ele>
        <time>2013-08-10T10:33:07.250Z</time>
      </trkpt>
      <trkpt lat="44.06346" lon="7.45132">
        <ele>2356.150016</ele>
        <time>2013-08-10T10:33:14.250Z</time>
      </trkpt>
      <trkpt lat="44.06345" lon="7.45132">
        <ele>2352</ele>
        <time>2013-08-10T10:33:15.250Z</time>
      </trkpt>
      <trkpt lat="44.06342" lon="7.45125">
        <ele>2351.150016</ele>
        <time>2013-08-10T10:33:19.250Z</time>
      </trkpt>
      <trkpt lat="44.06343" lon="7.45121">
        <ele>2347</ele>
        <time>2013-08-10T10:33:20.250Z</time>
      </trkpt>
      <trkpt lat="44.06348" lon="7.45109">
        <ele>2346.4900096</ele>
        <time>2013-08-10T10:33:24.250Z</time>
      </trkpt>
      <trkpt lat="44.06349" lon="7.45102">
        <ele>2341</ele>
        <time>2013-08-10T10:33:27.250Z</time>
      </trkpt>
      <trkpt lat="44.06346" lon="7.45093">
        <ele>2338</ele>
        <time>2013-08-10T10:33:32.250Z</time>
      </trkpt>
      <trkpt lat="44.06343" lon="7.45088">
        <ele>2337</ele>
        <time>2013-08-10T10:33:35.250Z</time>
      </trkpt>
      <trkpt lat="44.06325" lon="7.45097">
        <ele>2329</ele>
        <time>2013-08-10T10:33:56.350Z</time>
      </trkpt>
      <trkpt lat="44.06323" lon="7.4508">
        <ele>2326</ele>
        <time>2013-08-10T10:34:03.210Z</time>
      </trkpt>
      <trkpt lat="44.06321" lon="7.45077">
        <ele>2320.8300032</ele>
        <time>2013-08-10T10:34:05.250Z</time>
      </trkpt>
      <trkpt lat="44.06317" lon="7.45069">
        <ele>2318</ele>
        <time>2013-08-10T10:34:09.250Z</time>
      </trkpt>
      <trkpt lat="44.06309" lon="7.45084">
        <ele>2313.7299968</ele>
        <time>2013-08-10T10:34:18.350Z</time>
      </trkpt>
      <trkpt lat="44.06305" lon="7.4507">
        <ele>2311</ele>
        <time>2013-08-10T10:34:22.350Z</time>
      </trkpt>
      <trkpt lat="44.06307" lon="7.45062">
        <ele>2310</ele>
        <time>2013-08-10T10:34:26.350Z</time>
      </trkpt>
      <trkpt lat="44.06303" lon="7.45069">
        <ele>2309.1899904</ele>
        <time>2013-08-10T10:34:34.350Z</time>
      </trkpt>
      <trkpt lat="44.06304" lon="7.45076">
        <ele>2307</ele>
        <time>2013-08-10T10:34:40.250Z</time>
      </trkpt>
      <trkpt lat="44.06302" lon="7.45076">
        <ele>2307</ele>
        <time>2013-08-10T10:34:44.250Z</time>
      </trkpt>
      <trkpt lat="44.06296" lon="7.45091">
        <ele>2306</ele>
        <time>2013-08-10T10:35:03.350Z</time>
      </trkpt>
      <trkpt lat="44.06288" lon="7.45079">
        <ele>2301</ele>
        <time>2013-08-10T10:36:08.350Z</time>
      </trkpt>
      <trkpt lat="44.06284" lon="7.45088">
        <ele>2301</ele>
        <time>2013-08-10T10:36:13.350Z</time>
      </trkpt>
      <trkpt lat="44.0628" lon="7.45094">
        <ele>2297</ele>
        <time>2013-08-10T10:36:17.350Z</time>
      </trkpt>
      <trkpt lat="44.06281" lon="7.45093">
        <ele>2294</ele>
        <time>2013-08-10T10:36:21.350Z</time>
      </trkpt>
      <trkpt lat="44.06271" lon="7.4512">
        <ele>2292</ele>
        <time>2013-08-10T10:38:45.250Z</time>
      </trkpt>
      <trkpt lat="44.06269" lon="7.45143">
        <ele>2291.4900096</ele>
        <time>2013-08-10T10:38:54.250Z</time>
      </trkpt>
      <trkpt lat="44.06265" lon="7.45151">
        <ele>2289</ele>
        <time>2013-08-10T10:38:58.250Z</time>
      </trkpt>
      <trkpt lat="44.06258" lon="7.45176">
        <ele>2277.7299968</ele>
        <time>2013-08-10T10:39:12.350Z</time>
      </trkpt>
      <trkpt lat="44.06245" lon="7.4518">
        <ele>2271</ele>
        <time>2013-08-10T10:39:24.350Z</time>
      </trkpt>
      <trkpt lat="44.06242" lon="7.45209">
        <ele>2266</ele>
        <time>2013-08-10T10:39:35.250Z</time>
      </trkpt>
      <trkpt lat="44.06248" lon="7.45262">
        <ele>2254</ele>
        <time>2013-08-10T10:39:54.250Z</time>
      </trkpt>
      <trkpt lat="44.06247" lon="7.45279">
        <ele>2253</ele>
        <time>2013-08-10T10:39:59.300Z</time>
      </trkpt>
      <trkpt lat="44.06237" lon="7.45306">
        <ele>2250</ele>
        <time>2013-08-10T10:40:08.250Z</time>
      </trkpt>
      <trkpt lat="44.06234" lon="7.45309">
        <ele>2249</ele>
        <time>2013-08-10T10:40:10.250Z</time>
      </trkpt>
      <trkpt lat="44.06226" lon="7.45269">
        <ele>2248</ele>
        <time>2013-08-10T10:40:23.350Z</time>
      </trkpt>
      <trkpt lat="44.06224" lon="7.45262">
        <ele>2244</ele>
        <time>2013-08-10T10:40:26.350Z</time>
      </trkpt>
      <trkpt lat="44.06217" lon="7.45257">
        <ele>2242.5000192</ele>
        <time>2013-08-10T10:40:29.330Z</time>
      </trkpt>
      <trkpt lat="44.06216" lon="7.45259">
        <ele>2238</ele>
        <time>2013-08-10T10:40:31.250Z</time>
      </trkpt>
      <trkpt lat="44.06217" lon="7.45274">
        <ele>2235.6300032</ele>
        <time>2013-08-10T10:40:35.450Z</time>
      </trkpt>
      <trkpt lat="44.06209" lon="7.45301">
        <ele>2232.8316858034</ele>
        <time>2013-08-10T10:40:43.250Z</time>
      </trkpt>
      <trkpt lat="44.06202" lon="7.45315">
        <ele>2230.8316858034</ele>
        <time>2013-08-10T10:40:49.250Z</time>
      </trkpt>
      <trkpt lat="44.06192" lon="7.45325">
        <ele>2229.4900096</ele>
        <time>2013-08-10T10:40:54.250Z</time>
      </trkpt>
      <trkpt lat="44.06191" lon="7.45324">
        <ele>2227</ele>
        <time>2013-08-10T10:40:55.250Z</time>
      </trkpt>
      <trkpt lat="44.06194" lon="7.45306">
        <ele>2224</ele>
        <time>2013-08-10T10:41:01.350Z</time>
      </trkpt>
      <trkpt lat="44.06188" lon="7.45269">
        <ele>2217</ele>
        <time>2013-08-10T10:41:13.370Z</time>
      </trkpt>
      <trkpt lat="44.0618" lon="7.45298">
        <ele>2213</ele>
        <time>2013-08-10T10:41:25.310Z</time>
      </trkpt>
      <trkpt lat="44.06177" lon="7.45302">
        <ele>2213</ele>
        <time>2013-08-10T10:41:28.250Z</time>
      </trkpt>
      <trkpt lat="44.06175" lon="7.45297">
        <ele>2209</ele>
        <time>2013-08-10T10:41:31.250Z</time>
      </trkpt>
      <trkpt lat="44.06173" lon="7.45301">
        <ele>2208.4900096</ele>
        <time>2013-08-10T10:41:34.250Z</time>
      </trkpt>
      <trkpt lat="44.06172" lon="7.45299">
        <ele>2205</ele>
        <time>2013-08-10T10:41:36.250Z</time>
      </trkpt>
      <trkpt lat="44.06168" lon="7.45278">
        <ele>2202</ele>
        <time>2013-08-10T10:41:43.350Z</time>
      </trkpt>
      <trkpt lat="44.06169" lon="7.45254">
        <ele>2202</ele>
        <time>2013-08-10T10:41:50.300Z</time>
      </trkpt>
      <trkpt lat="44.06166" lon="7.45246">
        <ele>2201</ele>
        <time>2013-08-10T10:41:56.350Z</time>
      </trkpt>
      <trkpt lat="44.06145" lon="7.45297">
        <ele>2187.8300032</ele>
        <time>2013-08-10T10:42:23.250Z</time>
      </trkpt>
      <trkpt lat="44.06129" lon="7.45317">
        <ele>2184.1899904</ele>
        <time>2013-08-10T10:42:34.350Z</time>
      </trkpt>
      <trkpt lat="44.06116" lon="7.45326">
        <ele>2179</ele>
        <time>2013-08-10T10:42:40.350Z</time>
      </trkpt>
      <trkpt lat="44.06108" lon="7.45343">
        <ele>2177</ele>
        <time>2013-08-10T10:42:46.350Z</time>
      </trkpt>
      <trkpt lat="44.06102" lon="7.45348">
        <ele>2176.5486797839</ele>
        <time>2013-08-10T10:42:49.250Z</time>
      </trkpt>
      <trkpt lat="44.06092" lon="7.4538">
        <ele>2168</ele>
        <time>2013-08-10T10:43:01.350Z</time>
      </trkpt>
      <trkpt lat="44.06088" lon="7.45381">
        <ele>2167</ele>
        <time>2013-08-10T10:43:05.350Z</time>
      </trkpt>
      <trkpt lat="44.06092" lon="7.45377">
        <ele>2166</ele>
        <time>2013-08-10T10:43:14.350Z</time>
      </trkpt>
      <trkpt lat="44.06095" lon="7.45376">
        <ele>2166</ele>
        <time>2013-08-10T10:43:20.350Z</time>
      </trkpt>
      <trkpt lat="44.0609" lon="7.45398">
        <ele>2165</ele>
        <time>2013-08-10T10:43:27.350Z</time>
      </trkpt>
      <trkpt lat="44.06067" lon="7.45451">
        <ele>2163</ele>
        <time>2013-08-10T10:43:42.350Z</time>
      </trkpt>
      <trkpt lat="44.06062" lon="7.45465">
        <ele>2158</ele>
        <time>2013-08-10T10:43:45.380Z</time>
      </trkpt>
      <trkpt lat="44.06059" lon="7.45484">
        <ele>2157.1980077561</ele>
        <time>2013-08-10T10:43:49.350Z</time>
      </trkpt>
      <trkpt lat="44.06049" lon="7.45505">
        <ele>2154</ele>
        <time>2013-08-10T10:43:55.250Z</time>
      </trkpt>
      <trkpt lat="44.06013" lon="7.45573">
        <ele>2151.4950574101</ele>
        <time>2013-08-10T10:44:14.250Z</time>
      </trkpt>
      <trkpt lat="44.05999" lon="7.45593">
        <ele>2146</ele>
        <time>2013-08-10T10:44:21.350Z</time>
      </trkpt>
      <trkpt lat="44.05988" lon="7.45598">
        <ele>2144</ele>
        <time>2013-08-10T10:44:27.350Z</time>
      </trkpt>
      <trkpt lat="44.05987" lon="7.45592">
        <ele>2140</ele>
        <time>2013-08-10T10:44:30.350Z</time>
      </trkpt>
      <trkpt lat="44.05991" lon="7.45578">
        <ele>2139.4900096</ele>
        <time>2013-08-10T10:44:34.250Z</time>
      </trkpt>
      <trkpt lat="44.05994" lon="7.45557">
        <ele>2133.1699968</ele>
        <time>2013-08-10T10:44:40.250Z</time>
      </trkpt>
      <trkpt lat="44.05979" lon="7.45569">
        <ele>2129.6600064</ele>
        <time>2013-08-10T10:44:47.250Z</time>
      </trkpt>
      <trkpt lat="44.05966" lon="7.45576">
        <ele>2124</ele>
        <time>2013-08-10T10:44:52.250Z</time>
      </trkpt>
      <trkpt lat="44.05946" lon="7.45569">
        <ele>2117.4900096</ele>
        <time>2013-08-10T10:45:03.250Z</time>
      </trkpt>
      <trkpt lat="44.05944" lon="7.45551">
        <ele>2111.8300032</ele>
        <time>2013-08-10T10:45:09.250Z</time>
      </trkpt>
      <trkpt lat="44.0594" lon="7.45543">
        <ele>2108.1699968</ele>
        <time>2013-08-10T10:45:12.250Z</time>
      </trkpt>
      <trkpt lat="44.05923" lon="7.45544">
        <ele>2103.8300032</ele>
        <time>2013-08-10T10:45:19.250Z</time>
      </trkpt>
      <trkpt lat="44.05915" lon="7.45553">
        <ele>2103.7299968</ele>
        <time>2013-08-10T10:45:29.350Z</time>
      </trkpt>
      <trkpt lat="44.05912" lon="7.45551">
        <ele>2103</ele>
        <time>2013-08-10T10:45:31.350Z</time>
      </trkpt>
      <trkpt lat="44.05911" lon="7.45519">
        <ele>2098</ele>
        <time>2013-08-10T10:45:40.210Z</time>
      </trkpt>
      <trkpt lat="44.05905" lon="7.45499">
        <ele>2097</ele>
        <time>2013-08-10T10:45:45.250Z</time>
      </trkpt>
      <trkpt lat="44.05893" lon="7.45496">
        <ele>2096</ele>
        <time>2013-08-10T10:45:54.350Z</time>
      </trkpt>
      <trkpt lat="44.05885" lon="7.45505">
        <ele>2096</ele>
        <time>2013-08-10T10:46:02.250Z</time>
      </trkpt>
      <trkpt lat="44.05882" lon="7.45499">
        <ele>2095.3200128</ele>
        <time>2013-08-10T10:46:04.250Z</time>
      </trkpt>
      <trkpt lat="44.05882" lon="7.45496">
        <ele>2092</ele>
        <time>2013-08-10T10:46:05.250Z</time>
      </trkpt>
      <trkpt lat="44.05882" lon="7.45487">
        <ele>2091.5757395532</ele>
        <time>2013-08-10T10:46:09.230Z</time>
      </trkpt>
      <trkpt lat="44.05878" lon="7.4548">
        <ele>2087</ele>
        <time>2013-08-10T10:46:22.250Z</time>
      </trkpt>
      <trkpt lat="44.05882" lon="7.4546">
        <ele>2087</ele>
        <time>2013-08-10T10:46:31.230Z</time>
      </trkpt>
      <trkpt lat="44.05881" lon="7.45442">
        <ele>2087</ele>
        <time>2013-08-10T10:46:37.250Z</time>
      </trkpt>
      <trkpt lat="44.0587" lon="7.45432">
        <ele>2087</ele>
        <time>2013-08-10T10:46:43.250Z</time>
      </trkpt>
      <trkpt lat="44.05865" lon="7.45429">
        <ele>2084</ele>
        <time>2013-08-10T10:46:45.250Z</time>
      </trkpt>
      <trkpt lat="44.05847" lon="7.45429">
        <ele>2082</ele>
        <time>2013-08-10T10:46:51.250Z</time>
      </trkpt>
      <trkpt lat="44.05834" lon="7.45417">
        <ele>2082</ele>
        <time>2013-08-10T10:47:00.340Z</time>
      </trkpt>
      <trkpt lat="44.05831" lon="7.45411">
        <ele>2082</ele>
        <time>2013-08-10T10:47:03.350Z</time>
      </trkpt>
      <trkpt lat="44.05831" lon="7.45396">
        <ele>2083</ele>
        <time>2013-08-10T10:47:08.350Z</time>
      </trkpt>
      <trkpt lat="44.05819" lon="7.45381">
        <ele>2085</ele>
        <time>2013-08-10T10:47:16.310Z</time>
      </trkpt>
      <trkpt lat="44.05817" lon="7.45362">
        <ele>2085</ele>
        <time>2013-08-10T10:47:23.250Z</time>
      </trkpt>
      <trkpt lat="44.05802" lon="7.45344">
        <ele>2089</ele>
        <time>2013-08-10T10:47:37.250Z</time>
      </trkpt>
      <trkpt lat="44.05801" lon="7.45335">
        <ele>2092</ele>
        <time>2013-08-10T10:47:45.250Z</time>
      </trkpt>
      <trkpt lat="44.05796" lon="7.45323">
        <ele>2092.2700032</ele>
        <time>2013-08-10T10:47:54.350Z</time>
      </trkpt>
      <trkpt lat="44.05786" lon="7.45321">
        <ele>2093</ele>
        <time>2013-08-10T10:48:02.250Z</time>
      </trkpt>
      <trkpt lat="44.05772" lon="7.45339">
        <ele>2095</ele>
        <time>2013-08-10T10:48:19.350Z</time>
      </trkpt>
      <trkpt lat="44.05766" lon="7.45337">
        <ele>2095</ele>
        <time>2013-08-10T10:48:22.350Z</time>
      </trkpt>
      <trkpt lat="44.0576" lon="7.45325">
        <ele>2095</ele>
        <time>2013-08-10T10:48:33.310Z</time>
      </trkpt>
      <trkpt lat="44.05759" lon="7.45305">
        <ele>2094.3366283933</ele>
        <time>2013-08-10T10:48:44.250Z</time>
      </trkpt>
      <trkpt lat="44.05754" lon="7.45262">
        <ele>2099</ele>
        <time>2013-08-10T10:49:10.250Z</time>
      </trkpt>
      <trkpt lat="44.05746" lon="7.45241">
        <ele>2100</ele>
        <time>2013-08-10T10:49:24.350Z</time>
      </trkpt>
      <trkpt lat="44.05739" lon="7.45232">
        <ele>2100</ele>
        <time>2013-08-10T10:49:32.250Z</time>
      </trkpt>
      <trkpt lat="44.05739" lon="7.45209">
        <ele>2102</ele>
        <time>2013-08-10T10:49:47.350Z</time>
      </trkpt>
      <trkpt lat="44.05741" lon="7.45216">
        <ele>2102</ele>
        <time>2013-08-10T10:51:58.360Z</time>
      </trkpt>
      <trkpt lat="44.05736" lon="7.4521">
        <ele>2103</ele>
        <time>2013-08-10T10:52:20.350Z</time>
      </trkpt>
      <trkpt lat="44.05741" lon="7.45167">
        <ele>2103</ele>
        <time>2013-08-10T11:45:50.110Z</time>
      </trkpt>
      <trkpt lat="44.05736" lon="7.45168">
        <ele>2103</ele>
        <time>2013-08-10T11:46:12.160Z</time>
      </trkpt>
      <trkpt lat="44.0573" lon="7.45161">
        <ele>2103</ele>
        <time>2013-08-10T11:46:21.150Z</time>
      </trkpt>
      <trkpt lat="44.05725" lon="7.45147">
        <ele>2103</ele>
        <time>2013-08-10T11:46:39.150Z</time>
      </trkpt>
      <trkpt lat="44.05716" lon="7.45142">
        <ele>2103.350016</ele>
        <time>2013-08-10T11:47:04.150Z</time>
      </trkpt>
      <trkpt lat="44.05714" lon="7.45141">
        <ele>2108</ele>
        <time>2013-08-10T11:47:06.150Z</time>
      </trkpt>
      <trkpt lat="44.05698" lon="7.45149">
        <ele>2111</ele>
        <time>2013-08-10T11:47:24.230Z</time>
      </trkpt>
      <trkpt lat="44.05699" lon="7.4514">
        <ele>2111</ele>
        <time>2013-08-10T11:47:32.260Z</time>
      </trkpt>
      <trkpt lat="44.05691" lon="7.45124">
        <ele>2116</ele>
        <time>2013-08-10T11:48:00.240Z</time>
      </trkpt>
      <trkpt lat="44.05687" lon="7.45112">
        <ele>2116</ele>
        <time>2013-08-10T11:48:07.210Z</time>
      </trkpt>
      <trkpt lat="44.05685" lon="7.45097">
        <ele>2115</ele>
        <time>2013-08-10T11:49:06.250Z</time>
      </trkpt>
      <trkpt lat="44.05691" lon="7.45051">
        <ele>2114</ele>
        <time>2013-08-10T11:49:30.380Z</time>
      </trkpt>
      <trkpt lat="44.05698" lon="7.45032">
        <ele>2115</ele>
        <time>2013-08-10T11:49:42.150Z</time>
      </trkpt>
      <trkpt lat="44.057" lon="7.45014">
        <ele>2114.0700032</ele>
        <time>2013-08-10T11:49:54.150Z</time>
      </trkpt>
      <trkpt lat="44.05696" lon="7.44999">
        <ele>2115</ele>
        <time>2013-08-10T11:50:02.250Z</time>
      </trkpt>
      <trkpt lat="44.057" lon="7.44994">
        <ele>2116</ele>
        <time>2013-08-10T11:50:06.110Z</time>
      </trkpt>
      <trkpt lat="44.057" lon="7.44983">
        <ele>2116.1400064</ele>
        <time>2013-08-10T11:50:14.150Z</time>
      </trkpt>
      <trkpt lat="44.05697" lon="7.44972">
        <ele>2118</ele>
        <time>2013-08-10T11:50:21.150Z</time>
      </trkpt>
      <trkpt lat="44.057" lon="7.44961">
        <ele>2120</ele>
        <time>2013-08-10T11:50:30.250Z</time>
      </trkpt>
      <trkpt lat="44.05696" lon="7.44969">
        <ele>2122</ele>
        <time>2013-08-10T11:50:37.150Z</time>
      </trkpt>
      <trkpt lat="44.05694" lon="7.44968">
        <ele>2122</ele>
        <time>2013-08-10T11:50:40.110Z</time>
      </trkpt>
      <trkpt lat="44.057" lon="7.44954">
        <ele>2124</ele>
        <time>2013-08-10T11:50:48.350Z</time>
      </trkpt>
      <trkpt lat="44.05699" lon="7.44925">
        <ele>2124</ele>
        <time>2013-08-10T11:51:00.340Z</time>
      </trkpt>
      <trkpt lat="44.05706" lon="7.44907">
        <ele>2125</ele>
        <time>2013-08-10T11:51:10.250Z</time>
      </trkpt>
      <trkpt lat="44.05702" lon="7.44831">
        <ele>2128</ele>
        <time>2013-08-10T11:51:37.150Z</time>
      </trkpt>
      <trkpt lat="44.05707" lon="7.44803">
        <ele>2132</ele>
        <time>2013-08-10T11:51:56.150Z</time>
      </trkpt>
      <trkpt lat="44.05703" lon="7.44792">
        <ele>2132</ele>
        <time>2013-08-10T11:52:02.250Z</time>
      </trkpt>
      <trkpt lat="44.05704" lon="7.44786">
        <ele>2134</ele>
        <time>2013-08-10T11:52:05.100Z</time>
      </trkpt>
      <trkpt lat="44.05701" lon="7.44767">
        <ele>2134</ele>
        <time>2013-08-10T11:52:12.150Z</time>
      </trkpt>
      <trkpt lat="44.05704" lon="7.44751">
        <ele>2137</ele>
        <time>2013-08-10T11:52:17.210Z</time>
      </trkpt>
      <trkpt lat="44.05706" lon="7.44712">
        <ele>2139</ele>
        <time>2013-08-10T11:52:32.250Z</time>
      </trkpt>
      <trkpt lat="44.05718" lon="7.44666">
        <ele>2142</ele>
        <time>2013-08-10T11:52:50.090Z</time>
      </trkpt>
      <trkpt lat="44.0572" lon="7.44643">
        <ele>2144</ele>
        <time>2013-08-10T11:52:58.390Z</time>
      </trkpt>
      <trkpt lat="44.05727" lon="7.4463">
        <ele>2144</ele>
        <time>2013-08-10T11:53:03.350Z</time>
      </trkpt>
      <trkpt lat="44.05728" lon="7.44609">
        <ele>2145</ele>
        <time>2013-08-10T11:53:10.350Z</time>
      </trkpt>
      <trkpt lat="44.0575" lon="7.44552">
        <ele>2146</ele>
        <time>2013-08-10T11:53:31.250Z</time>
      </trkpt>
      <trkpt lat="44.05752" lon="7.44537">
        <ele>2148</ele>
        <time>2013-08-10T11:53:37.250Z</time>
      </trkpt>
      <trkpt lat="44.05762" lon="7.44506">
        <ele>2149</ele>
        <time>2013-08-10T11:53:48.230Z</time>
      </trkpt>
      <trkpt lat="44.05768" lon="7.44496">
        <ele>2149</ele>
        <time>2013-08-10T11:53:53.350Z</time>
      </trkpt>
      <trkpt lat="44.05772" lon="7.44464">
        <ele>2149</ele>
        <time>2013-08-10T11:54:04.330Z</time>
      </trkpt>
      <trkpt lat="44.05784" lon="7.44442">
        <ele>2149</ele>
        <time>2013-08-10T11:54:11.150Z</time>
      </trkpt>
      <trkpt lat="44.05789" lon="7.44411">
        <ele>2150</ele>
        <time>2013-08-10T11:54:20.460Z</time>
      </trkpt>
      <trkpt lat="44.05801" lon="7.44387">
        <ele>2150</ele>
        <time>2013-08-10T11:54:30.150Z</time>
      </trkpt>
      <trkpt lat="44.05804" lon="7.44365">
        <ele>2150</ele>
        <time>2013-08-10T11:54:37.150Z</time>
      </trkpt>
      <trkpt lat="44.05808" lon="7.44352">
        <ele>2150</ele>
        <time>2013-08-10T11:54:41.150Z</time>
      </trkpt>
      <trkpt lat="44.05807" lon="7.44333">
        <ele>2151</ele>
        <time>2013-08-10T11:54:47.250Z</time>
      </trkpt>
      <trkpt lat="44.05824" lon="7.44305">
        <ele>2152</ele>
        <time>2013-08-10T11:54:59.200Z</time>
      </trkpt>
      <trkpt lat="44.05817" lon="7.44269">
        <ele>2153.1400064</ele>
        <time>2013-08-10T11:55:14.150Z</time>
      </trkpt>
      <trkpt lat="44.05822" lon="7.44224">
        <ele>2157</ele>
        <time>2013-08-10T11:55:32.360Z</time>
      </trkpt>
      <trkpt lat="44.05825" lon="7.4422">
        <ele>2159</ele>
        <time>2013-08-10T11:55:36.250Z</time>
      </trkpt>
      <trkpt lat="44.05835" lon="7.44202">
        <ele>2160</ele>
        <time>2013-08-10T11:55:45.250Z</time>
      </trkpt>
      <trkpt lat="44.05837" lon="7.44191">
        <ele>2160</ele>
        <time>2013-08-10T11:55:51.160Z</time>
      </trkpt>
      <trkpt lat="44.05845" lon="7.44178">
        <ele>2162</ele>
        <time>2013-08-10T11:56:01.150Z</time>
      </trkpt>
      <trkpt lat="44.05846" lon="7.44166">
        <ele>2166</ele>
        <time>2013-08-10T11:56:11.150Z</time>
      </trkpt>
      <trkpt lat="44.05856" lon="7.44153">
        <ele>2167</ele>
        <time>2013-08-10T11:56:23.250Z</time>
      </trkpt>
      <trkpt lat="44.05855" lon="7.44152">
        <ele>2170</ele>
        <time>2013-08-10T11:56:25.250Z</time>
      </trkpt>
      <trkpt lat="44.05861" lon="7.44147">
        <ele>2173</ele>
        <time>2013-08-10T11:56:34.140Z</time>
      </trkpt>
      <trkpt lat="44.0586" lon="7.44138">
        <ele>2173.1699968</ele>
        <time>2013-08-10T11:56:39.250Z</time>
      </trkpt>
      <trkpt lat="44.05866" lon="7.44129">
        <ele>2176</ele>
        <time>2013-08-10T11:56:48.150Z</time>
      </trkpt>
      <trkpt lat="44.05867" lon="7.44111">
        <ele>2178</ele>
        <time>2013-08-10T11:57:00.340Z</time>
      </trkpt>
      <trkpt lat="44.05871" lon="7.44105">
        <ele>2182</ele>
        <time>2013-08-10T11:57:10.150Z</time>
      </trkpt>
      <trkpt lat="44.05882" lon="7.44094">
        <ele>2183</ele>
        <time>2013-08-10T11:57:19.400Z</time>
      </trkpt>
      <trkpt lat="44.05901" lon="7.44085">
        <ele>2185</ele>
        <time>2013-08-10T11:57:32.240Z</time>
      </trkpt>
      <trkpt lat="44.05905" lon="7.4408">
        <ele>2188</ele>
        <time>2013-08-10T11:57:35.250Z</time>
      </trkpt>
      <trkpt lat="44.05909" lon="7.44067">
        <ele>2189</ele>
        <time>2013-08-10T11:57:43.410Z</time>
      </trkpt>
      <trkpt lat="44.05913" lon="7.44017">
        <ele>2194</ele>
        <time>2013-08-10T11:58:12.340Z</time>
      </trkpt>
      <trkpt lat="44.05915" lon="7.44009">
        <ele>2197</ele>
        <time>2013-08-10T11:58:16.090Z</time>
      </trkpt>
      <trkpt lat="44.05912" lon="7.43995">
        <ele>2197</ele>
        <time>2013-08-10T11:58:25.240Z</time>
      </trkpt>
      <trkpt lat="44.05911" lon="7.43961">
        <ele>2199</ele>
        <time>2013-08-10T11:58:43.230Z</time>
      </trkpt>
      <trkpt lat="44.0591" lon="7.43948">
        <ele>2203</ele>
        <time>2013-08-10T11:58:51.340Z</time>
      </trkpt>
      <trkpt lat="44.05911" lon="7.43944">
        <ele>2203.3599872</ele>
        <time>2013-08-10T11:58:54.260Z</time>
      </trkpt>
      <trkpt lat="44.05917" lon="7.43943">
        <ele>2206</ele>
        <time>2013-08-10T11:59:00.340Z</time>
      </trkpt>
      <trkpt lat="44.05914" lon="7.43935">
        <ele>2208</ele>
        <time>2013-08-10T11:59:05.230Z</time>
      </trkpt>
      <trkpt lat="44.05915" lon="7.43925">
        <ele>2209</ele>
        <time>2013-08-10T11:59:11.450Z</time>
      </trkpt>
      <trkpt lat="44.05909" lon="7.43913">
        <ele>2210</ele>
        <time>2013-08-10T11:59:19.240Z</time>
      </trkpt>
      <trkpt lat="44.05914" lon="7.43894">
        <ele>2212</ele>
        <time>2013-08-10T11:59:43.340Z</time>
      </trkpt>
      <trkpt lat="44.05909" lon="7.43883">
        <ele>2213</ele>
        <time>2013-08-10T11:59:49.460Z</time>
      </trkpt>
      <trkpt lat="44.05915" lon="7.43873">
        <ele>2217</ele>
        <time>2013-08-10T11:59:59.400Z</time>
      </trkpt>
      <trkpt lat="44.05914" lon="7.43868">
        <ele>2217</ele>
        <time>2013-08-10T12:00:03.340Z</time>
      </trkpt>
      <trkpt lat="44.05919" lon="7.43857">
        <ele>2219</ele>
        <time>2013-08-10T12:00:09.240Z</time>
      </trkpt>
      <trkpt lat="44.05924" lon="7.4385">
        <ele>2219.7799808</ele>
        <time>2013-08-10T12:00:14.340Z</time>
      </trkpt>
      <trkpt lat="44.05933" lon="7.43835">
        <ele>2228</ele>
        <time>2013-08-10T12:00:30.340Z</time>
      </trkpt>
      <trkpt lat="44.05944" lon="7.43813">
        <ele>2231</ele>
        <time>2013-08-10T12:00:50.110Z</time>
      </trkpt>
      <trkpt lat="44.05945" lon="7.43803">
        <ele>2232</ele>
        <time>2013-08-10T12:00:57.250Z</time>
      </trkpt>
      <trkpt lat="44.05938" lon="7.43794">
        <ele>2234</ele>
        <time>2013-08-10T12:01:06.240Z</time>
      </trkpt>
      <trkpt lat="44.05927" lon="7.43762">
        <ele>2237</ele>
        <time>2013-08-10T12:01:25.340Z</time>
      </trkpt>
      <trkpt lat="44.05935" lon="7.43757">
        <ele>2237</ele>
        <time>2013-08-10T12:01:33.090Z</time>
      </trkpt>
      <trkpt lat="44.05938" lon="7.43754">
        <ele>2240</ele>
        <time>2013-08-10T12:01:36.340Z</time>
      </trkpt>
      <trkpt lat="44.05941" lon="7.43746">
        <ele>2242</ele>
        <time>2013-08-10T12:01:42.340Z</time>
      </trkpt>
      <trkpt lat="44.05937" lon="7.4374">
        <ele>2242</ele>
        <time>2013-08-10T12:01:46.390Z</time>
      </trkpt>
      <trkpt lat="44.05939" lon="7.43736">
        <ele>2242</ele>
        <time>2013-08-10T12:01:50.200Z</time>
      </trkpt>
      <trkpt lat="44.0596" lon="7.43709">
        <ele>2246</ele>
        <time>2013-08-10T12:02:13.340Z</time>
      </trkpt>
      <trkpt lat="44.05961" lon="7.43704">
        <ele>2250</ele>
        <time>2013-08-10T12:02:15.340Z</time>
      </trkpt>
      <trkpt lat="44.05957" lon="7.43696">
        <ele>2251</ele>
        <time>2013-08-10T12:02:21.240Z</time>
      </trkpt>
      <trkpt lat="44.05941" lon="7.43698">
        <ele>2254</ele>
        <time>2013-08-10T12:02:35.240Z</time>
      </trkpt>
      <trkpt lat="44.05941" lon="7.43691">
        <ele>2254</ele>
        <time>2013-08-10T12:02:41.390Z</time>
      </trkpt>
      <trkpt lat="44.05948" lon="7.43682">
        <ele>2256</ele>
        <time>2013-08-10T12:02:48.340Z</time>
      </trkpt>
      <trkpt lat="44.05943" lon="7.43675">
        <ele>2258</ele>
        <time>2013-08-10T12:02:55.400Z</time>
      </trkpt>
      <trkpt lat="44.05949" lon="7.43678">
        <ele>2258</ele>
        <time>2013-08-10T12:03:00.340Z</time>
      </trkpt>
      <trkpt lat="44.05957" lon="7.43669">
        <ele>2260</ele>
        <time>2013-08-10T12:03:09.340Z</time>
      </trkpt>
      <trkpt lat="44.05955" lon="7.43646">
        <ele>2262</ele>
        <time>2013-08-10T12:03:23.340Z</time>
      </trkpt>
      <trkpt lat="44.05955" lon="7.43645">
        <ele>2265</ele>
        <time>2013-08-10T12:03:25.180Z</time>
      </trkpt>
      <trkpt lat="44.05963" lon="7.43635">
        <ele>2266.2599936</ele>
        <time>2013-08-10T12:03:34.340Z</time>
      </trkpt>
      <trkpt lat="44.05974" lon="7.4363">
        <ele>2267</ele>
        <time>2013-08-10T12:03:43.340Z</time>
      </trkpt>
      <trkpt lat="44.05983" lon="7.43596">
        <ele>2270.6200064</ele>
        <time>2013-08-10T12:04:04.390Z</time>
      </trkpt>
      <trkpt lat="44.05987" lon="7.43593">
        <ele>2272</ele>
        <time>2013-08-10T12:04:10.240Z</time>
      </trkpt>
      <trkpt lat="44.05999" lon="7.4357">
        <ele>2280</ele>
        <time>2013-08-10T12:04:32.340Z</time>
      </trkpt>
      <trkpt lat="44.06009" lon="7.43518">
        <ele>2287</ele>
        <time>2013-08-10T12:05:05.240Z</time>
      </trkpt>
      <trkpt lat="44.06013" lon="7.43516">
        <ele>2287</ele>
        <time>2013-08-10T12:05:11.340Z</time>
      </trkpt>
      <trkpt lat="44.06014" lon="7.43522">
        <ele>2289</ele>
        <time>2013-08-10T12:05:17.340Z</time>
      </trkpt>
      <trkpt lat="44.06017" lon="7.43522">
        <ele>2289</ele>
        <time>2013-08-10T12:05:21.240Z</time>
      </trkpt>
      <trkpt lat="44.06029" lon="7.43489">
        <ele>2294</ele>
        <time>2013-08-10T12:05:40.340Z</time>
      </trkpt>
      <trkpt lat="44.06046" lon="7.43467">
        <ele>2297</ele>
        <time>2013-08-10T12:05:55.240Z</time>
      </trkpt>
      <trkpt lat="44.06053" lon="7.43425">
        <ele>2297</ele>
        <time>2013-08-10T12:06:15.130Z</time>
      </trkpt>
      <trkpt lat="44.06052" lon="7.43401">
        <ele>2298</ele>
        <time>2013-08-10T12:06:30.150Z</time>
      </trkpt>
      <trkpt lat="44.06059" lon="7.43386">
        <ele>2303.2300834834</ele>
        <time>2013-08-10T12:06:44.340Z</time>
      </trkpt>
      <trkpt lat="44.0606" lon="7.43369">
        <ele>2304</ele>
        <time>2013-08-10T12:06:59.420Z</time>
      </trkpt>
      <trkpt lat="44.0606" lon="7.43348">
        <ele>2306</ele>
        <time>2013-08-10T12:07:10.360Z</time>
      </trkpt>
      <trkpt lat="44.0605" lon="7.43302">
        <ele>2310.5199872</ele>
        <time>2013-08-10T12:07:34.340Z</time>
      </trkpt>
      <trkpt lat="44.06068" lon="7.43271">
        <ele>2315</ele>
        <time>2013-08-10T12:07:57.260Z</time>
      </trkpt>
      <trkpt lat="44.06075" lon="7.43266">
        <ele>2315</ele>
        <time>2013-08-10T12:08:03.240Z</time>
      </trkpt>
      <trkpt lat="44.061" lon="7.43235">
        <ele>2321</ele>
        <time>2013-08-10T12:08:30.340Z</time>
      </trkpt>
      <trkpt lat="44.06104" lon="7.43234">
        <ele>2324</ele>
        <time>2013-08-10T12:08:35.400Z</time>
      </trkpt>
      <trkpt lat="44.06112" lon="7.43218">
        <ele>2324</ele>
        <time>2013-08-10T12:08:41.230Z</time>
      </trkpt>
      <trkpt lat="44.06147" lon="7.43193">
        <ele>2324</ele>
        <time>2013-08-10T12:08:58.340Z</time>
      </trkpt>
      <trkpt lat="44.06153" lon="7.43194">
        <ele>2324.7722606646</ele>
        <time>2013-08-10T12:09:04.340Z</time>
      </trkpt>
      <trkpt lat="44.06167" lon="7.43191">
        <ele>2333</ele>
        <time>2013-08-10T12:09:26.390Z</time>
      </trkpt>
      <trkpt lat="44.0618" lon="7.4318">
        <ele>2335</ele>
        <time>2013-08-10T12:09:39.200Z</time>
      </trkpt>
      <trkpt lat="44.06183" lon="7.43183">
        <ele>2337</ele>
        <time>2013-08-10T12:09:45.400Z</time>
      </trkpt>
      <trkpt lat="44.06186" lon="7.43195">
        <ele>2337</ele>
        <time>2013-08-10T12:09:51.360Z</time>
      </trkpt>
      <trkpt lat="44.06203" lon="7.43193">
        <ele>2341</ele>
        <time>2013-08-10T12:10:07.240Z</time>
      </trkpt>
      <trkpt lat="44.06219" lon="7.43183">
        <ele>2343</ele>
        <time>2013-08-10T12:10:23.340Z</time>
      </trkpt>
      <trkpt lat="44.0622" lon="7.43182">
        <ele>2346</ele>
        <time>2013-08-10T12:10:25.340Z</time>
      </trkpt>
      <trkpt lat="44.06232" lon="7.43176">
        <ele>2349</ele>
        <time>2013-08-10T12:10:35.240Z</time>
      </trkpt>
      <trkpt lat="44.06241" lon="7.43169">
        <ele>2349</ele>
        <time>2013-08-10T12:10:43.340Z</time>
      </trkpt>
      <trkpt lat="44.06246" lon="7.43168">
        <ele>2352</ele>
        <time>2013-08-10T12:10:48.340Z</time>
      </trkpt>
      <trkpt lat="44.06243" lon="7.43163">
        <ele>2352.2599936</ele>
        <time>2013-08-10T12:10:54.340Z</time>
      </trkpt>
      <trkpt lat="44.06237" lon="7.43157">
        <ele>2353</ele>
        <time>2013-08-10T12:10:58.240Z</time>
      </trkpt>
      <trkpt lat="44.06232" lon="7.43158">
        <ele>2353</ele>
        <time>2013-08-10T12:11:02.240Z</time>
      </trkpt>
      <trkpt lat="44.06228" lon="7.43152">
        <ele>2355</ele>
        <time>2013-08-10T12:11:07.240Z</time>
      </trkpt>
      <trkpt lat="44.06228" lon="7.43109">
        <ele>2356.316832687</ele>
        <time>2013-08-10T12:11:24.240Z</time>
      </trkpt>
      <trkpt lat="44.06223" lon="7.43095">
        <ele>2358</ele>
        <time>2013-08-10T12:11:33.110Z</time>
      </trkpt>
      <trkpt lat="44.06223" lon="7.43085">
        <ele>2363</ele>
        <time>2013-08-10T12:11:40.240Z</time>
      </trkpt>
      <trkpt lat="44.06218" lon="7.43055">
        <ele>2366</ele>
        <time>2013-08-10T12:11:53.340Z</time>
      </trkpt>
      <trkpt lat="44.0622" lon="7.43041">
        <ele>2366</ele>
        <time>2013-08-10T12:12:00.240Z</time>
      </trkpt>
      <trkpt lat="44.06228" lon="7.43014">
        <ele>2370</ele>
        <time>2013-08-10T12:12:18.390Z</time>
      </trkpt>
      <trkpt lat="44.06236" lon="7.43004">
        <ele>2373</ele>
        <time>2013-08-10T12:12:28.460Z</time>
      </trkpt>
      <trkpt lat="44.06271" lon="7.42987">
        <ele>2375</ele>
        <time>2013-08-10T12:12:52.260Z</time>
      </trkpt>
      <trkpt lat="44.06277" lon="7.42987">
        <ele>2381</ele>
        <time>2013-08-10T12:13:00.240Z</time>
      </trkpt>
      <trkpt lat="44.06302" lon="7.42972">
        <ele>2386</ele>
        <time>2013-08-10T12:13:25.240Z</time>
      </trkpt>
      <trkpt lat="44.06318" lon="7.42967">
        <ele>2388</ele>
        <time>2013-08-10T12:13:39.340Z</time>
      </trkpt>
      <trkpt lat="44.06327" lon="7.42956">
        <ele>2392</ele>
        <time>2013-08-10T12:13:51.340Z</time>
      </trkpt>
      <trkpt lat="44.06335" lon="7.42957">
        <ele>2393</ele>
        <time>2013-08-10T12:14:02.340Z</time>
      </trkpt>
      <trkpt lat="44.06343" lon="7.42958">
        <ele>2398</ele>
        <time>2013-08-10T12:14:10.240Z</time>
      </trkpt>
      <trkpt lat="44.06354" lon="7.42956">
        <ele>2399</ele>
        <time>2013-08-10T12:14:18.390Z</time>
      </trkpt>
      <trkpt lat="44.06359" lon="7.42946">
        <ele>2400</ele>
        <time>2013-08-10T12:14:25.340Z</time>
      </trkpt>
      <trkpt lat="44.06356" lon="7.42925">
        <ele>2402</ele>
        <time>2013-08-10T12:14:38.340Z</time>
      </trkpt>
      <trkpt lat="44.06364" lon="7.42908">
        <ele>2406</ele>
        <time>2013-08-10T12:14:52.460Z</time>
      </trkpt>
      <trkpt lat="44.06368" lon="7.42884">
        <ele>2409</ele>
        <time>2013-08-10T12:15:11.360Z</time>
      </trkpt>
      <trkpt lat="44.06383" lon="7.42854">
        <ele>2417</ele>
        <time>2013-08-10T12:15:36.200Z</time>
      </trkpt>
      <trkpt lat="44.06396" lon="7.42835">
        <ele>2418</ele>
        <time>2013-08-10T12:15:53.390Z</time>
      </trkpt>
      <trkpt lat="44.06399" lon="7.42823">
        <ele>2422</ele>
        <time>2013-08-10T12:16:05.240Z</time>
      </trkpt>
      <trkpt lat="44.06404" lon="7.42814">
        <ele>2422</ele>
        <time>2013-08-10T12:16:12.240Z</time>
      </trkpt>
      <trkpt lat="44.06404" lon="7.42811">
        <ele>2426</ele>
        <time>2013-08-10T12:16:16.200Z</time>
      </trkpt>
      <trkpt lat="44.06405" lon="7.42805">
        <ele>2427</ele>
        <time>2013-08-10T12:16:22.240Z</time>
      </trkpt>
      <trkpt lat="44.06403" lon="7.42797">
        <ele>2430</ele>
        <time>2013-08-10T12:16:27.180Z</time>
      </trkpt>
      <trkpt lat="44.06394" lon="7.428">
        <ele>2432</ele>
        <time>2013-08-10T12:16:38.240Z</time>
      </trkpt>
      <trkpt lat="44.06383" lon="7.42795">
        <ele>2434</ele>
        <time>2013-08-10T12:16:53.400Z</time>
      </trkpt>
      <trkpt lat="44.06376" lon="7.42797">
        <ele>2439</ele>
        <time>2013-08-10T12:17:00.340Z</time>
      </trkpt>
      <trkpt lat="44.06366" lon="7.428">
        <ele>2439</ele>
        <time>2013-08-10T12:17:08.340Z</time>
      </trkpt>
      <trkpt lat="44.06363" lon="7.4279">
        <ele>2441</ele>
        <time>2013-08-10T12:17:15.460Z</time>
      </trkpt>
      <trkpt lat="44.06353" lon="7.42784">
        <ele>2441</ele>
        <time>2013-08-10T12:17:23.240Z</time>
      </trkpt>
      <trkpt lat="44.06353" lon="7.42774">
        <ele>2443</ele>
        <time>2013-08-10T12:17:31.400Z</time>
      </trkpt>
      <trkpt lat="44.06343" lon="7.42745">
        <ele>2449</ele>
        <time>2013-08-10T12:17:53.340Z</time>
      </trkpt>
      <trkpt lat="44.06329" lon="7.42716">
        <ele>2459</ele>
        <time>2013-08-10T12:18:21.340Z</time>
      </trkpt>
      <trkpt lat="44.06306" lon="7.42703">
        <ele>2465</ele>
        <time>2013-08-10T12:18:45.240Z</time>
      </trkpt>
      <trkpt lat="44.06295" lon="7.42703">
        <ele>2465.32</ele>
        <time>2013-08-10T12:18:54.240Z</time>
      </trkpt>
      <trkpt lat="44.06279" lon="7.42695">
        <ele>2469</ele>
        <time>2013-08-10T12:19:08.240Z</time>
      </trkpt>
      <trkpt lat="44.06271" lon="7.42698">
        <ele>2470</ele>
        <time>2013-08-10T12:19:16.200Z</time>
      </trkpt>
      <trkpt lat="44.06259" lon="7.42695">
        <ele>2472</ele>
        <time>2013-08-10T12:19:26.240Z</time>
      </trkpt>
      <trkpt lat="44.06232" lon="7.42678">
        <ele>2474</ele>
        <time>2013-08-10T12:19:48.240Z</time>
      </trkpt>
      <trkpt lat="44.06223" lon="7.4267">
        <ele>2476</ele>
        <time>2013-08-10T12:19:57.340Z</time>
      </trkpt>
      <trkpt lat="44.06222" lon="7.42664">
        <ele>2476</ele>
        <time>2013-08-10T12:20:02.160Z</time>
      </trkpt>
      <trkpt lat="44.06219" lon="7.42664">
        <ele>2477</ele>
        <time>2013-08-10T12:20:18.340Z</time>
      </trkpt>
      <trkpt lat="44.06232" lon="7.42681">
        <ele>2476</ele>
        <time>2013-08-10T12:20:32.340Z</time>
      </trkpt>
      <trkpt lat="44.06247" lon="7.42689">
        <ele>2474</ele>
        <time>2013-08-10T12:20:38.380Z</time>
      </trkpt>
      <trkpt lat="44.06256" lon="7.42698">
        <ele>2474</ele>
        <time>2013-08-10T12:20:43.390Z</time>
      </trkpt>
      <trkpt lat="44.06288" lon="7.42702">
        <ele>2470</ele>
        <time>2013-08-10T12:20:56.360Z</time>
      </trkpt>
      <trkpt lat="44.06302" lon="7.42708">
        <ele>2470</ele>
        <time>2013-08-10T12:21:03.340Z</time>
      </trkpt>
      <trkpt lat="44.06313" lon="7.42715">
        <ele>2467</ele>
        <time>2013-08-10T12:21:08.240Z</time>
      </trkpt>
      <trkpt lat="44.06345" lon="7.42762">
        <ele>2450</ele>
        <time>2013-08-10T12:21:26.240Z</time>
      </trkpt>
      <trkpt lat="44.06358" lon="7.42797">
        <ele>2443.84</ele>
        <time>2013-08-10T12:21:37.240Z</time>
      </trkpt>
      <trkpt lat="44.06371" lon="7.42809">
        <ele>2441</ele>
        <time>2013-08-10T12:21:45.240Z</time>
      </trkpt>
      <trkpt lat="44.06383" lon="7.42807">
        <ele>2440</ele>
        <time>2013-08-10T12:21:53.340Z</time>
      </trkpt>
      <trkpt lat="44.06385" lon="7.42806">
        <ele>2437</ele>
        <time>2013-08-10T12:21:55.340Z</time>
      </trkpt>
      <trkpt lat="44.06398" lon="7.42807">
        <ele>2434</ele>
        <time>2013-08-10T12:22:02.240Z</time>
      </trkpt>
      <trkpt lat="44.064" lon="7.4282">
        <ele>2428</ele>
        <time>2013-08-10T12:22:07.200Z</time>
      </trkpt>
      <trkpt lat="44.06388" lon="7.42849">
        <ele>2421</ele>
        <time>2013-08-10T12:22:19.390Z</time>
      </trkpt>
      <trkpt lat="44.06382" lon="7.42855">
        <ele>2420</ele>
        <time>2013-08-10T12:22:22.240Z</time>
      </trkpt>
      <trkpt lat="44.0636" lon="7.42912">
        <ele>2410</ele>
        <time>2013-08-10T12:22:41.200Z</time>
      </trkpt>
      <trkpt lat="44.06361" lon="7.4293">
        <ele>2408</ele>
        <time>2013-08-10T12:22:46.240Z</time>
      </trkpt>
      <trkpt lat="44.06356" lon="7.4296">
        <ele>2404.9600256</ele>
        <time>2013-08-10T12:22:54.340Z</time>
      </trkpt>
      <trkpt lat="44.06354" lon="7.42967">
        <ele>2400.8700032</ele>
        <time>2013-08-10T12:22:56.210Z</time>
      </trkpt>
      <trkpt lat="44.06345" lon="7.42975">
        <ele>2399.16</ele>
        <time>2013-08-10T12:23:00.240Z</time>
      </trkpt>
      <trkpt lat="44.06322" lon="7.42975">
        <ele>2397</ele>
        <time>2013-08-10T12:23:08.400Z</time>
      </trkpt>
      <trkpt lat="44.06311" lon="7.42983">
        <ele>2394</ele>
        <time>2013-08-10T12:23:13.390Z</time>
      </trkpt>
      <trkpt lat="44.06298" lon="7.42984">
        <ele>2387</ele>
        <time>2013-08-10T12:23:18.340Z</time>
      </trkpt>
      <trkpt lat="44.06289" lon="7.4299">
        <ele>2386.84</ele>
        <time>2013-08-10T12:23:22.240Z</time>
      </trkpt>
      <trkpt lat="44.06264" lon="7.42998">
        <ele>2382</ele>
        <time>2013-08-10T12:23:33.180Z</time>
      </trkpt>
      <trkpt lat="44.06252" lon="7.43005">
        <ele>2376</ele>
        <time>2013-08-10T12:23:37.340Z</time>
      </trkpt>
      <trkpt lat="44.06232" lon="7.43015">
        <ele>2375</ele>
        <time>2013-08-10T12:23:45.240Z</time>
      </trkpt>
      <trkpt lat="44.06219" lon="7.43037">
        <ele>2372.4800128</ele>
        <time>2013-08-10T12:23:54.340Z</time>
      </trkpt>
      <trkpt lat="44.06218" lon="7.43059">
        <ele>2368</ele>
        <time>2013-08-10T12:24:01.340Z</time>
      </trkpt>
      <trkpt lat="44.06224" lon="7.431">
        <ele>2365</ele>
        <time>2013-08-10T12:24:13.340Z</time>
      </trkpt>
      <trkpt lat="44.0622" lon="7.43078">
        <ele>2364</ele>
        <time>2013-08-10T12:24:33.310Z</time>
      </trkpt>
      <trkpt lat="44.06219" lon="7.43044">
        <ele>2367</ele>
        <time>2013-08-10T12:25:00.340Z</time>
      </trkpt>
      <trkpt lat="44.06226" lon="7.43018">
        <ele>2370</ele>
        <time>2013-08-10T12:25:23.390Z</time>
      </trkpt>
      <trkpt lat="44.06232" lon="7.43012">
        <ele>2371</ele>
        <time>2013-08-10T12:25:32.210Z</time>
      </trkpt>
      <trkpt lat="44.06254" lon="7.42992">
        <ele>2375</ele>
        <time>2013-08-10T12:26:09.240Z</time>
      </trkpt>
      <trkpt lat="44.06266" lon="7.42989">
        <ele>2376</ele>
        <time>2013-08-10T12:26:22.310Z</time>
      </trkpt>
      <trkpt lat="44.06269" lon="7.42987">
        <ele>2381</ele>
        <time>2013-08-10T12:26:30.340Z</time>
      </trkpt>
      <trkpt lat="44.0628" lon="7.42981">
        <ele>2382</ele>
        <time>2013-08-10T12:26:46.240Z</time>
      </trkpt>
      <trkpt lat="44.06299" lon="7.42977">
        <ele>2384.1515178941</ele>
        <time>2013-08-10T12:27:04.240Z</time>
      </trkpt>
      <trkpt lat="44.06307" lon="7.42971">
        <ele>2385.7600128</ele>
        <time>2013-08-10T12:27:14.460Z</time>
      </trkpt>
      <trkpt lat="44.06332" lon="7.42962">
        <ele>2392</ele>
        <time>2013-08-10T12:27:46.240Z</time>
      </trkpt>
      <trkpt lat="44.06348" lon="7.42961">
        <ele>2396</ele>
        <time>2013-08-10T12:28:09.340Z</time>
      </trkpt>
      <trkpt lat="44.0635" lon="7.42966">
        <ele>2397</ele>
        <time>2013-08-10T12:28:21.200Z</time>
      </trkpt>
      <trkpt lat="44.0635" lon="7.42964">
        <ele>2399</ele>
        <time>2013-08-10T12:28:31.240Z</time>
      </trkpt>
      <trkpt lat="44.06353" lon="7.42961">
        <ele>2399</ele>
        <time>2013-08-10T12:28:38.200Z</time>
      </trkpt>
      <trkpt lat="44.06356" lon="7.42949">
        <ele>2399</ele>
        <time>2013-08-10T12:28:56.240Z</time>
      </trkpt>
      <trkpt lat="44.06356" lon="7.42927">
        <ele>2402</ele>
        <time>2013-08-10T12:29:15.240Z</time>
      </trkpt>
      <trkpt lat="44.06366" lon="7.42899">
        <ele>2406.64</ele>
        <time>2013-08-10T12:29:44.400Z</time>
      </trkpt>
      <trkpt lat="44.06367" lon="7.42883">
        <ele>2409</ele>
        <time>2013-08-10T12:30:02.340Z</time>
      </trkpt>
      <trkpt lat="44.06382" lon="7.42858">
        <ele>2413.5199872</ele>
        <time>2013-08-10T12:30:34.340Z</time>
      </trkpt>
      <trkpt lat="44.06388" lon="7.42841">
        <ele>2418</ele>
        <time>2013-08-10T12:30:56.340Z</time>
      </trkpt>
      <trkpt lat="44.06398" lon="7.42829">
        <ele>2420</ele>
        <time>2013-08-10T12:31:13.240Z</time>
      </trkpt>
      <trkpt lat="44.06396" lon="7.42822">
        <ele>2421</ele>
        <time>2013-08-10T12:31:19.340Z</time>
      </trkpt>
      <trkpt lat="44.06402" lon="7.42813">
        <ele>2423.5199872</ele>
        <time>2013-08-10T12:31:34.340Z</time>
      </trkpt>
      <trkpt lat="44.06404" lon="7.42803">
        <ele>2427</ele>
        <time>2013-08-10T12:31:49.340Z</time>
      </trkpt>
      <trkpt lat="44.06403" lon="7.42796">
        <ele>2430</ele>
        <time>2013-08-10T12:31:57.220Z</time>
      </trkpt>
      <trkpt lat="44.06391" lon="7.428">
        <ele>2432</ele>
        <time>2013-08-10T12:32:15.240Z</time>
      </trkpt>
      <trkpt lat="44.06387" lon="7.42795">
        <ele>2432</ele>
        <time>2013-08-10T12:32:23.240Z</time>
      </trkpt>
      <trkpt lat="44.06383" lon="7.42799">
        <ele>2434</ele>
        <time>2013-08-10T12:32:33.200Z</time>
      </trkpt>
      <trkpt lat="44.06368" lon="7.428">
        <ele>2439</ele>
        <time>2013-08-10T12:33:00.240Z</time>
      </trkpt>
      <trkpt lat="44.06355" lon="7.4278">
        <ele>2443</ele>
        <time>2013-08-10T12:33:38.340Z</time>
      </trkpt>
      <trkpt lat="44.06356" lon="7.42771">
        <ele>2445</ele>
        <time>2013-08-10T12:33:47.340Z</time>
      </trkpt>
      <trkpt lat="44.06352" lon="7.42764">
        <ele>2447</ele>
        <time>2013-08-10T12:33:55.240Z</time>
      </trkpt>
      <trkpt lat="44.06347" lon="7.42759">
        <ele>2447</ele>
        <time>2013-08-10T12:34:02.220Z</time>
      </trkpt>
      <trkpt lat="44.06342" lon="7.42742">
        <ele>2451</ele>
        <time>2013-08-10T12:34:17.240Z</time>
      </trkpt>
      <trkpt lat="44.06334" lon="7.42733">
        <ele>2452</ele>
        <time>2013-08-10T12:34:30.240Z</time>
      </trkpt>
      <trkpt lat="44.06334" lon="7.42724">
        <ele>2454</ele>
        <time>2013-08-10T12:34:37.260Z</time>
      </trkpt>
      <trkpt lat="44.0633" lon="7.42723">
        <ele>2454</ele>
        <time>2013-08-10T12:34:43.220Z</time>
      </trkpt>
      <trkpt lat="44.06327" lon="7.4272">
        <ele>2459</ele>
        <time>2013-08-10T12:34:50.310Z</time>
      </trkpt>
      <trkpt lat="44.06321" lon="7.42712">
        <ele>2459</ele>
        <time>2013-08-10T12:35:02.240Z</time>
      </trkpt>
      <trkpt lat="44.06309" lon="7.42703">
        <ele>2464</ele>
        <time>2013-08-10T12:35:17.340Z</time>
      </trkpt>
      <trkpt lat="44.06292" lon="7.427">
        <ele>2466</ele>
        <time>2013-08-10T12:35:33.300Z</time>
      </trkpt>
      <trkpt lat="44.06289" lon="7.42695">
        <ele>2468</ele>
        <time>2013-08-10T12:35:38.390Z</time>
      </trkpt>
      <trkpt lat="44.06273" lon="7.42699">
        <ele>2469</ele>
        <time>2013-08-10T12:35:52.240Z</time>
      </trkpt>
      <trkpt lat="44.06249" lon="7.42693">
        <ele>2472</ele>
        <time>2013-08-10T12:36:15.340Z</time>
      </trkpt>
      <trkpt lat="44.0623" lon="7.42675">
        <ele>2472</ele>
        <time>2013-08-10T12:36:38.300Z</time>
      </trkpt>
      <trkpt lat="44.06225" lon="7.42674">
        <ele>2475</ele>
        <time>2013-08-10T12:36:45.240Z</time>
      </trkpt>
      <trkpt lat="44.06225" lon="7.42668">
        <ele>2475.2574328948</ele>
        <time>2013-08-10T12:36:49.340Z</time>
      </trkpt>
      <trkpt lat="44.06218" lon="7.42665">
        <ele>2475</ele>
        <time>2013-08-10T12:42:30.240Z</time>
      </trkpt>
      <trkpt lat="44.0622" lon="7.42662">
        <ele>2475</ele>
        <time>2013-08-10T12:42:47.340Z</time>
      </trkpt>
      <trkpt lat="44.06218" lon="7.42654">
        <ele>2475</ele>
        <time>2013-08-10T12:43:11.340Z</time>
      </trkpt>
      <trkpt lat="44.06213" lon="7.42644">
        <ele>2474</ele>
        <time>2013-08-10T12:43:22.200Z</time>
      </trkpt>
      <trkpt lat="44.06208" lon="7.42647">
        <ele>2470</ele>
        <time>2013-08-10T12:43:25.240Z</time>
      </trkpt>
      <trkpt lat="44.06197" lon="7.42659">
        <ele>2469</ele>
        <time>2013-08-10T12:43:32.210Z</time>
      </trkpt>
      <trkpt lat="44.06193" lon="7.42659">
        <ele>2468.4949575921</ele>
        <time>2013-08-10T12:43:34.340Z</time>
      </trkpt>
      <trkpt lat="44.06191" lon="7.42655">
        <ele>2467</ele>
        <time>2013-08-10T12:43:36.340Z</time>
      </trkpt>
      <trkpt lat="44.06194" lon="7.42641">
        <ele>2464</ele>
        <time>2013-08-10T12:43:42.340Z</time>
      </trkpt>
      <trkpt lat="44.06188" lon="7.42646">
        <ele>2461.8415836565</ele>
        <time>2013-08-10T12:43:49.240Z</time>
      </trkpt>
      <trkpt lat="44.06188" lon="7.42644">
        <ele>2461</ele>
        <time>2013-08-10T12:43:52.240Z</time>
      </trkpt>
      <trkpt lat="44.0619" lon="7.42625">
        <ele>2460</ele>
        <time>2013-08-10T12:44:01.240Z</time>
      </trkpt>
      <trkpt lat="44.06188" lon="7.42622">
        <ele>2460</ele>
        <time>2013-08-10T12:44:03.340Z</time>
      </trkpt>
      <trkpt lat="44.06187" lon="7.42619">
        <ele>2453.0699904</ele>
        <time>2013-08-10T12:44:05.390Z</time>
      </trkpt>
      <trkpt lat="44.06192" lon="7.42603">
        <ele>2447</ele>
        <time>2013-08-10T12:44:25.380Z</time>
      </trkpt>
      <trkpt lat="44.06185" lon="7.42603">
        <ele>2447</ele>
        <time>2013-08-10T12:44:31.320Z</time>
      </trkpt>
      <trkpt lat="44.06185" lon="7.4259">
        <ele>2444</ele>
        <time>2013-08-10T12:44:38.240Z</time>
      </trkpt>
      <trkpt lat="44.06187" lon="7.42588">
        <ele>2441</ele>
        <time>2013-08-10T12:44:40.240Z</time>
      </trkpt>
      <trkpt lat="44.06184" lon="7.42587">
        <ele>2440.04</ele>
        <time>2013-08-10T12:44:44.400Z</time>
      </trkpt>
      <trkpt lat="44.06185" lon="7.42566">
        <ele>2433</ele>
        <time>2013-08-10T12:44:53.210Z</time>
      </trkpt>
      <trkpt lat="44.06183" lon="7.42554">
        <ele>2428</ele>
        <time>2013-08-10T12:44:59.120Z</time>
      </trkpt>
      <trkpt lat="44.06181" lon="7.42549">
        <ele>2427.92</ele>
        <time>2013-08-10T12:45:02.160Z</time>
      </trkpt>
      <trkpt lat="44.06175" lon="7.42545">
        <ele>2423.7399936</ele>
        <time>2013-08-10T12:45:07.340Z</time>
      </trkpt>
      <trkpt lat="44.06175" lon="7.42529">
        <ele>2418</ele>
        <time>2013-08-10T12:45:15.240Z</time>
      </trkpt>
      <trkpt lat="44.06173" lon="7.42516">
        <ele>2415</ele>
        <time>2013-08-10T12:45:21.130Z</time>
      </trkpt>
      <trkpt lat="44.06159" lon="7.42494">
        <ele>2411</ele>
        <time>2013-08-10T12:45:33.180Z</time>
      </trkpt>
      <trkpt lat="44.06158" lon="7.4249">
        <ele>2406.84</ele>
        <time>2013-08-10T12:45:35.240Z</time>
      </trkpt>
      <trkpt lat="44.06157" lon="7.42476">
        <ele>2402</ele>
        <time>2013-08-10T12:45:52.240Z</time>
      </trkpt>
      <trkpt lat="44.06148" lon="7.42462">
        <ele>2402</ele>
        <time>2013-08-10T12:46:02.340Z</time>
      </trkpt>
      <trkpt lat="44.06136" lon="7.42442">
        <ele>2394</ele>
        <time>2013-08-10T12:46:11.360Z</time>
      </trkpt>
      <trkpt lat="44.06133" lon="7.4244">
        <ele>2394</ele>
        <time>2013-08-10T12:46:13.340Z</time>
      </trkpt>
      <trkpt lat="44.0613" lon="7.42446">
        <ele>2389</ele>
        <time>2013-08-10T12:46:17.160Z</time>
      </trkpt>
      <trkpt lat="44.06109" lon="7.42425">
        <ele>2386.3636481175</ele>
        <time>2013-08-10T12:46:29.300Z</time>
      </trkpt>
      <trkpt lat="44.06108" lon="7.42431">
        <ele>2384</ele>
        <time>2013-08-10T12:46:31.380Z</time>
      </trkpt>
      <trkpt lat="44.06108" lon="7.42428">
        <ele>2382.2600064</ele>
        <time>2013-08-10T12:46:39.340Z</time>
      </trkpt>
      <trkpt lat="44.06117" lon="7.42415">
        <ele>2382</ele>
        <time>2013-08-10T12:47:07.150Z</time>
      </trkpt>
      <trkpt lat="44.06113" lon="7.42408">
        <ele>2382</ele>
        <time>2013-08-10T12:47:13.250Z</time>
      </trkpt>
      <trkpt lat="44.06115" lon="7.42404">
        <ele>2378</ele>
        <time>2013-08-10T12:47:15.380Z</time>
      </trkpt>
      <trkpt lat="44.06112" lon="7.42401">
        <ele>2378</ele>
        <time>2013-08-10T12:47:17.340Z</time>
      </trkpt>
      <trkpt lat="44.0611" lon="7.42392">
        <ele>2374</ele>
        <time>2013-08-10T12:47:21.320Z</time>
      </trkpt>
      <trkpt lat="44.06104" lon="7.42389">
        <ele>2371.7399936</ele>
        <time>2013-08-10T12:47:25.340Z</time>
      </trkpt>
      <trkpt lat="44.06106" lon="7.42377">
        <ele>2367.84</ele>
        <time>2013-08-10T12:47:29.240Z</time>
      </trkpt>
      <trkpt lat="44.06102" lon="7.42368">
        <ele>2368.9072194877</ele>
        <time>2013-08-10T12:47:33.200Z</time>
      </trkpt>
      <trkpt lat="44.06099" lon="7.42348">
        <ele>2366.2</ele>
        <time>2013-08-10T12:47:39.240Z</time>
      </trkpt>
      <trkpt lat="44.06098" lon="7.42345">
        <ele>2362</ele>
        <time>2013-08-10T12:47:40.340Z</time>
      </trkpt>
      <trkpt lat="44.06097" lon="7.4233">
        <ele>2362</ele>
        <time>2013-08-10T12:47:45.380Z</time>
      </trkpt>
      <trkpt lat="44.06101" lon="7.42319">
        <ele>2361.1386206372</ele>
        <time>2013-08-10T12:47:49.370Z</time>
      </trkpt>
      <trkpt lat="44.06103" lon="7.42303">
        <ele>2355.8484821059</ele>
        <time>2013-08-10T12:47:55.240Z</time>
      </trkpt>
      <trkpt lat="44.06122" lon="7.42262">
        <ele>2345.7425797785</ele>
        <time>2013-08-10T12:48:10.340Z</time>
      </trkpt>
      <trkpt lat="44.06129" lon="7.42219">
        <ele>2336</ele>
        <time>2013-08-10T12:48:23.370Z</time>
      </trkpt>
      <trkpt lat="44.06141" lon="7.42188">
        <ele>2327.84</ele>
        <time>2013-08-10T12:48:34.240Z</time>
      </trkpt>
      <trkpt lat="44.06134" lon="7.42175">
        <ele>2322</ele>
        <time>2013-08-10T12:48:42.240Z</time>
      </trkpt>
      <trkpt lat="44.06137" lon="7.42169">
        <ele>2321.7029630193</ele>
        <time>2013-08-10T12:48:44.380Z</time>
      </trkpt>
      <trkpt lat="44.06142" lon="7.42132">
        <ele>2317</ele>
        <time>2013-08-10T12:48:55.340Z</time>
      </trkpt>
      <trkpt lat="44.06144" lon="7.42128">
        <ele>2316</ele>
        <time>2013-08-10T12:49:03.340Z</time>
      </trkpt>
      <trkpt lat="44.06143" lon="7.42132">
        <ele>2315</ele>
        <time>2013-08-10T12:49:06.380Z</time>
      </trkpt>
      <trkpt lat="44.0615" lon="7.42136">
        <ele>2314</ele>
        <time>2013-08-10T12:49:28.240Z</time>
      </trkpt>
      <trkpt lat="44.06147" lon="7.4213">
        <ele>2315</ele>
        <time>2013-08-10T12:49:41.240Z</time>
      </trkpt>
      <trkpt lat="44.06148" lon="7.42113">
        <ele>2313</ele>
        <time>2013-08-10T12:49:53.130Z</time>
      </trkpt>
      <trkpt lat="44.06149" lon="7.42111">
        <ele>2310</ele>
        <time>2013-08-10T12:49:55.250Z</time>
      </trkpt>
      <trkpt lat="44.0615" lon="7.42105">
        <ele>2310</ele>
        <time>2013-08-10T12:49:58.340Z</time>
      </trkpt>
      <trkpt lat="44.06156" lon="7.42099">
        <ele>2307</ele>
        <time>2013-08-10T12:50:02.320Z</time>
      </trkpt>
      <trkpt lat="44.06154" lon="7.4209">
        <ele>2306</ele>
        <time>2013-08-10T12:50:10.200Z</time>
      </trkpt>
      <trkpt lat="44.06154" lon="7.42095">
        <ele>2306</ele>
        <time>2013-08-10T12:50:26.340Z</time>
      </trkpt>
      <trkpt lat="44.06175" lon="7.42077">
        <ele>2301</ele>
        <time>2013-08-10T12:50:55.240Z</time>
      </trkpt>
      <trkpt lat="44.06188" lon="7.42059">
        <ele>2300.04</ele>
        <time>2013-08-10T12:51:04.240Z</time>
      </trkpt>
      <trkpt lat="44.06189" lon="7.42056">
        <ele>2294.4799872</ele>
        <time>2013-08-10T12:51:05.340Z</time>
      </trkpt>
      <trkpt lat="44.06196" lon="7.42037">
        <ele>2288</ele>
        <time>2013-08-10T12:51:11.340Z</time>
      </trkpt>
      <trkpt lat="44.0619" lon="7.42029">
        <ele>2285.8415836565</ele>
        <time>2013-08-10T12:51:15.240Z</time>
      </trkpt>
      <trkpt lat="44.06191" lon="7.42016">
        <ele>2283.84</ele>
        <time>2013-08-10T12:51:19.240Z</time>
      </trkpt>
      <trkpt lat="44.06207" lon="7.41992">
        <ele>2278</ele>
        <time>2013-08-10T12:51:28.440Z</time>
      </trkpt>
      <trkpt lat="44.06224" lon="7.41982">
        <ele>2275</ele>
        <time>2013-08-10T12:51:35.200Z</time>
      </trkpt>
      <trkpt lat="44.06224" lon="7.41979">
        <ele>2275</ele>
        <time>2013-08-10T12:51:37.240Z</time>
      </trkpt>
      <trkpt lat="44.06234" lon="7.4198">
        <ele>2272</ele>
        <time>2013-08-10T12:51:43.460Z</time>
      </trkpt>
      <trkpt lat="44.06241" lon="7.41974">
        <ele>2271</ele>
        <time>2013-08-10T12:51:48.240Z</time>
      </trkpt>
      <trkpt lat="44.06238" lon="7.41963">
        <ele>2268.0699904</ele>
        <time>2013-08-10T12:51:54.390Z</time>
      </trkpt>
      <trkpt lat="44.06242" lon="7.41958">
        <ele>2266</ele>
        <time>2013-08-10T12:51:58.340Z</time>
      </trkpt>
      <trkpt lat="44.0624" lon="7.41953">
        <ele>2262</ele>
        <time>2013-08-10T12:52:00.340Z</time>
      </trkpt>
      <trkpt lat="44.06235" lon="7.41946">
        <ele>2261.52</ele>
        <time>2013-08-10T12:52:04.240Z</time>
      </trkpt>
      <trkpt lat="44.06247" lon="7.41935">
        <ele>2253.8415836565</ele>
        <time>2013-08-10T12:52:13.240Z</time>
      </trkpt>
      <trkpt lat="44.06252" lon="7.4192">
        <ele>2249.84</ele>
        <time>2013-08-10T12:52:19.240Z</time>
      </trkpt>
      <trkpt lat="44.06279" lon="7.4191">
        <ele>2241</ele>
        <time>2013-08-10T12:52:32.230Z</time>
      </trkpt>
      <trkpt lat="44.06266" lon="7.41892">
        <ele>2236.7400064</ele>
        <time>2013-08-10T12:52:40.340Z</time>
      </trkpt>
      <trkpt lat="44.06252" lon="7.41885">
        <ele>2233</ele>
        <time>2013-08-10T12:52:46.230Z</time>
      </trkpt>
      <trkpt lat="44.06251" lon="7.41881">
        <ele>2231.7029756926</ele>
        <time>2013-08-10T12:52:49.380Z</time>
      </trkpt>
      <trkpt lat="44.06237" lon="7.41869">
        <ele>2227</ele>
        <time>2013-08-10T12:52:56.240Z</time>
      </trkpt>
      <trkpt lat="44.06241" lon="7.4186">
        <ele>2225</ele>
        <time>2013-08-10T12:53:00.300Z</time>
      </trkpt>
      <trkpt lat="44.06236" lon="7.4185">
        <ele>2223</ele>
        <time>2013-08-10T12:53:06.240Z</time>
      </trkpt>
      <trkpt lat="44.0625" lon="7.41838">
        <ele>2220</ele>
        <time>2013-08-10T12:53:13.350Z</time>
      </trkpt>
      <trkpt lat="44.0626" lon="7.41833">
        <ele>2213</ele>
        <time>2013-08-10T12:53:18.340Z</time>
      </trkpt>
      <trkpt lat="44.06256" lon="7.4183">
        <ele>2212</ele>
        <time>2013-08-10T12:53:22.240Z</time>
      </trkpt>
      <trkpt lat="44.0626" lon="7.41824">
        <ele>2211</ele>
        <time>2013-08-10T12:53:26.380Z</time>
      </trkpt>
      <trkpt lat="44.06282" lon="7.41818">
        <ele>2204</ele>
        <time>2013-08-10T12:53:40.240Z</time>
      </trkpt>
      <trkpt lat="44.06304" lon="7.41801">
        <ele>2197</ele>
        <time>2013-08-10T12:53:55.340Z</time>
      </trkpt>
      <trkpt lat="44.06311" lon="7.41802">
        <ele>2197</ele>
        <time>2013-08-10T12:53:58.340Z</time>
      </trkpt>
      <trkpt lat="44.06316" lon="7.41797">
        <ele>2193</ele>
        <time>2013-08-10T12:54:01.240Z</time>
      </trkpt>
      <trkpt lat="44.06314" lon="7.41787">
        <ele>2189.84</ele>
        <time>2013-08-10T12:54:05.240Z</time>
      </trkpt>
      <trkpt lat="44.06316" lon="7.41784">
        <ele>2188.7425671052</ele>
        <time>2013-08-10T12:54:07.340Z</time>
      </trkpt>
      <trkpt lat="44.0632" lon="7.41788">
        <ele>2187</ele>
        <time>2013-08-10T12:54:16.200Z</time>
      </trkpt>
      <trkpt lat="44.06324" lon="7.41785">
        <ele>2188</ele>
        <time>2013-08-10T12:54:31.240Z</time>
      </trkpt>
      <trkpt lat="44.0633" lon="7.41785">
        <ele>2186</ele>
        <time>2013-08-10T12:54:37.240Z</time>
      </trkpt>
      <trkpt lat="44.06333" lon="7.41781">
        <ele>2186</ele>
        <time>2013-08-10T12:54:43.340Z</time>
      </trkpt>
      <trkpt lat="44.06334" lon="7.41779">
        <ele>2183</ele>
        <time>2013-08-10T12:54:45.150Z</time>
      </trkpt>
      <trkpt lat="44.06347" lon="7.41771">
        <ele>2181</ele>
        <time>2013-08-10T12:55:11.340Z</time>
      </trkpt>
      <trkpt lat="44.06354" lon="7.4176">
        <ele>2181</ele>
        <time>2013-08-10T12:55:29.340Z</time>
      </trkpt>
      <trkpt lat="44.06363" lon="7.41753">
        <ele>2180</ele>
        <time>2013-08-10T12:56:02.240Z</time>
      </trkpt>
      <trkpt lat="44.06374" lon="7.41747">
        <ele>2179</ele>
        <time>2013-08-10T12:56:13.340Z</time>
      </trkpt>
      <trkpt lat="44.06376" lon="7.41746">
        <ele>2182</ele>
        <time>2013-08-10T12:56:15.340Z</time>
      </trkpt>
      <trkpt lat="44.06387" lon="7.41747">
        <ele>2179</ele>
        <time>2013-08-10T12:56:26.240Z</time>
      </trkpt>
      <trkpt lat="44.06395" lon="7.41741">
        <ele>2178</ele>
        <time>2013-08-10T12:56:30.240Z</time>
      </trkpt>
      <trkpt lat="44.06433" lon="7.41696">
        <ele>2174</ele>
        <time>2013-08-10T12:57:13.340Z</time>
      </trkpt>
      <trkpt lat="44.06432" lon="7.41688">
        <ele>2173</ele>
        <time>2013-08-10T12:57:35.340Z</time>
      </trkpt>
      <trkpt lat="44.06453" lon="7.41664">
        <ele>2170</ele>
        <time>2013-08-10T12:57:58.340Z</time>
      </trkpt>
      <trkpt lat="44.06459" lon="7.41643">
        <ele>2168</ele>
        <time>2013-08-10T12:58:07.240Z</time>
      </trkpt>
      <trkpt lat="44.06463" lon="7.41637">
        <ele>2168</ele>
        <time>2013-08-10T12:58:12.240Z</time>
      </trkpt>
      <trkpt lat="44.06473" lon="7.41626">
        <ele>2163</ele>
        <time>2013-08-10T12:58:25.240Z</time>
      </trkpt>
      <trkpt lat="44.06482" lon="7.41615">
        <ele>2163</ele>
        <time>2013-08-10T12:58:32.240Z</time>
      </trkpt>
      <trkpt lat="44.065" lon="7.416">
        <ele>2159</ele>
        <time>2013-08-10T12:58:40.170Z</time>
      </trkpt>
      <trkpt lat="44.0652" lon="7.4156">
        <ele>2158</ele>
        <time>2013-08-10T12:58:53.340Z</time>
      </trkpt>
      <trkpt lat="44.06524" lon="7.41558">
        <ele>2153</ele>
        <time>2013-08-10T12:58:55.180Z</time>
      </trkpt>
      <trkpt lat="44.06543" lon="7.41556">
        <ele>2149.7400064</ele>
        <time>2013-08-10T12:59:04.340Z</time>
      </trkpt>
      <trkpt lat="44.06545" lon="7.41552">
        <ele>2148</ele>
        <time>2013-08-10T12:59:12.340Z</time>
      </trkpt>
      <trkpt lat="44.06538" lon="7.41546">
        <ele>2147</ele>
        <time>2013-08-10T12:59:36.340Z</time>
      </trkpt>
      <trkpt lat="44.06542" lon="7.4154">
        <ele>2146.7400064</ele>
        <time>2013-08-10T12:59:44.340Z</time>
      </trkpt>
      <trkpt lat="44.06542" lon="7.41523">
        <ele>2146</ele>
        <time>2013-08-10T12:59:53.240Z</time>
      </trkpt>
      <trkpt lat="44.06543" lon="7.41512">
        <ele>2136.8415836565</ele>
        <time>2013-08-10T12:59:57.240Z</time>
      </trkpt>
      <trkpt lat="44.06554" lon="7.41489">
        <ele>2133</ele>
        <time>2013-08-10T13:00:05.310Z</time>
      </trkpt>
      <trkpt lat="44.06557" lon="7.41479">
        <ele>2129</ele>
        <time>2013-08-10T13:00:09.340Z</time>
      </trkpt>
      <trkpt lat="44.06564" lon="7.4147">
        <ele>2129.7399936</ele>
        <time>2013-08-10T13:00:13.340Z</time>
      </trkpt>
      <trkpt lat="44.06569" lon="7.41458">
        <ele>2128</ele>
        <time>2013-08-10T13:00:17.340Z</time>
      </trkpt>
      <trkpt lat="44.06575" lon="7.41442">
        <ele>2126</ele>
        <time>2013-08-10T13:00:23.340Z</time>
      </trkpt>
      <trkpt lat="44.06579" lon="7.41427">
        <ele>2120</ele>
        <time>2013-08-10T13:00:29.240Z</time>
      </trkpt>
      <trkpt lat="44.06574" lon="7.41415">
        <ele>2118.84</ele>
        <time>2013-08-10T13:00:34.240Z</time>
      </trkpt>
      <trkpt lat="44.06572" lon="7.41391">
        <ele>2118</ele>
        <time>2013-08-10T13:00:40.220Z</time>
      </trkpt>
      <trkpt lat="44.06579" lon="7.41371">
        <ele>2115</ele>
        <time>2013-08-10T13:00:47.340Z</time>
      </trkpt>
      <trkpt lat="44.06587" lon="7.41327">
        <ele>2110</ele>
        <time>2013-08-10T13:01:01.240Z</time>
      </trkpt>
      <trkpt lat="44.06594" lon="7.41317">
        <ele>2107</ele>
        <time>2013-08-10T13:01:05.220Z</time>
      </trkpt>
      <trkpt lat="44.06618" lon="7.41313">
        <ele>2105</ele>
        <time>2013-08-10T13:01:13.370Z</time>
      </trkpt>
      <trkpt lat="44.06646" lon="7.41299">
        <ele>2098</ele>
        <time>2013-08-10T13:01:25.240Z</time>
      </trkpt>
      <trkpt lat="44.06653" lon="7.41286">
        <ele>2096</ele>
        <time>2013-08-10T13:01:31.240Z</time>
      </trkpt>
      <trkpt lat="44.06659" lon="7.41283">
        <ele>2095</ele>
        <time>2013-08-10T13:01:35.340Z</time>
      </trkpt>
      <trkpt lat="44.06658" lon="7.41288">
        <ele>2093</ele>
        <time>2013-08-10T13:01:50.200Z</time>
      </trkpt>
      <trkpt lat="44.06662" lon="7.41285">
        <ele>2094</ele>
        <time>2013-08-10T13:02:00.240Z</time>
      </trkpt>
      <trkpt lat="44.06675" lon="7.41268">
        <ele>2094</ele>
        <time>2013-08-10T13:02:09.240Z</time>
      </trkpt>
      <trkpt lat="44.06688" lon="7.41204">
        <ele>2093</ele>
        <time>2013-08-10T13:02:28.240Z</time>
      </trkpt>
      <trkpt lat="44.06701" lon="7.41159">
        <ele>2092</ele>
        <time>2013-08-10T13:02:43.240Z</time>
      </trkpt>
      <trkpt lat="44.06705" lon="7.41149">
        <ele>2083</ele>
        <time>2013-08-10T13:02:47.240Z</time>
      </trkpt>
      <trkpt lat="44.06716" lon="7.41114">
        <ele>2079</ele>
        <time>2013-08-10T13:03:00.340Z</time>
      </trkpt>
      <trkpt lat="44.0672" lon="7.41098">
        <ele>2078</ele>
        <time>2013-08-10T13:03:05.240Z</time>
      </trkpt>
      <trkpt lat="44.0672" lon="7.41069">
        <ele>2075</ele>
        <time>2013-08-10T13:03:13.380Z</time>
      </trkpt>
      <trkpt lat="44.06725" lon="7.41062">
        <ele>2073</ele>
        <time>2013-08-10T13:03:16.110Z</time>
      </trkpt>
      <trkpt lat="44.06732" lon="7.41064">
        <ele>2070</ele>
        <time>2013-08-10T13:03:21.240Z</time>
      </trkpt>
      <trkpt lat="44.06737" lon="7.41057">
        <ele>2070</ele>
        <time>2013-08-10T13:03:25.340Z</time>
      </trkpt>
      <trkpt lat="44.06744" lon="7.41016">
        <ele>2068</ele>
        <time>2013-08-10T13:03:37.240Z</time>
      </trkpt>
      <trkpt lat="44.06749" lon="7.41001">
        <ele>2068</ele>
        <time>2013-08-10T13:03:42.240Z</time>
      </trkpt>
      <trkpt lat="44.06749" lon="7.40987">
        <ele>2063</ele>
        <time>2013-08-10T13:03:47.240Z</time>
      </trkpt>
      <trkpt lat="44.06748" lon="7.40994">
        <ele>2061</ele>
        <time>2013-08-10T13:04:08.340Z</time>
      </trkpt>
      <trkpt lat="44.0675" lon="7.40986">
        <ele>2060</ele>
        <time>2013-08-10T13:04:28.320Z</time>
      </trkpt>
      <trkpt lat="44.06748" lon="7.4098">
        <ele>2060</ele>
        <time>2013-08-10T13:04:31.390Z</time>
      </trkpt>
      <trkpt lat="44.0676" lon="7.40972">
        <ele>2058</ele>
        <time>2013-08-10T13:04:43.340Z</time>
      </trkpt>
      <trkpt lat="44.06776" lon="7.40963">
        <ele>2048</ele>
        <time>2013-08-10T13:04:55.240Z</time>
      </trkpt>
      <trkpt lat="44.06781" lon="7.40954">
        <ele>2046</ele>
        <time>2013-08-10T13:05:00.340Z</time>
      </trkpt>
      <trkpt lat="44.06795" lon="7.40943">
        <ele>2043.3799936</ele>
        <time>2013-08-10T13:05:14.390Z</time>
      </trkpt>
      <trkpt lat="44.06797" lon="7.40938">
        <ele>2041</ele>
        <time>2013-08-10T13:05:37.250Z</time>
      </trkpt>
      <trkpt lat="44.06804" lon="7.40932">
        <ele>2040.366334626</ele>
        <time>2013-08-10T13:05:44.240Z</time>
      </trkpt>
      <trkpt lat="44.06805" lon="7.4093">
        <ele>2037</ele>
        <time>2013-08-10T13:05:45.200Z</time>
      </trkpt>
      <trkpt lat="44.06818" lon="7.40913">
        <ele>2033</ele>
        <time>2013-08-10T13:05:57.240Z</time>
      </trkpt>
      <trkpt lat="44.06819" lon="7.40909">
        <ele>2032.6969512826</ele>
        <time>2013-08-10T13:05:59.190Z</time>
      </trkpt>
      <trkpt lat="44.06819" lon="7.40909">
        <ele>2030</ele>
        <time>2013-08-10T13:06:00.220Z</time>
      </trkpt>
      <trkpt lat="44.06804" lon="7.40906">
        <ele>2029</ele>
        <time>2013-08-10T13:06:08.340Z</time>
      </trkpt>
      <trkpt lat="44.06797" lon="7.40907">
        <ele>2026</ele>
        <time>2013-08-10T13:06:12.220Z</time>
      </trkpt>
      <trkpt lat="44.06789" lon="7.40895">
        <ele>2018.683167313</ele>
        <time>2013-08-10T13:06:18.400Z</time>
      </trkpt>
      <trkpt lat="44.06783" lon="7.40894">
        <ele>2016.84</ele>
        <time>2013-08-10T13:06:21.240Z</time>
      </trkpt>
      <trkpt lat="44.06789" lon="7.4089">
        <ele>2015</ele>
        <time>2013-08-10T13:06:26.240Z</time>
      </trkpt>
      <trkpt lat="44.06788" lon="7.40886">
        <ele>2014</ele>
        <time>2013-08-10T13:06:29.240Z</time>
      </trkpt>
      <trkpt lat="44.06783" lon="7.40885">
        <ele>2011.8431382391</ele>
        <time>2013-08-10T13:06:32.240Z</time>
      </trkpt>
      <trkpt lat="44.06774" lon="7.40873">
        <ele>2008</ele>
        <time>2013-08-10T13:06:42.360Z</time>
      </trkpt>
      <trkpt lat="44.06796" lon="7.40859">
        <ele>2003</ele>
        <time>2013-08-10T13:06:52.210Z</time>
      </trkpt>
      <trkpt lat="44.06795" lon="7.40857">
        <ele>2001</ele>
        <time>2013-08-10T13:06:55.240Z</time>
      </trkpt>
      <trkpt lat="44.06776" lon="7.40853">
        <ele>1997</ele>
        <time>2013-08-10T13:07:05.340Z</time>
      </trkpt>
      <trkpt lat="44.06775" lon="7.40848">
        <ele>1997</ele>
        <time>2013-08-10T13:07:08.340Z</time>
      </trkpt>
      <trkpt lat="44.06798" lon="7.40835">
        <ele>1991</ele>
        <time>2013-08-10T13:07:22.240Z</time>
      </trkpt>
      <trkpt lat="44.06791" lon="7.40834">
        <ele>1990</ele>
        <time>2013-08-10T13:07:27.170Z</time>
      </trkpt>
      <trkpt lat="44.06783" lon="7.40827">
        <ele>1988</ele>
        <time>2013-08-10T13:07:33.190Z</time>
      </trkpt>
      <trkpt lat="44.06786" lon="7.40825">
        <ele>1983</ele>
        <time>2013-08-10T13:07:38.340Z</time>
      </trkpt>
      <trkpt lat="44.06799" lon="7.40821">
        <ele>1983</ele>
        <time>2013-08-10T13:07:45.240Z</time>
      </trkpt>
      <trkpt lat="44.06808" lon="7.40803">
        <ele>1983</ele>
        <time>2013-08-10T13:07:53.340Z</time>
      </trkpt>
      <trkpt lat="44.06809" lon="7.408">
        <ele>1979</ele>
        <time>2013-08-10T13:07:55.340Z</time>
      </trkpt>
      <trkpt lat="44.06804" lon="7.408">
        <ele>1978.8787753413</ele>
        <time>2013-08-10T13:07:59.120Z</time>
      </trkpt>
      <trkpt lat="44.06802" lon="7.40799">
        <ele>1975</ele>
        <time>2013-08-10T13:08:00.340Z</time>
      </trkpt>
      <trkpt lat="44.06802" lon="7.40792">
        <ele>1974.2200192</ele>
        <time>2013-08-10T13:08:04.340Z</time>
      </trkpt>
      <trkpt lat="44.068" lon="7.40791">
        <ele>1972</ele>
        <time>2013-08-10T13:08:06.230Z</time>
      </trkpt>
      <trkpt lat="44.06791" lon="7.4079">
        <ele>1971.2599936</ele>
        <time>2013-08-10T13:08:12.340Z</time>
      </trkpt>
      <trkpt lat="44.06783" lon="7.4078">
        <ele>1971</ele>
        <time>2013-08-10T13:08:17.340Z</time>
      </trkpt>
      <trkpt lat="44.06798" lon="7.40763">
        <ele>1967</ele>
        <time>2013-08-10T13:08:30.340Z</time>
      </trkpt>
      <trkpt lat="44.06812" lon="7.40761">
        <ele>1962</ele>
        <time>2013-08-10T13:08:43.340Z</time>
      </trkpt>
      <trkpt lat="44.0682" lon="7.40751">
        <ele>1959</ele>
        <time>2013-08-10T13:08:50.090Z</time>
      </trkpt>
      <trkpt lat="44.06795" lon="7.40735">
        <ele>1956</ele>
        <time>2013-08-10T13:09:10.240Z</time>
      </trkpt>
      <trkpt lat="44.06794" lon="7.40729">
        <ele>1956</ele>
        <time>2013-08-10T13:09:13.340Z</time>
      </trkpt>
      <trkpt lat="44.06794" lon="7.40725">
        <ele>1953</ele>
        <time>2013-08-10T13:09:15.240Z</time>
      </trkpt>
      <trkpt lat="44.06797" lon="7.40719">
        <ele>1953</ele>
        <time>2013-08-10T13:09:18.400Z</time>
      </trkpt>
      <trkpt lat="44.06809" lon="7.40712">
        <ele>1949</ele>
        <time>2013-08-10T13:09:27.240Z</time>
      </trkpt>
      <trkpt lat="44.0681" lon="7.40707">
        <ele>1946</ele>
        <time>2013-08-10T13:09:30.340Z</time>
      </trkpt>
      <trkpt lat="44.06824" lon="7.40698">
        <ele>1944</ele>
        <time>2013-08-10T13:09:38.240Z</time>
      </trkpt>
      <trkpt lat="44.06845" lon="7.40691">
        <ele>1943</ele>
        <time>2013-08-10T13:09:52.240Z</time>
      </trkpt>
      <trkpt lat="44.06854" lon="7.40681">
        <ele>1941</ele>
        <time>2013-08-10T13:10:00.300Z</time>
      </trkpt>
      <trkpt lat="44.06877" lon="7.40677">
        <ele>1940</ele>
        <time>2013-08-10T13:10:11.340Z</time>
      </trkpt>
      <trkpt lat="44.06876" lon="7.40674">
        <ele>1937</ele>
        <time>2013-08-10T13:10:15.360Z</time>
      </trkpt>
      <trkpt lat="44.06869" lon="7.40672">
        <ele>1936.2199808</ele>
        <time>2013-08-10T13:10:19.340Z</time>
      </trkpt>
      <trkpt lat="44.06868" lon="7.40669">
        <ele>1934</ele>
        <time>2013-08-10T13:10:21.340Z</time>
      </trkpt>
      <trkpt lat="44.06878" lon="7.4066">
        <ele>1932</ele>
        <time>2013-08-10T13:10:28.340Z</time>
      </trkpt>
      <trkpt lat="44.06891" lon="7.40655">
        <ele>1929</ele>
        <time>2013-08-10T13:10:33.300Z</time>
      </trkpt>
      <trkpt lat="44.06893" lon="7.40652">
        <ele>1925.84</ele>
        <time>2013-08-10T13:10:35.240Z</time>
      </trkpt>
      <trkpt lat="44.0688" lon="7.40653">
        <ele>1923</ele>
        <time>2013-08-10T13:10:44.240Z</time>
      </trkpt>
      <trkpt lat="44.06874" lon="7.40648">
        <ele>1922.4059513852</ele>
        <time>2013-08-10T13:10:49.380Z</time>
      </trkpt>
      <trkpt lat="44.06889" lon="7.40628">
        <ele>1918</ele>
        <time>2013-08-10T13:11:01.240Z</time>
      </trkpt>
      <trkpt lat="44.06897" lon="7.40622">
        <ele>1916</ele>
        <time>2013-08-10T13:11:07.340Z</time>
      </trkpt>
      <trkpt lat="44.06886" lon="7.40623">
        <ele>1914</ele>
        <time>2013-08-10T13:11:13.380Z</time>
      </trkpt>
      <trkpt lat="44.06874" lon="7.40619">
        <ele>1906</ele>
        <time>2013-08-10T13:11:20.240Z</time>
      </trkpt>
      <trkpt lat="44.06891" lon="7.40605">
        <ele>1903</ele>
        <time>2013-08-10T13:11:31.240Z</time>
      </trkpt>
      <trkpt lat="44.06893" lon="7.40598">
        <ele>1902</ele>
        <time>2013-08-10T13:11:36.340Z</time>
      </trkpt>
      <trkpt lat="44.06901" lon="7.40589">
        <ele>1902</ele>
        <time>2013-08-10T13:11:43.340Z</time>
      </trkpt>
      <trkpt lat="44.069" lon="7.40588">
        <ele>1898</ele>
        <time>2013-08-10T13:11:45.340Z</time>
      </trkpt>
      <trkpt lat="44.06901" lon="7.40581">
        <ele>1897.2079182825</ele>
        <time>2013-08-10T13:11:49.240Z</time>
      </trkpt>
      <trkpt lat="44.06901" lon="7.4058">
        <ele>1893</ele>
        <time>2013-08-10T13:11:50.290Z</time>
      </trkpt>
      <trkpt lat="44.06902" lon="7.40568">
        <ele>1888.6899968</ele>
        <time>2013-08-10T13:11:56.390Z</time>
      </trkpt>
      <trkpt lat="44.06908" lon="7.4056">
        <ele>1885.7000064</ele>
        <time>2013-08-10T13:12:01.380Z</time>
      </trkpt>
      <trkpt lat="44.06895" lon="7.40564">
        <ele>1881.7400064</ele>
        <time>2013-08-10T13:12:08.340Z</time>
      </trkpt>
      <trkpt lat="44.06878" lon="7.40577">
        <ele>1878</ele>
        <time>2013-08-10T13:12:17.340Z</time>
      </trkpt>
      <trkpt lat="44.06875" lon="7.40573">
        <ele>1877</ele>
        <time>2013-08-10T13:12:21.340Z</time>
      </trkpt>
      <trkpt lat="44.0688" lon="7.40544">
        <ele>1871</ele>
        <time>2013-08-10T13:12:36.240Z</time>
      </trkpt>
      <trkpt lat="44.0689" lon="7.40529">
        <ele>1863</ele>
        <time>2013-08-10T13:12:47.240Z</time>
      </trkpt>
      <trkpt lat="44.06898" lon="7.40515">
        <ele>1861</ele>
        <time>2013-08-10T13:12:58.340Z</time>
      </trkpt>
      <trkpt lat="44.06896" lon="7.40511">
        <ele>1859</ele>
        <time>2013-08-10T13:13:02.340Z</time>
      </trkpt>
      <trkpt lat="44.06898" lon="7.40505">
        <ele>1856</ele>
        <time>2013-08-10T13:13:10.240Z</time>
      </trkpt>
      <trkpt lat="44.06896" lon="7.40498">
        <ele>1854</ele>
        <time>2013-08-10T13:13:15.240Z</time>
      </trkpt>
      <trkpt lat="44.06903" lon="7.4049">
        <ele>1852</ele>
        <time>2013-08-10T13:13:20.240Z</time>
      </trkpt>
      <trkpt lat="44.06899" lon="7.40489">
        <ele>1852</ele>
        <time>2013-08-10T13:13:24.090Z</time>
      </trkpt>
      <trkpt lat="44.06899" lon="7.40486">
        <ele>1849</ele>
        <time>2013-08-10T13:13:25.460Z</time>
      </trkpt>
      <trkpt lat="44.06928" lon="7.4047">
        <ele>1844.16</ele>
        <time>2013-08-10T13:13:39.360Z</time>
      </trkpt>
      <trkpt lat="44.06921" lon="7.40466">
        <ele>1839.683167313</ele>
        <time>2013-08-10T13:13:49.240Z</time>
      </trkpt>
      <trkpt lat="44.06931" lon="7.40452">
        <ele>1833</ele>
        <time>2013-08-10T13:14:02.150Z</time>
      </trkpt>
      <trkpt lat="44.06927" lon="7.40452">
        <ele>1831</ele>
        <time>2013-08-10T13:14:05.240Z</time>
      </trkpt>
      <trkpt lat="44.0693" lon="7.40441">
        <ele>1827</ele>
        <time>2013-08-10T13:14:15.090Z</time>
      </trkpt>
      <trkpt lat="44.06933" lon="7.4044">
        <ele>1827</ele>
        <time>2013-08-10T13:14:17.240Z</time>
      </trkpt>
      <trkpt lat="44.06925" lon="7.40431">
        <ele>1824.6999936</ele>
        <time>2013-08-10T13:14:24.380Z</time>
      </trkpt>
      <trkpt lat="44.06945" lon="7.4043">
        <ele>1819</ele>
        <time>2013-08-10T13:14:38.380Z</time>
      </trkpt>
      <trkpt lat="44.06948" lon="7.40424">
        <ele>1818</ele>
        <time>2013-08-10T13:14:46.240Z</time>
      </trkpt>
      <trkpt lat="44.06955" lon="7.40421">
        <ele>1818</ele>
        <time>2013-08-10T13:14:52.340Z</time>
      </trkpt>
      <trkpt lat="44.06957" lon="7.40416">
        <ele>1815</ele>
        <time>2013-08-10T13:14:56.340Z</time>
      </trkpt>
      <trkpt lat="44.06969" lon="7.40411">
        <ele>1815</ele>
        <time>2013-08-10T13:15:02.340Z</time>
      </trkpt>
      <trkpt lat="44.06972" lon="7.40407">
        <ele>1814.04</ele>
        <time>2013-08-10T13:15:04.240Z</time>
      </trkpt>
      <trkpt lat="44.06971" lon="7.40405">
        <ele>1808</ele>
        <time>2013-08-10T13:15:06.090Z</time>
      </trkpt>
      <trkpt lat="44.06974" lon="7.40403">
        <ele>1805</ele>
        <time>2013-08-10T13:15:10.340Z</time>
      </trkpt>
      <trkpt lat="44.07329" lon="7.40104">
        <ele>1685</ele>
        <time>2013-08-10T13:20:06.340Z</time>
      </trkpt>
      <trkpt lat="44.07345" lon="7.40107">
        <ele>1680</ele>
        <time>2013-08-10T13:20:16.300Z</time>
      </trkpt>
      <trkpt lat="44.07369" lon="7.40107">
        <ele>1681</ele>
        <time>2013-08-10T13:20:28.340Z</time>
      </trkpt>
      <trkpt lat="44.07389" lon="7.40119">
        <ele>1680</ele>
        <time>2013-08-10T13:20:38.340Z</time>
      </trkpt>
      <trkpt lat="44.07405" lon="7.40116">
        <ele>1681</ele>
        <time>2013-08-10T13:20:45.340Z</time>
      </trkpt>
      <trkpt lat="44.07409" lon="7.40119">
        <ele>1681.16</ele>
        <time>2013-08-10T13:20:54.240Z</time>
      </trkpt>
      <trkpt lat="44.07417" lon="7.40114">
        <ele>1682</ele>
        <time>2013-08-10T13:21:03.200Z</time>
      </trkpt>
      <trkpt lat="44.07422" lon="7.40104">
        <ele>1681</ele>
        <time>2013-08-10T13:21:10.460Z</time>
      </trkpt>
      <trkpt lat="44.0742" lon="7.4009">
        <ele>1680</ele>
        <time>2013-08-10T13:21:20.180Z</time>
      </trkpt>
      <trkpt lat="44.07423" lon="7.40081">
        <ele>1682</ele>
        <time>2013-08-10T13:21:28.340Z</time>
      </trkpt>
      <trkpt lat="44.07422" lon="7.40052">
        <ele>1682</ele>
        <time>2013-08-10T13:21:41.240Z</time>
      </trkpt>
    </trkseg>
  </trk>
</gpx>